                ,  2.047,  2.194,  2.342,  2.490,  2.638,  2.785,  2.933,  3.081,  3.229,  3.376,  3.524,  3.672,  3.819,  3.967,  4.115,  4.263,  4.410,  4.558,  4.706,  4.853,  5.001,  5.149,  5.297,  5.444,  5.592,  5.740,  5.888,  6.035,  6.183,  6.331,  6.478,  6.626,  6.774,  6.922,  7.069,  7.217,  7.365,  7.512,  7.660,  7.808,  7.956,  8.103,  8.251,  8.399,  8.547,  8.694,  8.842,  8.990,  9.137,  9.285,  9.433,  9.581,  9.728,  9.876, 10.024, 10.171, 10.319, 10.467, 10.615, 10.762, 10.910, 11.058, 11.205, 11.353, 11.501, 11.649, 11.796, 11.944, 12.092, 12.240, 12.387, 12.535, 12.683, 12.830, 12.978, 13.126, 13.274, 13.421, 13.569, 13.717, 13.864, 14.012, 14.160, 14.308, 14.455, 14.603, 14.751, 14.899, 15.046, 15.194, 15.342, 15.489, 15.637, 15.785, 15.933, 16.080, 16.228, 16.376, 16.523, 16.671, 16.819, 16.967, 17.114, 17.262, 17.410, 17.557, 17.705, 17.853, 18.001, 18.148, 18.296, 18.444, 18.592, 18.739, 18.887, 19.035, 19.182, 19.330, 19.478, 19.626
2016/09/02 00:00,   -0.1,  999.0,  999.0,   -2.5,   -2.9,   -2.2,   -2.8,   -3.6,   -4.0,   -3.6,   -3.8,   -5.0,   -6.4,   -7.7,   -7.8,   -6.7,   -7.9,   -8.6,   -7.3,   -5.6,   -6.6,   -7.7,   -7.7,   -8.4,  -10.0,  -10.3,  -11.3,  -12.3,  -12.5,  -13.6,  -15.1,  -17.4,  -18.7,  -18.0,  -17.7,  -16.7,  -17.0,  -15.1,  -14.2,  -12.9,  -12.8,  -12.8,  -12.2,  -11.8,  -12.0,  -11.0,  -10.3,   -9.1,   -8.3,   -7.8,   -7.0,   -6.6,   -7.9,   -7.6,   -7.0,   -7.2,   -7.6,   -7.8,   -9.0,   -9.4,   -9.3,   -9.6,   -9.4,  -10.2,  -11.3,  -11.6,  -12.3,  999.0,  -13.2,  999.0,  999.0,  999.0,  999.0,  999.0,  999.0,  999.0,  999.0,  999.0,  999.0,  -21.8,  999.0,  999.0,  999.0,  999.0,  999.0,  999.0,  999.0,  999.0,  999.0,  999.0,  999.0,  999.0,  999.0,  999.0,  999.0,  -29.5,  -28.6,  999.0,  999.0,  999.0,  999.0,  999.0,  999.0,  999.0,  999.0,  999.0,  999.0,  999.0,  999.0,  999.0,  999.0,  999.0,  999.0,  -11.2,  999.0,  -11.8,  999.0,  999.0,  999.0,  999.0
2016/09/02 00:10,   -0.0,  999.0,  999.0,   -2.0,   -2.2,   -1.7,   -2.3,   -3.1,   -3.1,   -3.1,   -3.0,   -4.1,   -5.0,   -6.4,   -5.9,   -5.9,   -7.0,   -7.8,   -5.6,   -5.0,   -5.7,   -7.6,   -7.5,   -7.6,   -9.0,  -10.3,  -11.1,  -11.9,  -12.0,  -12.7,  -13.8,  -16.2,  -17.5,  -18.6,  -17.5,  -16.9,  -17.0,  -15.4,  -14.5,  -12.9,  -12.3,  -10.8,  -10.8,  -11.2,  -11.3,  -10.2,   -9.7,   -8.4,   -7.9,   -7.8,   -6.9,   -6.5,   -7.5,   -7.7,   -7.5,   -8.0,   -7.9,   -8.2,   -9.8,   -9.9,   -9.7,   -9.7,   -9.6,  -10.4,  -11.2,  -11.4,  -12.0,  -12.4,  999.0,  999.0,  999.0,  999.0,  999.0,  999.0,  999.0,  999.0,  999.0,  999.0,  999.0,  999.0,  999.0,  999.0,  999.0,  999.0,  999.0,  999.0,  999.0,  999.0,  999.0,  999.0,  999.0,  999.0,  999.0,  999.0,  999.0,  -29.4,  999.0,  999.0,  999.0,  999.0,  999.0,  999.0,  999.0,  999.0,  999.0,  999.0,  999.0,  999.0,  999.0,  999.0,  999.0,  999.0,  999.0,  999.0,  -14.3,  -12.3,   -9.7,  999.0,  999.0,  999.0
2016/09/02 00:20,   -0.1,    0.1,  999.0,   -0.6,   -0.6,   -1.8,   -2.8,   -2.3,   -1.7,   -2.3,   -1.7,   -2.0,   -3.2,   -5.2,   -5.2,   -5.5,   -6.6,   -7.3,   -5.0,   -4.8,   -6.3,   -9.0,   -9.3,   -9.5,  -10.2,  -10.5,  -12.3,  -12.6,  -12.5,  -12.5,  -13.0,  -14.7,  -16.4,  -17.3,  -16.9,  -17.5,  -17.8,  -16.8,  -15.6,  -13.4,  -10.5,   -9.9,  -10.2,  -10.3,  -10.2,  -10.0,   -9.7,   -8.6,   -7.8,   -7.0,   -6.5,   -6.3,   -7.1,   -7.9,   -7.9,   -8.3,   -8.5,   -8.7,   -9.7,   -9.6,   -9.6,   -9.5,   -9.9,  -10.2,  -10.6,  -11.3,  -10.6,  -10.6,  -11.5,  -11.7,  999.0,  999.0,  999.0,  999.0,  999.0,  999.0,  999.0,  999.0,  999.0,  999.0,  999.0,  999.0,  999.0,  999.0,  999.0,  999.0,  999.0,  999.0,  999.0,  999.0,  999.0,  999.0,  999.0,  999.0,  999.0,  -29.0,  -28.2,  999.0,  999.0,  999.0,  999.0,  999.0,  999.0,  999.0,  999.0,  999.0,  999.0,  999.0,  999.0,  999.0,  999.0,  999.0,  999.0,  999.0,  999.0,  -12.4,  -10.1,  999.0,  999.0,  999.0
2016/09/02 00:30,   -0.8,  999.0,  999.0,   -0.9,   -1.4,   -1.9,   -2.5,   -2.3,   -2.3,   -2.4,   -1.8,   -1.4,   -2.4,   -4.6,   -4.8,   -6.0,   -6.5,   -6.4,   -5.7,   -5.7,   -6.9,   -9.7,  -11.5,  -11.2,  -11.6,  -12.1,  -12.7,  -13.3,  -13.4,  -13.7,  -14.4,  -14.8,  -15.3,  -16.0,  -16.2,  -16.4,  -17.1,  -16.1,  -15.1,  -13.0,   -9.9,   -8.8,   -7.7,   -7.0,   -6.8,   -7.0,   -6.6,   -6.8,   -9.1,   -5.9,   -5.3,   -5.9,   -6.1,   -7.4,   -7.1,   -7.4,   -7.9,   -8.1,   -7.9,   -8.6,   -9.2,   -8.6,   -9.1,   -8.9,   -9.2,  -10.7,   -9.8,  -10.1,  -10.1,  -11.3,  999.0,  999.0,  999.0,  999.0,  999.0,  999.0,  999.0,  999.0,  999.0,  999.0,  999.0,  999.0,  999.0,  999.0,  999.0,  999.0,  999.0,  999.0,  999.0,  999.0,  999.0,  999.0,  999.0,  999.0,  999.0,  -28.9,  -29.1,  999.0,  999.0,  999.0,  999.0,  999.0,  999.0,  999.0,  -21.7,  999.0,  999.0,  999.0,  999.0,  999.0,  999.0,  999.0,  999.0,  999.0,  999.0,  -12.4,  -10.9,  999.0,  999.0,  999.0
2016/09/02 00:40,  999.0,  999.0,  999.0,  999.0,   -2.1,   -2.3,   -3.0,   -2.8,   -3.2,   -4.1,   -3.7,   -3.9,   -3.8,   -5.1,   -6.7,   -7.1,   -6.7,   -5.9,   -5.7,   -5.9,   -6.4,   -8.4,  -10.7,  -10.3,  -10.8,  -12.1,  -12.5,  -13.4,  -13.2,  -13.2,  -13.3,  -13.3,  -13.8,  -14.0,  -14.1,  -14.4,  -14.4,  -14.2,  -13.0,  -11.7,   -8.9,   -7.5,   -6.9,   -6.2,   -5.7,   -5.6,   -5.0,   -5.2,   -5.7,   -4.3,   -4.2,   -4.3,   -4.9,   -4.6,   -4.9,   -5.6,   -7.2,   -6.7,   -5.6,   -7.2,   -8.1,   -7.8,   -6.5,   -8.4,   -9.0,  -10.0,   -9.3,   -9.0,  -10.4,  -11.9,  999.0,  999.0,  999.0,  999.0,  999.0,  999.0,  999.0,  999.0,  -19.2,  999.0,  999.0,  999.0,  -23.9,  999.0,  999.0,  999.0,  999.0,  999.0,  999.0,  999.0,  999.0,  999.0,  999.0,  999.0,  999.0,  -28.3,  -30.5,  999.0,  999.0,  999.0,  999.0,  999.0,  999.0,  999.0,  -21.2,  -23.5,  999.0,  999.0,  999.0,  999.0,  999.0,  999.0,  999.0,  999.0,  999.0,  -10.7,  999.0,  999.0,  999.0,  999.0
2016/09/02 00:50,  999.0,  999.0,  999.0,   -1.5,   -2.2,   -2.5,   -3.0,   -2.9,   -3.7,   -4.2,   -4.2,   -4.3,   -4.5,   -4.9,   -6.6,   -6.4,   -6.4,   -5.9,   -5.7,   -5.6,  999.0,   -7.6,   -9.1,   -9.3,  -10.3,  999.0,  -12.4,  -13.1,  -13.0,  -13.3,  -13.0,  -12.6,  -13.5,  -13.7,  -14.0,  -13.9,  -13.9,  -13.7,  -12.8,  -12.0,   -8.4,   -6.9,   -6.3,   -6.1,   -5.3,   -5.2,   -4.2,   -4.5,   -5.2,   -4.1,   -4.8,   -4.4,   -4.1,   -3.8,   -3.8,   -4.6,   -5.9,   -6.0,   -5.0,   -6.2,   -7.2,   -7.6,   -7.5,   -8.4,   -9.2,   -8.1,   -9.4,   -8.8,  -10.2,  -12.4,  999.0,  999.0,  999.0,  999.0,  999.0,  999.0,  999.0,  -18.7,  -19.4,  999.0,  999.0,  999.0,  -23.7,  999.0,  999.0,  999.0,  999.0,  999.0,  999.0,  999.0,  999.0,  999.0,  999.0,  999.0,  999.0,  -27.9,  -30.4,  999.0,  999.0,  999.0,  999.0,  999.0,  999.0,  999.0,  -22.1,  -23.7,  999.0,  999.0,  999.0,  999.0,  999.0,  999.0,  999.0,  999.0,  999.0,  -10.5,  999.0,  999.0,  999.0,  999.0
2016/09/02 01:00,  999.0,  999.0,  999.0,  999.0,  999.0,  999.0,  999.0,  999.0,  999.0,  999.0,  999.0,  999.0,  999.0,  999.0,  999.0,  999.0,  999.0,  999.0,  999.0,  999.0,  999.0,  999.0,  999.0,  999.0,  999.0,  999.0,  999.0,  999.0,  999.0,  999.0,  999.0,  999.0,  999.0,  999.0,  999.0,  999.0,  999.0,  999.0,  999.0,  999.0,  999.0,  999.0,  999.0,  999.0,  999.0,  999.0,  999.0,  999.0,  999.0,  999.0,  999.0,  999.0,  999.0,  999.0,  999.0,  999.0,  999.0,  999.0,  999.0,  999.0,  999.0,  999.0,  999.0,  999.0,  999.0,  999.0,  999.0,  999.0,  999.0,  999.0,  999.0,  999.0,  999.0,  999.0,  999.0,  999.0,  999.0,  999.0,  999.0,  999.0,  999.0,  999.0,  999.0,  999.0,  999.0,  999.0,  999.0,  999.0,  999.0,  999.0,  999.0,  999.0,  999.0,  999.0,  999.0,  999.0,  999.0,  999.0,  999.0,  999.0,  999.0,  999.0,  999.0,  999.0,  999.0,  999.0,  999.0,  999.0,  999.0,  999.0,  999.0,  999.0,  999.0,  999.0,  999.0,  999.0,  999.0,  999.0,  999.0,  999.0
2016/09/02 01:10,  999.0,  999.0,  999.0,  999.0,  999.0,  999.0,  999.0,  999.0,  999.0,  999.0,  999.0,  999.0,  999.0,  999.0,  999.0,  999.0,  999.0,  999.0,  999.0,  999.0,  999.0,  999.0,  999.0,  999.0,  999.0,  999.0,  999.0,  999.0,  999.0,  999.0,  999.0,  999.0,  999.0,  999.0,  999.0,  999.0,  999.0,  999.0,  999.0,  999.0,  999.0,  999.0,  999.0,  999.0,  999.0,  999.0,  999.0,  999.0,  999.0,  999.0,  999.0,  999.0,  999.0,  999.0,  999.0,  999.0,  999.0,  999.0,  999.0,  999.0,  999.0,  999.0,  999.0,  999.0,  999.0,  999.0,  999.0,  999.0,  999.0,  999.0,  999.0,  999.0,  999.0,  999.0,  999.0,  999.0,  999.0,  999.0,  999.0,  999.0,  999.0,  999.0,  999.0,  999.0,  999.0,  999.0,  999.0,  999.0,  999.0,  999.0,  999.0,  999.0,  999.0,  999.0,  999.0,  999.0,  999.0,  999.0,  999.0,  999.0,  999.0,  999.0,  999.0,  999.0,  999.0,  999.0,  999.0,  999.0,  999.0,  999.0,  999.0,  999.0,  999.0,  999.0,  999.0,  999.0,  999.0,  999.0,  999.0,  999.0
2016/09/02 01:20,  999.0,  999.0,   -1.8,   -2.2,   -2.5,   -2.5,   -2.7,   -3.1,   -3.8,   -3.8,   -3.3,   -2.9,   -1.8,   -0.9,   -1.6,   -2.8,   -3.4,   -3.7,   -3.8,   -5.2,   -7.0,   -7.2,   -8.1,  -10.1,  -12.5,  -12.8,  -12.5,  -13.5,  -13.6,  -14.5,  -14.1,  -12.8,  -12.8,  -13.5,  -14.3,  -15.0,  -15.6,  -14.8,  -14.1,  -11.9,   -8.7,   -8.1,   -7.3,   -7.1,   -6.7,   -7.1,   -7.1,   -3.6,   -6.3,   -6.6,   -6.0,   -5.2,   -5.1,   -5.3,   -5.7,   -5.6,   -6.0,   -6.6,   -8.2,   -8.7,   -8.5,   -8.5,   -7.4,   -8.6,   -9.5,   -9.2,   -9.4,   -8.4,  -10.0,  -12.1,  999.0,  999.0,  999.0,  999.0,  999.0,  -15.6,  -16.8,  -19.1,  999.0,  999.0,  999.0,  999.0,  999.0,  999.0,  999.0,  999.0,  999.0,  999.0,  999.0,  999.0,  999.0,  999.0,  999.0,  999.0,  -27.6,  -29.3,  999.0,  999.0,  999.0,  999.0,  999.0,  999.0,  999.0,  999.0,  -22.5,  -24.8,  999.0,  999.0,  999.0,  999.0,  999.0,  999.0,  999.0,  -12.3,  999.0,  999.0,  999.0,  999.0,  999.0,  999.0
2016/09/02 01:30,  999.0,  999.0,  999.0,   -2.1,   -2.0,   -2.9,   -2.4,   -3.0,   -3.7,   -3.6,   -3.2,   -2.6,   -1.9,   -1.5,   -1.5,   -2.6,   -3.4,   -3.7,   -4.2,  999.0,   -6.3,   -7.6,   -8.6,  -11.1,  -13.1,  -13.5,  -13.5,  -13.6,  -13.9,  -14.5,  -14.0,  -12.9,  -13.2,  -14.3,  -14.7,  -15.7,  -15.8,  -15.1,  -13.9,  -12.3,   -8.5,   -7.9,   -7.0,   -6.8,   -6.9,   -6.9,   -7.5,   -3.5,   -6.0,   -6.4,   -5.3,   -4.6,   -4.6,   -4.8,   -5.2,   -4.9,   -5.5,   -6.9,   -8.5,   -8.8,   -7.9,   -8.6,   -7.8,   -8.3,   -9.8,  999.0,   -8.3,   -8.4,   -8.8,  -10.6,  999.0,  999.0,  999.0,  999.0,  999.0,  -15.1,  -17.0,  999.0,  999.0,  999.0,  999.0,  999.0,  999.0,  999.0,  999.0,  999.0,  999.0,  999.0,  999.0,  999.0,  999.0,  999.0,  999.0,  999.0,  999.0,  999.0,  999.0,  999.0,  999.0,  999.0,  999.0,  999.0,  999.0,  999.0,  999.0,  -22.9,  999.0,  999.0,  999.0,  999.0,  999.0,  999.0,  999.0,  999.0,  999.0,  999.0,  999.0,  999.0,  999.0,  999.0
2016/09/02 01:40,    0.1,  999.0,   -1.5,   -1.8,   -2.4,   -2.9,   -3.4,   -3.2,   -4.3,   -4.0,   -3.7,   -2.5,   -1.6,   -2.4,   -1.8,   -2.6,   -3.3,   -4.2,   -5.5,   -6.3,   -6.6,   -7.6,   -9.2,  -11.2,  -13.0,  -12.9,  -13.1,  -13.8,  -13.5,  -13.9,  -13.4,  -13.0,  -13.3,  -14.5,  -14.7,  -15.5,  -15.1,  -14.8,  -14.0,  -11.1,   -8.1,   -7.3,   -7.0,   -6.7,   -6.4,   -6.2,   -7.8,   -3.0,   -5.8,   -6.2,   -5.2,   -4.5,   -4.3,   -4.5,   -4.4,   -3.6,   -4.9,   -6.5,   -7.5,   -8.0,   -7.2,   -7.8,   -7.8,   -8.9,   -9.5,   -8.0,   -8.0,   -7.2,   -7.4,   -9.2,  999.0,  999.0,  999.0,  999.0,  999.0,  -14.9,  -15.9,  999.0,  999.0,  999.0,  999.0,  999.0,  999.0,  999.0,  999.0,  -25.0,  999.0,  999.0,  999.0,  999.0,  999.0,  999.0,  999.0,  999.0,  999.0,  999.0,  999.0,  999.0,  999.0,  -24.8,  999.0,  999.0,  999.0,  999.0,  999.0,  999.0,  999.0,  999.0,  999.0,  999.0,  999.0,  999.0,  999.0,  -13.0,  999.0,  999.0,  999.0,  999.0,  999.0,  999.0
2016/09/02 01:50,  999.0,  999.0,  999.0,   -3.7,   -3.3,   -3.6,   -3.9,   -3.5,   -3.9,   -3.7,   -3.3,   -1.9,   -1.2,   -2.7,   -2.1,   -2.9,   -3.7,   -5.0,   -6.2,   -6.6,   -6.5,   -7.6,   -9.9,  -11.5,  -12.7,  -12.7,  -12.6,  -12.9,  -12.2,  -13.1,  -12.7,  -12.1,  -12.8,  -13.9,  -14.1,  -14.4,  -14.3,  -13.9,  -13.5,   -8.3,   -7.1,   -5.6,   -5.9,   -4.8,   -5.1,   -4.6,   -7.0,   -2.4,   -5.3,   -5.8,   -4.9,   -4.1,   -4.0,   -3.8,   -3.9,   -3.6,   -4.5,   -5.8,   -6.9,   -7.3,   -6.6,   -7.1,   -7.7,   -9.0,   -9.3,   -8.3,   -6.7,   -6.4,   -6.3,   -8.5,  -11.2,  999.0,  999.0,  999.0,  999.0,  999.0,  -14.9,  999.0,  999.0,  999.0,  999.0,  999.0,  999.0,  999.0,  999.0,  999.0,  999.0,  999.0,  999.0,  999.0,  999.0,  999.0,  999.0,  -26.0,  999.0,  999.0,  999.0,  999.0,  999.0,  -24.1,  -25.2,  999.0,  999.0,  999.0,  999.0,  999.0,  999.0,  999.0,  999.0,  999.0,  999.0,  999.0,  -12.1,  -12.8,  999.0,  999.0,  999.0,  999.0,  999.0,  999.0
2016/09/02 02:00,  999.0,  999.0,  999.0,   -5.3,   -4.2,   -3.8,   -4.1,   -4.6,   -3.9,   -3.7,   -2.9,   -1.7,   -1.5,   -2.5,   -4.0,   -4.2,   -5.0,   -5.9,   -6.8,   -7.0,   -6.9,   -9.7,  -11.3,  -12.4,  -13.3,  -13.2,  -13.2,  -12.9,  -12.0,  -12.6,  -12.3,  -11.7,  -13.0,  -14.0,  -13.8,  -13.5,  -14.0,  -13.4,  -12.9,   -8.2,   -6.5,   -5.1,   -5.1,   -4.7,   -4.8,   -4.4,   -7.0,   -2.5,  999.0,   -5.9,   -4.8,   -4.5,   -4.8,   -4.1,   -4.1,   -4.2,   -4.9,   -5.7,   -7.1,   -6.8,   -6.6,   -6.9,   -7.8,  999.0,  999.0,   -8.8,   -8.8,   -5.7,   -6.3,   -8.4,  -10.6,  999.0,  999.0,  999.0,  999.0,  999.0,  999.0,  999.0,  999.0,  999.0,  999.0,  999.0,  999.0,  999.0,  999.0,  999.0,  999.0,  999.0,  999.0,  999.0,  999.0,  999.0,  999.0,  999.0,  999.0,  999.0,  999.0,  999.0,  999.0,  -24.0,  999.0,  999.0,  999.0,  999.0,  999.0,  999.0,  999.0,  999.0,  999.0,  999.0,  999.0,  999.0,  999.0,  999.0,  999.0,  999.0,  999.0,  999.0,  999.0,   -8.9
2016/09/02 02:10,  -28.0,  999.0,  999.0,   -4.7,   -4.2,   -4.1,   -4.9,   -5.4,   -5.1,   -4.9,   -3.7,   -3.4,   -2.9,   -3.7,   -4.2,   -5.0,   -6.4,   -7.3,   -7.2,   -7.0,   -7.7,  -10.7,  -12.3,  -13.5,  -13.8,  -13.6,  -13.3,  -12.3,  -12.1,  -12.3,  -12.1,  -11.6,  -13.6,  -14.2,  -13.2,  -13.0,  -13.8,  -13.3,  -12.2,   -8.7,   -6.9,   -5.9,   -5.5,   -5.2,   -5.6,   -5.9,   -4.9,   -5.7,   -7.7,   -6.9,   -5.6,   -5.9,   -5.8,   -5.5,   -5.2,   -4.8,   -6.0,   -6.5,   -7.3,   -8.4,   -7.2,   -8.1,   -8.4,   -9.9,   -9.9,   -8.8,  999.0,   -6.2,   -7.0,   -8.1,   -9.8,  -11.5,  999.0,  999.0,  999.0,  999.0,  999.0,  999.0,  999.0,  999.0,  -20.9,  999.0,  999.0,  999.0,  999.0,  999.0,  999.0,  999.0,  999.0,  999.0,  999.0,  999.0,  999.0,  999.0,  999.0,  999.0,  999.0,  999.0,  999.0,  -24.3,  -27.7,  999.0,  999.0,  999.0,  -23.9,  999.0,  999.0,  999.0,  999.0,  -19.6,  999.0,  999.0,  999.0,  999.0,  999.0,  999.0,  999.0,  999.0,  999.0,  999.0
2016/09/02 02:20,  -27.5,  999.0,  999.0,   -1.7,   -3.0,   -3.3,   -4.7,   -5.2,   -5.3,   -5.1,   -4.6,   -4.6,   -4.3,   -3.8,   -3.3,   -4.6,   -6.5,   -7.6,   -7.2,   -7.2,   -8.3,  -11.6,  -12.9,  -14.1,  -14.0,  -14.0,  -14.1,  -12.5,  -12.1,  -11.9,  -11.7,  -11.9,  -13.5,  -14.2,  -13.1,  -13.3,  -13.9,  -13.2,  -12.2,   -9.7,   -7.5,   -6.6,   -5.8,   -5.7,   -6.0,   -6.2,   -6.8,   -6.7,   -7.6,   -7.7,   -6.4,   -6.9,   -6.9,   -6.3,   -5.9,   -5.3,   -6.3,   -6.9,   -7.1,   -8.7,   -8.2,   -8.7,   -8.8,  -10.3,  999.0,   -8.8,   -7.3,   -6.5,   -7.1,   -8.4,   -9.9,  -11.2,  999.0,  -11.7,  999.0,  999.0,  999.0,  999.0,  999.0,  999.0,  -20.9,  999.0,  999.0,  999.0,  999.0,  999.0,  999.0,  999.0,  999.0,  999.0,  999.0,  999.0,  999.0,  999.0,  -26.3,  -26.2,  999.0,  999.0,  999.0,  999.0,  -28.1,  999.0,  999.0,  999.0,  999.0,  999.0,  999.0,  999.0,  999.0,  999.0,  999.0,  999.0,  999.0,  999.0,  999.0,  999.0,  999.0,  999.0,  999.0,  999.0
2016/09/02 02:30,  999.0,  999.0,    0.0,   -1.0,   -2.0,   -2.5,   -4.1,   -4.7,   -4.9,   -5.4,   -5.1,   -4.5,   -4.6,   -3.5,   -2.6,   -4.0,   -6.7,   -7.8,   -6.6,  999.0,   -9.2,  -11.8,  -12.8,  -13.7,  -14.1,  -14.3,  -14.6,  -12.6,  -12.0,  -12.0,  -11.7,  -12.3,  -13.4,  -14.0,  -13.6,  -13.8,  -14.2,  -13.3,  -12.3,   -9.6,   -8.0,   -7.4,   -6.3,   -5.9,   -5.8,   -5.7,   -8.1,   -6.0,   -7.3,   -7.7,   -6.4,   -6.7,   -6.8,   -6.0,   -5.4,   -5.0,   -5.9,   -6.4,   -6.6,   -7.9,   -8.0,   -8.4,   -8.7,   -9.8,  999.0,  999.0,  999.0,   -7.2,   -7.2,  999.0,  -10.4,  -10.8,  999.0,  999.0,  999.0,  999.0,  999.0,  999.0,  999.0,  999.0,  -20.6,  999.0,  999.0,  999.0,  -30.5,  -30.8,  999.0,  999.0,  999.0,  999.0,  999.0,  999.0,  999.0,  999.0,  -25.9,  999.0,  -24.8,  999.0,  999.0,  999.0,  -26.3,  999.0,  999.0,  999.0,  999.0,  999.0,  999.0,  999.0,  999.0,  999.0,  999.0,  999.0,  999.0,  999.0,  -11.3,  999.0,  999.0,  999.0,  999.0,  999.0
2016/09/02 02:40,  999.0,  999.0,   -0.4,   -2.1,   -2.2,   -3.2,   -4.6,   -4.8,   -5.4,   -5.8,   -5.9,   -5.2,   -4.7,   -3.9,   -3.4,   -5.6,   -7.6,   -6.6,  999.0,  999.0,   -9.5,  -11.4,  -12.1,  -13.1,  -13.4,  -14.3,  -14.1,  -13.0,  -12.9,  -12.0,  -11.9,  -12.3,  -14.1,  -14.0,  -13.8,  -14.4,  -14.3,  -13.3,  -12.5,  -10.4,   -8.6,   -8.4,   -7.4,   -6.3,   -6.0,   -6.2,   -8.5,   -4.9,   -6.7,   -7.4,   -5.6,   -5.9,   -5.9,   -5.1,   -4.5,   -5.0,   -6.1,   -6.0,   -6.8,   -7.6,   -8.2,   -8.3,   -8.6,   -8.9,  999.0,   -7.0,   -7.5,   -7.1,   -7.7,   -9.6,  -10.5,   -9.7,  999.0,  999.0,  999.0,  -17.2,  999.0,  999.0,  999.0,  -21.1,  999.0,  999.0,  999.0,  -25.8,  -30.0,  -29.6,  999.0,  999.0,  999.0,  999.0,  999.0,  999.0,  999.0,  -25.7,  999.0,  999.0,  -24.7,  999.0,  999.0,  999.0,  -25.4,  -27.6,  999.0,  999.0,  999.0,  999.0,  999.0,  999.0,  999.0,  999.0,  999.0,  999.0,  999.0,  999.0,  999.0,  999.0,  999.0,  999.0,  999.0,  999.0
2016/09/02 02:50,  999.0,  999.0,   -1.8,   -3.5,   -3.5,   -4.6,   -5.4,   -5.7,   -6.1,   -6.1,   -6.0,   -5.7,   -5.6,   -5.0,   -5.3,   -6.5,   -7.0,   -6.2,  999.0,   -7.2,   -9.7,  -11.3,  -12.1,  -12.9,  -13.1,  -13.5,  -14.1,  -14.3,  -13.6,  -12.3,  -11.8,  -11.9,  -13.6,  -14.1,  -13.8,  -14.8,  -14.8,  -13.3,  -12.4,  -12.2,   -9.9,   -9.2,   -8.3,   -7.3,   -6.6,   -6.5,   -6.5,   -5.3,   -6.4,   -7.1,   -5.6,   -5.7,   -5.4,   -4.8,   -5.0,   -5.2,   -5.8,   -6.3,   -7.2,   -7.9,   -8.6,   -8.7,   -8.6,   -8.1,  999.0,   -6.0,   -7.7,   -7.3,   -9.2,  -10.0,  -10.5,  999.0,  999.0,  999.0,  999.0,  999.0,  999.0,  -18.1,  -20.3,  -21.3,  -23.1,  999.0,  -25.3,  -27.5,  999.0,  -30.0,  999.0,  999.0,  999.0,  999.0,  999.0,  999.0,  999.0,  -25.8,  -28.3,  999.0,  999.0,  999.0,  999.0,  999.0,  999.0,  -27.7,  999.0,  999.0,  999.0,  999.0,  999.0,  999.0,  999.0,  999.0,  999.0,  999.0,  999.0,  999.0,  999.0,  999.0,  999.0,  999.0,  999.0,  999.0
2016/09/02 03:00,   -0.2,  999.0,   -2.7,   -4.5,   -4.9,   -5.1,   -5.9,   -6.1,   -6.0,   -6.2,   -5.9,   -5.3,   -5.9,   -5.7,   -5.7,   -6.8,   -6.6,   -5.7,  999.0,   -7.5,   -9.4,  -10.3,  -11.8,  -12.9,  -13.3,  -13.5,  -13.8,  -14.2,  -13.6,  -12.7,  -11.5,  -11.1,  -12.6,  -14.0,  -13.8,  -15.0,  -15.3,  -14.3,  -12.8,  -12.6,  -10.6,   -9.5,   -9.1,   -8.1,   -7.5,   -7.0,   -6.9,   -5.8,   -7.1,   -7.1,   -5.7,   -5.7,   -5.7,   -5.6,   -5.4,   -5.4,   -6.2,   -7.2,   -7.8,   -7.9,   -8.9,   -9.1,   -9.0,   -7.9,  999.0,   -5.7,  999.0,  999.0,   -9.6,   -9.1,  999.0,  999.0,  -11.3,  999.0,  999.0,  999.0,  999.0,  -18.2,  -17.8,  999.0,  999.0,  999.0,  -26.2,  -28.1,  999.0,  -29.9,  999.0,  999.0,  999.0,  999.0,  999.0,  999.0,  999.0,  999.0,  999.0,  999.0,  999.0,  999.0,  999.0,  999.0,  999.0,  999.0,  999.0,  999.0,  -23.6,  999.0,  999.0,  999.0,  999.0,  999.0,  999.0,  999.0,  999.0,  999.0,  -11.0,  999.0,  999.0,  999.0,  999.0,  999.0
2016/09/02 03:10,   -6.6,   -4.4,   -3.4,   -4.9,   -4.8,   -5.0,   -5.4,   -5.4,   -5.3,   -5.9,   -5.7,   -4.2,   -5.0,   -5.5,   -5.8,   -6.5,   -6.1,  999.0,  999.0,   -7.6,   -8.9,   -9.8,  -11.5,  -12.6,  -13.1,  -12.8,  -13.7,  -13.4,  -13.6,  -13.3,  -11.1,  -10.9,  -12.4,  -13.2,  -14.2,  -14.8,  -15.4,  -14.7,  -13.8,  -12.5,  -11.6,   -9.4,   -8.3,   -7.5,   -7.8,   -7.7,   -7.0,   -6.9,   -7.5,   -6.9,   -6.0,   -6.0,   -6.0,   -5.8,   -5.5,   -5.6,   -6.8,   -7.7,   -8.4,   -9.2,  999.0,   -9.3,  999.0,   -7.6,   -7.3,  999.0,  999.0,   -8.5,   -9.0,   -8.8,  -10.2,  999.0,  -12.0,  999.0,  999.0,  999.0,  -16.5,  999.0,  999.0,  999.0,  999.0,  -24.2,  999.0,  -26.5,  999.0,  -30.1,  999.0,  999.0,  999.0,  999.0,  999.0,  999.0,  999.0,  999.0,  -28.4,  -26.8,  999.0,  999.0,  999.0,  999.0,  999.0,  -26.4,  999.0,  -19.2,  -23.6,  -21.2,  999.0,  999.0,  999.0,  999.0,  999.0,  999.0,  999.0,  999.0,  -10.9,  999.0,  999.0,  999.0,  999.0,  999.0
2016/09/02 03:20,   -0.1,   -0.2,   -4.3,   -4.7,   -4.4,   -4.4,   -4.4,   -4.7,   -4.1,   -4.7,   -4.7,   -3.4,   -4.1,   -4.4,   -6.7,   -6.7,   -6.7,  999.0,   -7.3,   -8.8,   -9.3,  -10.1,  -11.3,  -12.2,  -12.7,  -12.4,  -13.3,  -12.8,  -13.6,  -13.3,  -11.3,  -11.5,  -12.6,  -12.8,  -13.6,  -14.6,  -14.9,  -14.6,  -14.6,  -11.8,  -11.4,   -9.0,   -7.8,   -7.5,   -8.3,   -8.7,   -8.0,   -7.6,  999.0,   -6.4,   -6.3,   -6.6,   -5.6,   -6.6,   -6.4,   -6.2,   -7.3,   -8.1,   -9.1,   -9.7,   -9.0,  999.0,   -6.9,   -6.7,   -6.5,   -6.7,   -8.6,   -8.7,   -8.9,   -9.6,  -10.8,  999.0,  -12.4,  999.0,  999.0,  999.0,  999.0,  999.0,  999.0,  999.0,  999.0,  -24.7,  -25.9,  999.0,  -28.0,  999.0,  999.0,  999.0,  999.0,  999.0,  999.0,  999.0,  999.0,  999.0,  -25.4,  999.0,  999.0,  999.0,  999.0,  999.0,  999.0,  999.0,  999.0,  -19.1,  -22.4,  -20.1,  999.0,  999.0,  999.0,  999.0,  999.0,  999.0,  999.0,  999.0,  999.0,  999.0,  999.0,  999.0,  999.0,  999.0
2016/09/02 03:30,    0.0,   -0.2,  999.0,   -4.9,   -4.3,   -4.3,   -4.3,   -4.7,   -3.7,   -4.5,   -4.8,   -4.0,   -5.3,   -6.3,   -7.1,   -7.9,   -7.2,   -7.5,   -8.9,   -9.3,   -9.3,  -10.0,  -10.8,  -11.7,  -12.3,  -12.1,  -12.7,  -12.2,  -12.3,  -13.0,  -11.9,  -11.7,  -12.3,  -12.2,  -13.0,  -13.9,  -14.8,  -14.8,  999.0,  -12.0,  -11.2,   -8.9,   -8.2,   -7.9,   -8.8,   -9.1,   -9.3,   -8.1,   -8.8,   -6.0,   -6.2,   -6.4,   -6.0,   -7.2,   -6.9,   -6.9,   -7.6,   -8.3,   -9.4,   -8.5,   -8.7,   -8.1,   -7.0,   -7.2,   -5.2,   -7.3,   -9.3,   -8.8,   -9.5,  -10.0,  999.0,  -12.0,  999.0,  999.0,  999.0,  999.0,  999.0,  999.0,  999.0,  999.0,  999.0,  999.0,  999.0,  999.0,  999.0,  999.0,  999.0,  999.0,  999.0,  999.0,  999.0,  999.0,  999.0,  999.0,  -25.5,  -26.7,  999.0,  999.0,  999.0,  999.0,  999.0,  999.0,  999.0,  -19.6,  -23.0,  999.0,  999.0,  999.0,  999.0,  999.0,  -18.3,  999.0,  999.0,  999.0,  999.0,  999.0,  999.0,  999.0,  999.0,  999.0
2016/09/02 03:40,   -0.0,   -0.7,   -4.8,   -5.6,   -4.8,   -4.4,   -4.7,   -4.9,   -4.5,   -5.2,   -5.5,   -5.3,   -5.3,   -6.0,   -6.3,   -6.9,   -6.9,   -7.7,   -8.8,   -9.2,   -8.8,   -9.8,  -10.6,  -11.5,  -11.8,  -11.4,  -11.6,  -11.6,  -12.1,  -12.5,  -11.8,  -11.1,  -11.4,  -11.6,  -12.1,  -13.5,  -14.3,  -14.3,  -13.1,  -12.2,  -10.8,   -8.9,   -8.5,   -8.3,   -9.1,   -9.3,   -9.2,   -8.3,   -8.8,   -6.3,   -6.4,   -6.4,   -7.7,   -8.0,   -8.0,   -7.5,   -7.5,   -8.2,   -8.7,   -8.2,   -8.2,   -8.1,   -7.4,   -7.7,   -6.6,   -8.6,   -9.3,   -8.9,   -9.4,  -10.3,  -10.9,  -12.6,  999.0,  -15.4,  999.0,  -17.1,  -17.7,  999.0,  999.0,  999.0,  999.0,  999.0,  999.0,  999.0,  999.0,  999.0,  999.0,  999.0,  999.0,  999.0,  999.0,  999.0,  999.0,  999.0,  -25.6,  -26.5,  -26.5,  999.0,  999.0,  999.0,  999.0,  999.0,  999.0,  -19.4,  -23.3,  -20.5,  999.0,  999.0,  999.0,  999.0,  999.0,  999.0,  999.0,  999.0,  999.0,  999.0,  999.0,  999.0,  999.0,  999.0
2016/09/02 03:50,   -2.6,  999.0,   -4.7,   -4.9,   -4.9,   -4.6,   -4.9,   -5.6,   -5.5,   -5.6,   -5.6,   -5.7,   -5.5,   -5.9,   -6.3,   -6.7,   -7.1,   -8.5,   -9.0,   -9.2,   -9.6,  -10.6,  -11.4,  -12.2,  -12.3,  -11.3,  -11.0,  -11.2,  -11.8,  -11.6,  -11.1,  -10.5,  -10.5,  -10.9,  -11.0,  -12.7,  -13.2,  -13.2,  -12.1,  -12.2,  -10.3,   -9.7,   -9.2,   -8.8,   -9.3,   -9.7,   -8.9,   -9.0,   -8.9,   -7.4,   -7.6,   -7.7,   -8.2,   -8.8,   -8.1,   -7.4,   -7.7,   -7.8,   -8.2,   -8.0,   -7.8,   -7.5,   -7.2,   -7.8,   -7.3,   -8.3,   -8.6,   -8.5,   -9.9,  -10.2,  -10.5,  -12.8,  999.0,  999.0,   -9.6,  -16.6,  999.0,  999.0,  999.0,  999.0,  999.0,  999.0,  999.0,  999.0,  -26.9,  999.0,  999.0,  999.0,  999.0,  999.0,  999.0,  999.0,  999.0,  999.0,  999.0,  -25.4,  999.0,  999.0,  999.0,  999.0,  999.0,  999.0,  999.0,  999.0,  999.0,  -20.7,  999.0,  999.0,  999.0,  999.0,  999.0,  999.0,  999.0,  999.0,  999.0,  999.0,  999.0,  999.0,  999.0,  999.0
2016/09/02 04:00,  -10.9,  -10.6,   -4.7,   -4.9,   -4.7,   -4.5,   -4.7,   -5.6,   -5.5,   -5.2,   -5.8,   -6.1,   -6.0,   -6.9,   -7.0,   -7.2,   -8.0,   -8.5,   -8.8,   -9.1,  -10.5,  -11.5,  -12.9,  -12.9,  -12.9,  -11.2,  -11.3,  -11.3,  -11.4,  -11.0,  -10.3,  -10.2,  -10.0,  -10.6,  -10.5,  -12.3,  -12.8,  -13.2,  -12.3,  -12.2,  -11.1,  -10.2,  -10.1,   -9.2,   -9.7,  -10.2,   -9.4,  999.0,   -9.9,   -9.7,   -8.9,   -8.7,   -8.9,   -8.7,   -7.9,   -6.8,   -7.5,   -7.5,   -7.9,   -7.2,   -7.0,   -6.7,   -7.0,   -6.8,   -7.0,   -7.8,   -6.8,   -8.4,   -8.3,   -9.9,  -10.5,  -12.5,  999.0,  999.0,  999.0,  999.0,  999.0,  999.0,  999.0,  999.0,  999.0,  999.0,  999.0,  999.0,  999.0,  999.0,  999.0,  999.0,  999.0,  999.0,  999.0,  999.0,  999.0,  -32.2,  999.0,  999.0,  -23.3,  999.0,  999.0,  999.0,  999.0,  999.0,  999.0,  999.0,  999.0,  999.0,  999.0,  999.0,  999.0,  999.0,  999.0,  999.0,  999.0,  999.0,  999.0,  999.0,  999.0,  999.0,  999.0,  999.0
2016/09/02 04:10,  -16.2,  -14.4,   -4.8,   -4.7,   -4.5,   -4.2,   -4.2,   -5.2,   -5.2,   -4.3,   -5.2,   -5.6,   -5.7,   -6.5,   -7.3,   -7.2,   -8.5,   -8.3,   -8.8,   -9.0,  -10.4,  -11.5,  -12.8,  -12.9,  -12.0,  -11.0,  -11.1,  -11.2,  -11.3,  -11.1,  -10.0,  -10.2,  -10.1,  -10.6,  -10.8,  -12.4,  -13.4,  -13.9,  -12.6,  -12.8,  -11.5,  -10.5,  -10.4,   -9.5,  -10.1,   -9.7,   -9.4,  -10.5,  -10.8,  -10.4,   -9.9,   -9.5,   -9.4,   -8.5,   -8.1,   -7.4,   -7.8,   -7.7,   -8.0,   -7.3,   -7.1,   -7.3,   -7.3,   -7.2,   -7.0,   -7.1,   -7.1,   -8.5,   -8.3,  999.0,  -11.0,  999.0,  999.0,  -11.5,  999.0,  999.0,  999.0,  999.0,  999.0,  999.0,  -22.1,  -23.9,  999.0,  -26.6,  999.0,  999.0,  999.0,  999.0,  999.0,  999.0,  999.0,  999.0,  999.0,  999.0,  999.0,  -24.1,  -23.0,  999.0,  999.0,  999.0,  -26.2,  999.0,  999.0,  999.0,  -23.7,  999.0,  999.0,  999.0,  999.0,  999.0,  999.0,  999.0,  999.0,  999.0,  999.0,  999.0,  999.0,  999.0,  999.0,  999.0
2016/09/02 04:20,  -21.2,  -19.0,   -4.8,   -4.8,   -4.3,   -4.0,   -4.2,   -4.3,   -5.0,   -4.5,   -4.7,   -5.1,   -5.4,   -6.2,   -7.1,   -7.4,   -7.6,   -7.9,   -8.3,   -9.4,  -10.2,  -10.8,  -12.2,  -12.4,  -11.4,  -11.5,  -10.9,  -11.2,  -11.6,  -11.9,  -10.4,  -11.0,  -11.1,  -10.6,  -10.9,  -12.5,  -13.2,  -14.4,  -12.7,  -12.6,  -11.2,  -10.2,  -10.3,   -9.8,  -10.2,   -9.6,   -9.4,  999.0,  -11.3,  -10.5,  -10.1,   -9.7,   -9.8,   -8.6,   -8.5,   -8.0,   -8.4,   -8.6,   -8.4,   -7.9,   -7.8,   -7.5,  999.0,   -7.6,   -7.2,  999.0,   -8.9,   -9.9,  -11.6,  999.0,  999.0,  -12.8,  999.0,  999.0,  -14.9,  -15.6,  -16.6,  999.0,  999.0,  999.0,  -23.2,  -24.6,  -26.8,  999.0,  999.0,  999.0,  999.0,  999.0,  999.0,  999.0,  999.0,  999.0,  999.0,  -33.4,  999.0,  999.0,  999.0,  999.0,  999.0,  999.0,  -26.4,  999.0,  999.0,  999.0,  999.0,  999.0,  999.0,  999.0,  999.0,  999.0,  999.0,  999.0,  999.0,  -12.0,  -12.9,  999.0,  999.0,  999.0,  999.0,  999.0
2016/09/02 04:30,  -25.5,  999.0,  999.0,   -4.8,   -4.4,   -4.2,   -4.1,   -4.4,   -5.0,   -4.7,   -4.7,   -5.1,   -5.2,   -6.1,   -6.5,   -7.0,   -7.1,   -7.2,   -7.7,   -9.7,  -10.0,  -10.4,  -11.5,  -11.8,  -10.9,  -11.5,  -10.6,  -11.1,  -11.9,  -12.2,  -10.3,  -11.0,  -11.1,  -10.4,  -11.1,  -12.6,  -13.1,  -14.2,  -12.7,  -11.8,  -10.7,  -10.1,   -9.8,   -9.7,   -9.8,   -9.4,   -8.7,  999.0,  -11.2,  -10.7,  -10.4,  -10.2,  -10.3,   -9.2,   -9.6,   -9.5,   -9.3,   -9.5,   -9.0,   -8.8,   -7.9,   -7.4,  999.0,  999.0,   -8.3,  999.0,   -8.5,  -10.2,  -11.8,  999.0,  999.0,  999.0,  999.0,  -14.9,  -15.5,  999.0,  -17.6,  999.0,  999.0,  -21.2,  -24.5,  -25.2,  -26.7,  999.0,  999.0,  999.0,  999.0,  999.0,  999.0,  999.0,  999.0,  999.0,  999.0,  -32.9,  999.0,  999.0,  999.0,  999.0,  999.0,  999.0,  999.0,  999.0,  999.0,  999.0,  999.0,  999.0,  999.0,  999.0,  999.0,  999.0,  999.0,  999.0,  999.0,  -11.4,  -12.7,  999.0,  999.0,  999.0,  999.0,  999.0
2016/09/02 04:40,  -27.5,  999.0,  999.0,   -5.1,   -4.3,   -4.0,   -3.9,   -4.2,   -4.5,   -4.4,   -4.5,   -5.1,   -5.1,   -6.5,   -6.5,   -7.5,   -7.2,   -6.9,   -7.5,   -9.5,   -9.7,  -10.4,  -11.1,  -11.3,  -11.0,  -11.6,  -10.3,  -11.1,  -12.2,  -12.1,  -11.1,  -10.8,  -11.1,  -10.5,  -11.9,  -12.8,  -13.5,  -14.0,  -12.4,  -11.7,  -10.1,   -9.5,   -9.0,   -8.9,   -9.2,   -6.5,   -8.5,  -10.0,  -10.6,  -11.0,  -11.0,  -10.4,  -11.0,   -9.7,   -9.3,   -9.8,   -9.1,   -9.4,   -8.7,   -8.4,   -7.9,   -7.2,   -7.0,  999.0,  999.0,  999.0,   -8.0,  -10.4,  -12.1,  999.0,  999.0,  999.0,  999.0,  -16.7,  999.0,  -17.7,  999.0,  999.0,  999.0,  -21.5,  999.0,  -24.8,  -28.7,  999.0,  999.0,  999.0,  999.0,  999.0,  999.0,  999.0,  999.0,  999.0,  999.0,  999.0,  999.0,  999.0,  -24.2,  999.0,  999.0,  999.0,  999.0,  999.0,  999.0,  999.0,  999.0,  999.0,  999.0,  999.0,  999.0,  999.0,  999.0,  999.0,  999.0,  999.0,  -11.7,  999.0,  999.0,  999.0,  999.0,  999.0
2016/09/02 04:50,  -30.2,  999.0,  999.0,   -5.4,   -4.3,   -4.0,   -4.2,   -4.9,   -4.2,   -4.2,   -4.1,   -4.9,   -5.4,   -6.9,   -6.8,   -7.6,   -6.9,   -6.5,   -7.4,   -9.5,   -9.6,  -10.8,  -10.7,  -11.3,  -11.4,  -11.1,  -10.6,  -11.6,  -11.5,  -11.5,  -11.4,  -11.0,  -11.7,  -11.4,  -12.8,  -13.8,  -14.7,  -14.1,  -11.6,  -11.4,   -9.7,   -9.0,   -8.3,   -8.5,   -8.0,   -6.4,   -8.8,  -10.3,  -10.2,  -10.4,  -11.2,   -9.9,  -10.3,   -9.5,   -8.5,   -8.9,   -8.3,   -8.6,   -7.5,   -7.5,   -7.0,   -7.4,   -7.5,   -7.5,  999.0,  999.0,  999.0,   -8.8,   -9.9,  999.0,  999.0,  999.0,  -13.1,  999.0,  -14.3,  999.0,  999.0,  999.0,  999.0,  999.0,  999.0,  999.0,  999.0,  999.0,  999.0,  999.0,  999.0,  999.0,  999.0,  999.0,  999.0,  999.0,  999.0,  999.0,  999.0,  999.0,  -23.6,  999.0,  999.0,  999.0,  999.0,  -17.7,  999.0,  999.0,  999.0,  999.0,  999.0,  999.0,  999.0,  999.0,  999.0,  999.0,  999.0,  999.0,  -11.0,  999.0,  999.0,  999.0,  999.0,  999.0
2016/09/02 05:00,  -32.3,  999.0,  999.0,   -5.3,   -4.3,   -4.2,   -4.8,   -5.4,   -4.6,   -4.5,   -4.6,   -5.1,   -5.7,   -7.2,   -7.0,   -7.6,   -6.3,   -7.0,   -9.0,  -10.6,  -10.4,  -11.2,  -11.0,  -11.3,  -11.8,  -11.4,  -11.0,  -11.7,  -11.9,  -11.5,  -11.7,  -11.5,  -12.3,  -12.0,  -13.5,  -14.1,  -15.7,  -13.7,  -11.3,  -10.5,   -9.1,   -8.8,   -7.8,   -8.1,   -7.3,   -7.6,   -8.7,  -10.2,   -9.9,  -10.2,  -11.0,  -10.3,   -9.6,   -8.7,   -8.2,   -8.1,   -7.7,   -7.9,   -7.5,   -7.1,   -6.2,   -7.3,   -8.6,   -7.6,  999.0,  999.0,  999.0,   -8.0,   -9.4,  999.0,  999.0,  999.0,  -12.7,  999.0,  -13.9,  999.0,  -18.0,  999.0,  999.0,  999.0,  999.0,  -23.9,  -26.3,  999.0,  999.0,  999.0,  999.0,  999.0,  999.0,  999.0,  999.0,  999.0,  999.0,  999.0,  999.0,  999.0,  999.0,  999.0,  999.0,  999.0,  999.0,  999.0,  999.0,  999.0,  999.0,  999.0,  999.0,  999.0,  999.0,  999.0,  999.0,  999.0,  999.0,  999.0,  -10.6,  999.0,  999.0,  999.0,  999.0,  999.0
2016/09/02 05:10,  -35.8,  999.0,  999.0,   -4.4,   -4.1,   -4.2,   -5.3,   -6.3,   -6.1,   -5.8,   -5.9,   -6.3,   -6.1,   -7.3,   -7.2,   -7.5,   -6.5,   -8.2,   -9.8,  -11.1,  -11.6,  -11.1,  -11.4,  -11.5,  -12.0,  -11.6,  -11.5,  -12.0,  -12.4,  -11.8,  -12.7,  -12.5,  -11.7,  -12.6,  -14.6,  -15.0,  -15.6,  -13.3,  -10.4,   -9.5,   -8.2,   -7.9,   -7.1,   -7.7,   -7.4,   -7.8,   -9.0,  -10.2,  -10.0,  -10.2,  -10.6,  -10.3,   -8.9,   -7.9,   -7.0,   -7.3,   -7.5,   -7.7,   -7.4,   -6.9,   -6.0,   -6.7,   -7.5,   -7.9,   -7.2,   -8.1,   -7.5,   -8.3,   -8.8,  999.0,  -10.0,  999.0,  999.0,  -12.8,  -14.1,  999.0,  -17.8,  -19.1,  999.0,  999.0,  999.0,  -24.9,  -26.3,  999.0,  999.0,  999.0,  999.0,  999.0,  999.0,  999.0,  999.0,  999.0,  999.0,  999.0,  999.0,  999.0,  999.0,  999.0,  999.0,  999.0,  999.0,  999.0,  999.0,  999.0,  999.0,  999.0,  999.0,  999.0,  999.0,  999.0,  999.0,  999.0,  999.0,  999.0,  -10.1,  999.0,  999.0,  999.0,  999.0,  999.0
2016/09/02 05:20,  999.0,  999.0,  999.0,   -3.8,   -3.8,   -4.2,   -5.2,   -6.4,   -6.6,   -6.1,   -6.2,   -6.6,   -6.3,   -7.3,   -7.3,   -7.4,   -6.6,   -8.4,   -9.6,  -11.4,  -11.5,  -10.3,  -11.0,  -11.0,  -11.9,  -11.1,  -11.2,  -11.8,  -11.8,  -11.8,  -12.6,  -12.5,  -11.7,  -12.9,  -14.8,  -14.6,  -14.4,  -13.0,   -9.8,   -8.9,   -7.6,   -7.5,   -6.9,   -7.5,   -7.4,   -7.6,   -8.7,  -10.0,  -10.1,  -10.2,  -10.6,   -9.8,   -9.1,   -8.0,   -6.8,   -7.4,   -7.7,   -8.0,   -7.2,   -6.8,   -6.1,   -6.4,  999.0,   -7.3,   -7.4,   -7.9,   -6.4,  999.0,  999.0,  999.0,  999.0,  999.0,  999.0,  -13.5,  999.0,  999.0,  999.0,  999.0,  -19.4,  999.0,  -21.9,  -24.8,  999.0,  999.0,  999.0,  999.0,  999.0,  999.0,  999.0,  999.0,  999.0,  999.0,  999.0,  -34.3,  -33.9,  999.0,  999.0,  999.0,  999.0,  999.0,  999.0,  999.0,  999.0,  999.0,  999.0,  999.0,  999.0,  999.0,  999.0,  999.0,  999.0,  999.0,  999.0,  -12.7,  999.0,  999.0,  999.0,  999.0,  999.0,  999.0
2016/09/02 05:30,  999.0,  999.0,  999.0,  999.0,  999.0,   -5.5,   -5.7,   -6.5,   -6.7,   -6.4,   -6.4,   -6.4,   -6.7,   -7.6,   -7.6,   -7.1,   -6.8,   -8.3,   -9.9,  -11.7,  -11.5,  -10.7,  -11.0,  -10.8,  -11.7,  -11.1,  -11.0,  -12.0,  -11.4,  -11.5,  -12.2,  -11.8,  -11.6,  -13.4,  -14.5,  -14.1,  -14.4,  -12.8,  -10.0,   -8.8,   -7.6,   -7.5,   -7.2,   -7.3,   -6.7,   -7.3,   -8.6,   -9.9,  -10.1,  -10.4,  -10.5,  -10.9,   -9.6,   -8.5,   -7.5,   -7.4,   -8.0,   -8.0,   -7.3,   -6.7,   -7.3,   -6.2,  999.0,  999.0,   -6.8,   -7.9,  999.0,  999.0,  999.0,  999.0,  999.0,  999.0,  999.0,  -13.7,  999.0,  999.0,  999.0,  999.0,  -19.5,  -21.7,  -22.0,  -24.6,  999.0,  999.0,  999.0,  999.0,  999.0,  999.0,  999.0,  999.0,  999.0,  999.0,  999.0,  999.0,  999.0,  999.0,  999.0,  999.0,  999.0,  999.0,  999.0,  999.0,  999.0,  999.0,  999.0,  999.0,  999.0,  999.0,  999.0,  999.0,  999.0,  999.0,  999.0,  -13.8,  999.0,  999.0,  999.0,  999.0,  999.0,  999.0
2016/09/02 05:40,  999.0,  999.0,   -4.9,   -4.6,   -4.9,   -5.6,   -5.8,   -6.4,   -6.8,   -5.9,   -6.1,   -6.4,   -6.7,   -7.8,   -7.2,   -7.4,   -7.4,   -8.4,   -9.9,  -11.6,  -11.4,  -11.1,  -11.0,  -11.2,  -11.8,  -11.4,  -11.0,  -12.1,  -11.4,  -11.2,  -11.8,  -11.3,  -12.1,  -13.6,  -14.7,  -14.0,  -14.6,  -13.2,  -10.8,   -9.0,   -7.7,   -7.8,   -7.8,   -7.4,   -6.8,   -7.0,   -8.4,   -9.8,  -10.1,  -10.5,  -10.0,  -10.8,  -10.4,   -8.8,   -7.9,   -7.0,   -8.1,   -7.9,   -7.6,   -6.6,   -6.4,   -6.0,   -6.2,   -6.6,   -6.7,   -6.7,   -7.2,  999.0,  999.0,   -9.3,  999.0,  -11.7,  -11.7,  -14.0,  999.0,  999.0,  -18.9,  -19.6,  -19.8,  -21.8,  -23.4,  999.0,  999.0,  999.0,  999.0,  999.0,  999.0,  999.0,  999.0,  999.0,  999.0,  999.0,  999.0,  -34.7,  999.0,  -32.0,  999.0,  999.0,  999.0,  999.0,  999.0,  999.0,  999.0,  999.0,  999.0,  999.0,  999.0,  999.0,  999.0,  999.0,  999.0,  999.0,  -12.6,  -14.2,  999.0,  999.0,  999.0,  999.0,  999.0,  999.0
2016/09/02 05:50,  999.0,   -4.1,   -5.4,   -4.4,   -4.7,   -5.1,   -5.5,   -6.3,   -6.6,   -5.9,   -5.9,   -6.5,   -6.7,   -7.2,   -7.1,   -7.5,   -6.8,   -7.1,   -7.8,  -10.3,  -10.1,  -10.4,  -10.3,  -10.9,  -11.6,  -11.4,  -11.1,  -11.7,  -10.8,  -10.8,  -11.0,  -10.4,  -11.7,  -12.7,  -14.0,  -13.8,  -13.7,  -12.8,  -11.1,   -9.2,   -8.2,   -7.9,   -7.9,   -7.8,   -6.9,   -6.8,   -8.5,   -9.3,   -9.8,  -10.2,   -9.8,  -10.7,  -10.6,   -9.1,   -8.4,   -6.9,   -7.3,   -8.0,   -7.3,   -6.6,   -6.0,   -6.2,   -7.0,   -6.7,   -6.9,   -6.7,   -7.3,   -8.4,   -8.1,  -10.0,  999.0,  -11.5,  -11.5,  -14.8,  999.0,  999.0,  -17.0,  -18.7,  -19.7,  -21.6,  999.0,  999.0,  999.0,  999.0,  999.0,  999.0,  999.0,  999.0,  999.0,  999.0,  999.0,  999.0,  999.0,  999.0,  999.0,  999.0,  999.0,  999.0,  999.0,  999.0,  999.0,  999.0,  999.0,  999.0,  999.0,  999.0,  999.0,  999.0,  999.0,  999.0,  999.0,  999.0,  -13.0,  -14.0,  999.0,  999.0,  999.0,  999.0,  999.0,  999.0
2016/09/02 06:00,  999.0,   -4.9,   -5.6,   -4.4,   -5.0,   -4.4,   -5.5,   -6.1,   -7.2,   -7.1,   -7.1,   -7.0,   -7.0,   -7.6,   -8.4,   -7.5,   -7.4,   -6.6,   -7.5,  -10.0,  -10.3,  -11.0,   -9.9,  -10.6,  -11.5,  -11.5,  -11.0,  -11.7,  -10.6,  -10.6,  -10.0,  -10.0,  -11.5,  -12.0,  -13.4,  -13.2,  -13.2,  -12.5,  -10.3,   -9.2,   -8.5,   -8.1,   -7.6,   -7.5,   -7.2,   -7.2,   -8.4,   -9.1,   -9.2,   -9.7,   -9.8,  -10.3,  -10.0,   -9.4,   -8.4,   -6.9,   -7.1,   -7.8,   -7.1,   -6.6,   -6.3,   -6.4,   -7.2,   -6.7,   -6.8,   -6.8,   -8.0,  999.0,  999.0,  -10.1,  999.0,  -11.8,  -11.7,  -15.2,  999.0,  -14.7,  999.0,  -18.4,  -19.4,  999.0,  999.0,  999.0,  999.0,  999.0,  999.0,  999.0,  999.0,  999.0,  999.0,  999.0,  999.0,  999.0,  999.0,  999.0,  999.0,  999.0,  999.0,  999.0,  999.0,  999.0,  999.0,  999.0,  999.0,  999.0,  999.0,  999.0,  999.0,  999.0,  999.0,  999.0,  999.0,  999.0,  999.0,  -13.8,  999.0,  999.0,  999.0,  999.0,  999.0,  999.0
2016/09/02 06:10,  999.0,   -4.5,   -5.3,   -4.6,   -5.6,   -5.3,   -5.4,   -6.8,   -7.6,   -7.4,   -7.6,   -8.0,   -7.6,   -8.6,   -9.6,   -8.2,   -8.0,   -8.0,   -8.8,  -11.2,  -11.7,  -12.0,  -10.3,  -10.8,  -12.0,  -12.1,  -12.0,  -12.0,  -11.1,  -10.6,  -10.5,  -10.7,  -12.0,  -12.2,  -13.7,  -13.7,  -13.5,  -12.8,  -10.0,   -9.5,   -8.6,   -8.0,   -6.6,   -7.3,   -7.5,   -8.2,   -8.7,   -8.9,   -8.6,   -8.7,   -9.2,   -9.6,   -9.3,   -9.4,   -7.7,   -6.6,   -7.1,   -7.5,   -6.3,   -7.1,   -6.7,   -6.0,   -6.5,   -6.9,   -6.0,  999.0,   -8.4,  999.0,  999.0,   -9.7,  -11.8,  -12.0,  -13.0,  -14.8,  -15.1,  -15.2,  999.0,  -17.8,  999.0,  999.0,  999.0,  999.0,  999.0,  999.0,  999.0,  999.0,  999.0,  999.0,  999.0,  999.0,  999.0,  999.0,  999.0,  999.0,  999.0,  999.0,  999.0,  999.0,  999.0,  999.0,  999.0,  999.0,  999.0,  999.0,  999.0,  999.0,  999.0,  999.0,  999.0,  999.0,  999.0,  999.0,  999.0,  -13.3,  999.0,  999.0,  999.0,  999.0,  999.0,  999.0
2016/09/02 06:20,  -15.3,   -3.2,   -4.3,   -4.5,   -5.3,   -5.3,   -5.3,   -6.8,   -7.1,   -6.4,   -7.3,   -7.8,   -7.7,   -8.4,   -9.0,   -8.2,   -8.2,   -9.0,  -10.7,  -11.9,  -12.3,  -12.2,  -11.2,  -11.2,  -12.7,  -12.3,  -12.7,  -12.2,  -11.7,  -10.7,  -11.0,  -11.8,  -13.0,  -13.3,  -14.1,  -14.8,  -14.2,  -12.6,   -9.6,   -9.4,   -8.6,   -7.1,   -7.1,   -6.9,   -7.8,   -8.7,   -8.9,   -8.8,   -8.7,   -8.4,   -8.9,   -9.5,   -9.3,   -9.3,   -7.4,   -6.6,   -7.1,   -7.3,   -7.8,   -7.5,   -7.5,   -7.1,   -6.4,   -7.2,   -6.2,  999.0,   -9.0,  999.0,  999.0,  999.0,  -11.3,  -12.1,  -13.7,  -13.8,  999.0,  999.0,  999.0,  999.0,  999.0,  999.0,  999.0,  999.0,  999.0,  999.0,  999.0,  999.0,  999.0,  999.0,  999.0,  999.0,  999.0,  999.0,  999.0,  999.0,  999.0,  999.0,  999.0,  999.0,  999.0,  999.0,  999.0,  999.0,  999.0,  999.0,  999.0,  999.0,  999.0,  -20.5,  -19.7,  999.0,  999.0,  999.0,  999.0,  -13.0,  999.0,  999.0,  999.0,  999.0,  999.0,  999.0
2016/09/02 06:30,  -14.4,  999.0,   -3.8,   -4.3,  999.0,   -5.3,   -5.6,   -6.2,   -6.4,   -5.9,   -6.8,   -7.5,   -7.6,   -8.0,   -8.2,   -7.8,   -8.4,   -9.5,  -11.6,  -12.2,  -12.2,  -11.8,  -10.6,  -10.5,  -12.2,  -12.5,  -12.8,  -12.4,  -11.5,  -11.1,  -11.0,  -12.0,  -13.0,  -13.4,  -14.1,  -15.0,  -13.9,  -12.3,   -9.5,   -9.3,   -7.8,   -6.3,   -7.3,   -6.8,   -7.9,   -8.7,   -9.2,   -8.7,   -9.1,   -8.5,   -8.6,   -9.1,   -8.6,   -8.5,   -6.9,   -6.7,   -7.2,   -7.4,  999.0,   -7.3,   -6.9,   -7.1,   -6.5,  999.0,   -6.2,  999.0,  999.0,  999.0,  999.0,  999.0,  -11.1,  -11.7,  -13.7,  -14.1,  999.0,  999.0,  999.0,  999.0,  999.0,  999.0,  999.0,  999.0,  999.0,  999.0,  999.0,  999.0,  999.0,  999.0,  999.0,  999.0,  999.0,  999.0,  999.0,  999.0,  999.0,  999.0,  999.0,  999.0,  999.0,  999.0,  999.0,  999.0,  999.0,  999.0,  999.0,  999.0,  999.0,  999.0,  999.0,  999.0,  999.0,  999.0,  999.0,  -12.9,  999.0,  999.0,  999.0,  999.0,  999.0,  999.0
2016/09/02 06:40,  999.0,  999.0,   -3.8,   -4.4,   -4.9,   -5.9,   -6.3,   -6.3,   -6.0,   -5.3,   -6.4,   -7.4,   -7.7,   -8.1,   -7.7,   -8.1,   -9.3,  -11.0,  -11.9,  -12.3,  -11.9,  -11.7,   -9.9,  -10.1,  -12.0,  -12.8,  -12.7,  -12.2,  -11.4,  -11.0,  -11.0,  -12.0,  -12.7,  -13.2,  -14.5,  -15.1,  -14.1,  -12.4,   -9.5,   -9.4,   -7.2,   -6.1,   -7.4,   -6.8,   -7.9,   -8.6,   -9.2,   -8.9,   -8.6,   -8.1,   -8.2,   -8.2,   -7.8,   -6.8,   -6.2,   -6.3,   -6.7,   -6.9,   -6.3,   -5.8,   -5.6,   -4.1,   -4.9,   -1.2,   -3.7,   -2.5,   -0.7,   -7.3,  999.0,  999.0,  999.0,  999.0,  999.0,  -14.5,  999.0,  999.0,   -8.4,   -8.6,  -10.4,  999.0,  999.0,  999.0,  999.0,  999.0,  999.0,  999.0,  999.0,  999.0,  999.0,  999.0,  999.0,  999.0,  999.0,  999.0,  -17.2,  -18.2,  999.0,  999.0,  999.0,  -24.3,  999.0,  999.0,  999.0,  999.0,  999.0,  999.0,  999.0,  999.0,  999.0,  999.0,  999.0,  999.0,  -11.3,  -12.8,  999.0,  999.0,  999.0,  999.0,  999.0,  999.0
2016/09/02 06:50,  999.0,  999.0,   -3.7,   -5.3,   -6.3,   -6.7,   -7.3,   -6.6,   -6.0,   -5.3,   -5.8,   -6.9,   -7.2,   -7.3,   -8.0,   -8.3,  -10.1,  -11.4,  -11.8,  -12.0,  -11.5,  -11.3,   -9.6,  -10.3,  -11.7,  -12.7,  -11.8,  -11.8,  -11.0,  -10.6,  -10.9,  -11.9,  -12.7,  -13.2,  -14.9,  -14.8,  -14.8,  -12.0,   -9.7,   -9.2,   -7.0,   -6.4,   -7.0,   -6.8,   -7.6,   -8.3,   -8.6,   -8.6,   -7.9,   -7.8,   -7.9,   -7.2,   -7.1,   -6.4,   -6.2,   -5.3,   -5.2,   -4.7,   -7.2,   -1.7,   -2.7,   -1.1,   -1.5,   -0.8,   -1.1,   -0.3,   -0.7,  999.0,  999.0,   -0.0,   -0.6,  999.0,  999.0,  999.0,  999.0,  999.0,   -7.7,  999.0,  999.0,  999.0,  999.0,  999.0,  999.0,  999.0,  999.0,  999.0,  999.0,  999.0,  999.0,  999.0,  999.0,  999.0,  999.0,  999.0,  -17.4,  -16.7,  999.0,  999.0,  999.0,  999.0,  999.0,  999.0,  999.0,  999.0,  999.0,  999.0,  999.0,  999.0,  -20.3,  999.0,  999.0,  999.0,  -11.2,  -12.1,  999.0,  999.0,  999.0,  999.0,  999.0,  999.0
2016/09/02 07:00,  999.0,  999.0,  999.0,   -5.7,   -6.8,   -7.3,   -7.6,   -6.9,   -6.4,   -5.8,   -5.7,   -6.6,   -6.8,   -7.1,   -7.7,   -8.1,   -9.8,  -11.0,  -10.7,  -11.0,  -10.8,  -10.2,   -9.5,  -10.6,  -11.4,  -12.1,  -11.8,  -11.8,  -10.9,  -11.0,  -11.0,  -12.1,  -13.1,  -13.7,  -15.0,  -14.7,  -14.7,  -11.8,  -10.0,   -9.6,   -7.2,   -6.7,   -7.0,   -7.1,   -8.0,   -8.5,   -8.6,   -8.2,   -7.9,   -7.5,   -7.8,   -7.2,   -6.9,   -6.7,   -6.6,   -6.4,   -6.3,   -5.9,   -7.8,   -4.8,   -3.9,   -2.0,   -5.6,  999.0,   -1.1,   -1.1,   -1.9,  999.0,  999.0,  999.0,   -1.0,  999.0,  999.0,  999.0,  999.0,  999.0,  999.0,  999.0,  999.0,  999.0,  999.0,  999.0,  999.0,  999.0,  999.0,  999.0,  999.0,  999.0,  999.0,  999.0,  999.0,  999.0,  999.0,  999.0,  999.0,  999.0,  999.0,  999.0,  999.0,  999.0,  999.0,  999.0,  999.0,  999.0,  999.0,  999.0,  999.0,  999.0,  -20.5,  999.0,  999.0,  999.0,  999.0,  -12.1,  999.0,  999.0,  999.0,  999.0,  999.0,  999.0
2016/09/02 07:10,  999.0,  999.0,   -4.8,   -5.5,   -6.7,   -7.3,   -7.5,   -6.6,   -6.5,   -6.2,   -6.1,   -6.7,   -6.9,   -7.3,   -7.3,   -7.8,   -9.6,  -10.9,  -10.3,  -10.4,  -10.1,   -9.2,   -9.5,  -11.4,  -11.5,  -12.1,  -12.2,  -11.9,  -11.2,  -11.3,  -10.7,  -12.5,  -13.2,  -13.9,  -15.1,  -14.7,  -14.3,  -12.1,  -10.1,  -10.4,   -7.2,   -7.2,   -7.4,   -8.0,   -8.8,   -8.6,   -8.7,   -8.4,   -8.1,   -7.5,   -7.6,   -7.2,   -7.0,   -7.0,   -6.6,   -6.9,   -8.2,   -7.4,   -8.1,   -5.2,   -4.4,   -3.4,   -5.9,   -0.1,   -3.7,   -1.9,   -2.7,  999.0,  999.0,  999.0,   -0.9,   -5.9,  -11.4,  999.0,   -8.0,   -9.1,  999.0,  999.0,  999.0,  999.0,  999.0,  999.0,  999.0,  999.0,  999.0,  999.0,  999.0,  999.0,  999.0,  999.0,  999.0,  999.0,  999.0,  999.0,  -18.8,  999.0,  999.0,  999.0,  999.0,  999.0,  999.0,  999.0,  999.0,  999.0,  999.0,  999.0,  999.0,  999.0,  -21.3,  999.0,  999.0,  999.0,  999.0,  -12.4,  999.0,  999.0,  999.0,   -3.8,  999.0,  999.0
2016/09/02 07:20,  999.0,  999.0,  999.0,  999.0,  999.0,  999.0,  999.0,  999.0,  999.0,  999.0,  999.0,  999.0,  999.0,  999.0,  999.0,  999.0,  999.0,  999.0,  999.0,  999.0,  999.0,  999.0,  999.0,  999.0,  999.0,  999.0,  999.0,  999.0,  999.0,  999.0,  999.0,  999.0,  999.0,  999.0,  999.0,  999.0,  999.0,  999.0,  999.0,  999.0,  999.0,  999.0,  999.0,  999.0,  999.0,  999.0,  999.0,  999.0,  999.0,  999.0,  999.0,  999.0,  999.0,  999.0,  999.0,  999.0,  999.0,  999.0,  999.0,  999.0,  999.0,  999.0,  999.0,  999.0,  999.0,  999.0,  999.0,  999.0,  999.0,  999.0,  999.0,  999.0,  999.0,  999.0,  999.0,  999.0,  999.0,  999.0,  999.0,  999.0,  999.0,  999.0,  999.0,  999.0,  999.0,  999.0,  999.0,  999.0,  999.0,  999.0,  999.0,  999.0,  999.0,  999.0,  999.0,  999.0,  999.0,  999.0,  999.0,  999.0,  999.0,  999.0,  999.0,  999.0,  999.0,  999.0,  999.0,  999.0,  999.0,  999.0,  999.0,  999.0,  999.0,  999.0,  999.0,  999.0,  999.0,  999.0,  999.0,  999.0
2016/09/02 07:30,  999.0,  999.0,  999.0,  999.0,  999.0,  999.0,  999.0,  999.0,  999.0,  999.0,  999.0,  999.0,  999.0,  999.0,  999.0,  999.0,  999.0,  999.0,  999.0,  999.0,  999.0,  999.0,  999.0,  999.0,  999.0,  999.0,  999.0,  999.0,  999.0,  999.0,  999.0,  999.0,  999.0,  999.0,  999.0,  999.0,  999.0,  999.0,  999.0,  999.0,  999.0,  999.0,  999.0,  999.0,  999.0,  999.0,  999.0,  999.0,  999.0,  999.0,  999.0,  999.0,  999.0,  999.0,  999.0,  999.0,  999.0,  999.0,  999.0,  999.0,  999.0,  999.0,  999.0,  999.0,  999.0,  999.0,  999.0,  999.0,  999.0,  999.0,  999.0,  999.0,  999.0,  999.0,  999.0,  999.0,  999.0,  999.0,  999.0,  999.0,  999.0,  999.0,  999.0,  999.0,  999.0,  999.0,  999.0,  999.0,  999.0,  999.0,  999.0,  999.0,  999.0,  999.0,  999.0,  999.0,  999.0,  999.0,  999.0,  999.0,  999.0,  999.0,  999.0,  999.0,  999.0,  999.0,  999.0,  999.0,  999.0,  999.0,  999.0,  999.0,  999.0,  999.0,  999.0,  999.0,  999.0,  999.0,  999.0,  999.0
2016/09/02 07:40,  999.0,  999.0,  999.0,  999.0,  999.0,  999.0,  999.0,  999.0,  999.0,  999.0,  999.0,  999.0,  999.0,  999.0,  999.0,  999.0,  999.0,  999.0,  999.0,  999.0,  999.0,  999.0,  999.0,  999.0,  999.0,  999.0,  999.0,  999.0,  999.0,  999.0,  999.0,  999.0,  999.0,  999.0,  999.0,  999.0,  999.0,  999.0,  999.0,  999.0,  999.0,  999.0,  999.0,  999.0,  999.0,  999.0,  999.0,  999.0,  999.0,  999.0,  999.0,  999.0,  999.0,  999.0,  999.0,  999.0,  999.0,  999.0,  999.0,  999.0,  999.0,  999.0,  999.0,  999.0,  999.0,  999.0,  999.0,  999.0,  999.0,  999.0,  999.0,  999.0,  999.0,  999.0,  999.0,  999.0,  999.0,  999.0,  999.0,  999.0,  999.0,  999.0,  999.0,  999.0,  999.0,  999.0,  999.0,  999.0,  999.0,  999.0,  999.0,  999.0,  999.0,  999.0,  999.0,  999.0,  999.0,  999.0,  999.0,  999.0,  999.0,  999.0,  999.0,  999.0,  999.0,  999.0,  999.0,  999.0,  999.0,  999.0,  999.0,  999.0,  999.0,  999.0,  999.0,  999.0,  999.0,  999.0,  999.0,  999.0
2016/09/02 07:50,   -2.5,   -3.8,   -5.4,   -5.7,   -7.1,   -7.5,   -7.0,   -6.7,   -6.3,   -5.8,   -6.6,   -6.4,   -6.5,   -7.0,   -7.3,   -8.0,   -9.2,   -9.1,   -8.8,   -8.2,   -8.1,   -8.9,   -9.8,  -10.9,  -10.3,  -10.9,  -10.7,  -10.9,  -11.6,  -10.7,  -10.3,  -10.9,  -11.6,  -13.0,  -13.6,  -13.9,  -13.2,  -12.4,  -12.7,  -11.1,  -10.4,   -8.4,   -8.2,   -9.0,   -9.0,   -8.7,   -8.1,   -7.8,   -7.4,   -7.0,   -6.8,   -7.2,   -7.4,   -7.8,   -8.7,   -9.7,   -9.9,   -9.2,   -9.2,   -7.7,   -6.4,  999.0,  999.0,   -8.9,  999.0,   -4.7,  999.0,  999.0,  999.0,  999.0,  999.0,  999.0,  999.0,  999.0,   -7.4,  999.0,  999.0,  999.0,  999.0,  999.0,  999.0,  999.0,  999.0,  999.0,  999.0,  999.0,  999.0,  999.0,  999.0,  999.0,  999.0,  999.0,  999.0,  999.0,  999.0,  999.0,  999.0,  999.0,  999.0,  999.0,  999.0,  -26.6,  999.0,  999.0,  999.0,  999.0,  999.0,  999.0,  999.0,  999.0,  999.0,  999.0,  999.0,  -10.3,  999.0,  999.0,  999.0,  999.0,  999.0,  999.0
2016/09/02 08:00,   -1.8,   -2.5,   -5.5,   -6.4,   -7.4,   -7.9,   -7.1,   -7.2,   -6.7,   -6.1,   -6.9,   -6.5,   -6.4,   -7.1,   -7.8,   -8.2,   -9.6,   -9.5,   -9.2,   -9.1,   -8.5,   -9.4,  -10.3,  -11.4,  -10.4,  -10.8,  -10.4,  -11.7,  -11.4,  -11.8,  -11.4,  -11.4,  -11.9,  -12.6,  -13.3,  -14.1,  -13.0,  -12.6,  -12.2,  -11.5,  -11.0,   -8.6,   -8.2,   -8.3,   -9.0,   -8.9,   -7.9,   -7.5,   -7.2,   -6.5,   -6.7,   -7.2,   -7.4,   -8.0,   -8.9,   -8.4,   -8.7,   -9.2,   -9.5,   -6.0,   -8.7,   -5.4,  999.0,  999.0,  999.0,  999.0,  999.0,  999.0,  999.0,  999.0,  999.0,  999.0,  999.0,  999.0,  999.0,  999.0,  999.0,  999.0,  999.0,  999.0,  999.0,  999.0,  999.0,  999.0,  999.0,  999.0,  999.0,  999.0,  999.0,  999.0,  999.0,  999.0,  999.0,  999.0,  999.0,  999.0,  999.0,  999.0,  999.0,  999.0,  999.0,  -26.6,  999.0,  999.0,  -28.0,  999.0,  999.0,  999.0,  999.0,  999.0,  999.0,  999.0,   -9.8,  -10.1,  999.0,   -7.6,  999.0,  999.0,  999.0,  999.0
2016/09/02 08:10,   -2.3,   -4.9,   -5.5,   -6.4,   -7.1,   -8.4,   -7.3,   -7.1,   -6.6,   -6.4,   -6.9,   -6.3,   -6.5,   -6.9,   -7.4,   -9.0,   -9.5,   -9.2,   -9.5,   -9.5,   -8.9,   -8.8,   -9.1,   -9.9,   -9.7,   -9.9,   -9.9,  -11.6,  -11.4,  -11.9,  -12.1,  -11.7,  -12.1,  -12.4,  -13.6,  -14.1,  -12.8,  -12.4,  -11.2,  -11.6,  -11.7,   -9.5,   -8.4,   -8.6,   -9.3,   -8.9,   -8.3,   -7.8,   -7.2,   -6.2,   -6.6,   -7.0,   -7.7,   -8.4,   -7.6,   -7.6,   -8.3,   -8.8,   -9.7,   -8.7,  999.0,   -6.5,  999.0,  999.0,  999.0,   -5.2,  999.0,  999.0,   -9.9,  -11.4,   -5.7,  999.0,  -13.2,  999.0,  999.0,  999.0,  999.0,  999.0,  999.0,  999.0,  999.0,  999.0,  999.0,  999.0,  999.0,  999.0,  999.0,  999.0,  999.0,  999.0,  999.0,  999.0,  999.0,  999.0,  999.0,  999.0,  -17.4,  999.0,  999.0,  999.0,  999.0,  999.0,  999.0,  999.0,  -26.0,  999.0,  999.0,  -21.7,  999.0,  999.0,  999.0,  999.0,   -9.0,   -9.5,  999.0,  999.0,  999.0,  999.0,  999.0,  999.0
2016/09/02 08:20,  999.0,   -6.6,   -5.8,   -6.5,   -6.7,   -7.8,   -7.0,   -6.8,   -6.2,   -6.6,   -7.1,   -6.2,   -6.8,   -7.5,   -8.6,  -10.0,   -9.2,   -8.6,   -9.1,   -8.7,   -8.9,   -8.2,   -8.6,   -9.4,   -9.4,   -9.5,   -9.9,  -11.5,  -11.6,  -11.7,  -12.2,  -12.0,  -12.2,  -12.7,  -14.0,  -14.2,  -12.9,  -12.0,  -10.7,  -11.3,  -11.8,   -9.6,   -9.0,   -9.0,   -9.6,   -9.6,   -9.4,   -8.5,   -8.1,   -7.6,   -7.5,   -7.1,   -8.1,   -7.8,   -8.0,   -7.4,   -8.5,   -8.8,   -9.7,   -9.7,   -7.5,   -6.4,  999.0,  999.0,  999.0,   -5.8,  999.0,  999.0,  999.0,  -11.2,  -11.5,  -12.6,  -13.1,  999.0,  999.0,  999.0,  999.0,  999.0,  999.0,  999.0,  999.0,  999.0,  999.0,  999.0,  999.0,  999.0,  999.0,  999.0,  999.0,  999.0,  999.0,  999.0,  999.0,  999.0,  999.0,  999.0,  999.0,  999.0,  999.0,  999.0,  999.0,  999.0,  999.0,  999.0,  999.0,  999.0,  999.0,  999.0,  -21.5,  999.0,  999.0,  999.0,  999.0,  999.0,  999.0,  999.0,  999.0,  999.0,  999.0,  999.0
2016/09/02 08:30,  999.0,  999.0,   -6.0,   -6.7,   -7.1,   -7.8,   -7.0,   -6.7,   -6.2,   -6.6,   -7.1,   -6.5,   -7.6,   -8.6,   -9.2,  -10.1,   -9.1,   -8.5,   -8.7,   -8.5,   -8.9,   -7.6,   -8.1,   -9.6,   -9.4,   -9.4,  -10.8,  -12.0,  -12.1,  -11.7,  -12.4,  -12.5,  -12.4,  -13.0,  -14.4,  -14.8,  -13.3,  -11.7,  -10.5,  -10.8,  -12.4,  -10.0,   -9.2,   -9.0,   -9.7,   -9.7,   -9.5,   -8.7,   -8.2,   -8.4,   -7.6,   -7.9,   -8.9,   -8.2,   -8.1,   -7.9,   -8.6,   -9.1,  -10.0,  -10.0,   -8.2,   -8.0,  999.0,  999.0,   -7.6,   -7.0,  999.0,   -6.4,  999.0,  -10.2,  -10.7,  -12.2,  -13.4,  999.0,  999.0,  999.0,  999.0,  999.0,  999.0,  999.0,  999.0,  999.0,  999.0,  999.0,  999.0,  999.0,  999.0,  999.0,  999.0,  999.0,  999.0,  999.0,  999.0,  999.0,  999.0,  999.0,  999.0,  999.0,  999.0,  999.0,  999.0,  999.0,  999.0,  -22.7,  999.0,  999.0,  999.0,  999.0,  -21.1,  999.0,  999.0,  999.0,  -10.2,  999.0,  999.0,  999.0,  999.0,  999.0,  999.0,  999.0
2016/09/02 08:40,  999.0,   -5.7,   -6.2,   -6.9,   -7.2,   -8.1,   -7.3,   -6.7,   -6.5,   -6.7,   -7.2,   -6.4,   -7.7,   -8.7,   -8.8,   -9.4,   -8.8,   -8.2,   -8.1,   -8.4,   -8.6,   -7.3,   -7.8,   -9.1,   -9.0,   -9.2,  -10.7,  -11.9,  -12.1,  -11.0,  -11.8,  -12.7,  -12.7,  -13.4,  -14.4,  -14.3,  -13.6,  -11.6,  -10.2,   -9.6,  -11.7,   -9.7,   -8.7,   -8.9,   -9.7,   -8.8,   -8.9,   -8.0,   -8.1,   -9.0,   -8.1,   -8.8,   -9.4,   -8.0,   -8.1,   -8.5,   -9.1,   -9.6,   -9.7,  -10.2,  -10.1,  999.0,  -11.5,  999.0,   -7.2,   -7.9,  999.0,   -7.7,  -10.1,  -10.5,  -10.3,  -11.8,  -13.3,  -16.5,  999.0,  999.0,  999.0,  999.0,  999.0,  999.0,  999.0,  999.0,  999.0,  999.0,  999.0,  999.0,  999.0,  999.0,  999.0,  999.0,  999.0,  999.0,  999.0,  999.0,  999.0,  999.0,  999.0,  999.0,  999.0,  999.0,  999.0,  999.0,  999.0,  999.0,  999.0,  999.0,  999.0,  999.0,  -20.0,  999.0,  999.0,  999.0,  -10.6,  999.0,  999.0,  999.0,  999.0,  999.0,  999.0,  999.0
2016/09/02 08:50,  999.0,   -5.7,   -6.3,   -6.8,   -7.3,   -8.1,   -7.4,   -6.9,   -6.8,   -6.5,   -7.1,   -6.4,   -7.2,   -8.3,   -8.0,   -8.8,   -8.5,   -8.0,   -8.0,   -8.0,   -7.7,   -7.6,   -7.5,   -8.8,   -8.9,   -8.6,  -10.1,  -11.3,  -12.1,  -10.6,  -11.2,  -12.5,  -12.7,  -13.2,  -13.6,  -13.8,  -13.2,  -11.4,   -9.9,   -9.1,  -11.3,   -8.7,   -8.4,   -8.8,   -9.0,   -6.6,   -7.9,   -7.4,   -8.2,   -9.2,   -8.7,   -9.3,   -8.7,   -8.5,   -8.4,   -8.9,   -9.3,   -9.8,   -9.9,  -10.3,  999.0,  -10.5,  -11.4,  999.0,  -11.5,  999.0,  999.0,   -9.8,  999.0,  -11.2,  -10.8,  -12.0,  999.0,  -16.5,  999.0,  999.0,  999.0,  999.0,  999.0,  999.0,  999.0,  999.0,  999.0,  999.0,  999.0,  999.0,  999.0,  999.0,  999.0,  999.0,  999.0,  999.0,  999.0,  999.0,  999.0,  999.0,  999.0,  999.0,  999.0,  999.0,  999.0,  999.0,  999.0,  999.0,  999.0,  999.0,  999.0,  999.0,  999.0,  999.0,  999.0,  999.0,  999.0,  999.0,  999.0,  999.0,  999.0,  999.0,  999.0,  999.0
2016/09/02 09:00,  999.0,   -5.8,   -6.6,   -6.8,   -7.4,   -7.8,   -7.3,   -7.0,   -6.7,   -6.4,   -6.8,   -6.4,   -6.7,   -7.9,   -7.7,   -8.7,   -8.6,   -8.2,   -7.7,   -7.3,   -7.1,   -7.0,   -8.0,   -9.4,   -8.8,   -8.5,   -9.7,  -11.0,  -11.9,  -10.9,  -11.1,  -12.4,  -12.9,  -13.6,  -13.0,  -13.7,  -13.2,  -11.1,   -9.8,   -9.0,  -10.7,   -8.5,   -8.4,   -8.9,   -9.2,   -6.9,   -7.7,   -7.2,   -8.2,   -9.1,   -9.1,   -9.8,   -8.9,   -8.9,   -9.0,   -9.5,   -9.4,  -10.1,  -10.2,  -10.3,  999.0,  -10.7,  -12.2,  999.0,  -11.3,   -9.7,   -9.7,   -9.9,   -8.2,  -10.8,  -10.7,  -13.1,  -14.9,  -16.5,  -17.5,  -17.7,  999.0,  999.0,  999.0,  999.0,  999.0,  999.0,  999.0,  999.0,  999.0,  999.0,  999.0,  999.0,  999.0,  999.0,  999.0,  999.0,  999.0,  999.0,  999.0,  999.0,  999.0,  999.0,  999.0,  999.0,  -22.8,  999.0,  999.0,  999.0,  999.0,  999.0,  999.0,  999.0,  999.0,  999.0,  999.0,  999.0,  999.0,  999.0,  999.0,  999.0,  999.0,  999.0,  999.0,  999.0
2016/09/02 09:10,   -4.8,   -6.3,   -6.9,   -7.1,   -7.5,   -8.4,   -7.9,   -6.9,   -6.7,   -6.3,   -6.6,   -6.1,   -6.8,   -8.0,   -8.0,   -9.3,   -9.1,   -8.0,   -7.3,   -7.0,   -6.9,   -6.2,   -8.5,  -10.3,   -9.1,   -9.1,   -9.8,  -11.3,  -12.1,  -11.4,  -11.5,  -12.6,  -13.0,  -13.6,  -13.6,  -13.8,  -13.4,  -11.5,  -10.2,   -9.0,   -9.9,   -8.7,   -9.3,  -10.1,   -9.8,   -8.4,   -8.0,   -7.4,   -8.3,   -9.0,   -9.3,   -9.6,   -9.0,   -8.8,   -9.1,  -10.1,   -9.3,  -10.1,  -10.0,   -9.8,   -9.5,  -10.7,  -12.5,  999.0,  -11.0,   -9.4,   -8.9,  999.0,   -9.1,  -10.5,  -10.4,  -13.5,  999.0,  999.0,  999.0,  999.0,  -18.8,  999.0,  999.0,  999.0,  999.0,  999.0,  999.0,  999.0,  999.0,  999.0,  999.0,  999.0,  999.0,  999.0,  999.0,  999.0,  999.0,  999.0,  999.0,  999.0,  999.0,  999.0,  999.0,  999.0,  999.0,  999.0,  999.0,  999.0,  999.0,  999.0,  999.0,  -23.6,  999.0,  999.0,  999.0,  999.0,  999.0,  999.0,  999.0,  999.0,  999.0,  999.0,  999.0,  999.0
2016/09/02 09:20,   -6.0,   -6.5,   -7.0,   -7.4,   -7.9,   -8.9,   -8.7,   -7.4,   -6.7,   -6.5,   -6.7,   -6.1,   -7.2,   -8.4,   -8.8,   -9.7,   -9.2,   -8.4,   -7.4,   -6.9,   -7.2,   -7.5,   -8.6,  -10.6,   -9.0,   -9.1,  -10.0,  -11.2,  -11.3,  -11.0,  -11.4,  -12.7,  -13.4,  -13.5,  -14.2,  -13.7,  -13.5,  -11.7,  -11.0,   -8.9,   -9.2,   -9.0,   -9.8,  -10.5,  -10.3,   -8.8,   -8.4,   -7.9,   -8.3,   -9.1,   -9.5,   -9.6,   -9.1,   -8.7,   -8.8,   -9.6,   -9.3,   -9.7,   -9.7,   -9.6,  -10.0,  -11.8,  -11.9,  999.0,  -11.4,  -10.1,   -9.9,  999.0,   -9.4,  -11.0,  -12.0,  -13.2,  999.0,  999.0,  999.0,  999.0,  999.0,  999.0,  999.0,  999.0,  999.0,  999.0,  999.0,  999.0,  999.0,  999.0,  999.0,  999.0,  999.0,  999.0,  999.0,  999.0,  999.0,  999.0,  999.0,  999.0,  999.0,  999.0,  999.0,  999.0,  999.0,  999.0,  999.0,  999.0,  999.0,  999.0,  999.0,  -22.9,  999.0,  999.0,  999.0,  999.0,  999.0,  999.0,  999.0,  999.0,  999.0,  999.0,  999.0,  999.0
2016/09/02 09:30,   -5.6,   -6.4,   -6.8,   -7.3,   -8.2,   -9.4,   -9.3,   -7.8,   -7.0,   -6.8,   -6.5,   -6.1,   -7.8,   -8.8,   -9.1,   -9.6,   -9.4,   -8.6,   -7.4,   -7.0,   -7.5,   -7.6,   -9.0,   -9.9,   -8.8,   -9.2,  -10.1,  -11.1,  -11.2,  -10.9,  -11.2,  -12.8,  -13.4,  -13.7,  -14.0,  -13.4,  -12.8,  -11.3,  -11.2,   -8.2,   -8.5,   -8.7,   -9.7,  -10.7,  -10.0,   -8.3,   -8.4,   -7.7,   -8.0,   -9.0,   -9.9,   -9.7,   -9.3,   -9.0,   -9.0,   -9.0,   -9.4,   -9.4,   -9.1,   -8.9,  -10.0,  -11.9,  -11.2,  -10.5,  -10.3,  -10.1,  -10.0,   -9.4,   -9.9,  999.0,  -12.8,  -13.9,  -16.1,  -16.4,  999.0,  999.0,  -18.8,  999.0,  999.0,  999.0,  999.0,  999.0,  999.0,  999.0,  999.0,  999.0,  999.0,  999.0,  999.0,  999.0,  999.0,  999.0,  999.0,  999.0,  999.0,  -31.4,  999.0,  999.0,  999.0,  999.0,  999.0,  999.0,  -28.0,  999.0,  999.0,  999.0,  999.0,  999.0,  999.0,  999.0,  -10.3,  -10.8,   -9.6,  999.0,  999.0,  999.0,  999.0,  999.0,  999.0,  999.0
2016/09/02 09:40,   -5.6,   -6.3,   -6.9,   -7.5,   -8.3,   -9.5,   -9.5,   -8.0,   -7.3,   -6.6,   -6.4,   -5.9,   -8.1,   -9.4,   -9.9,   -9.6,   -9.4,   -8.6,   -7.6,   -7.1,   -7.7,   -7.7,   -9.0,   -9.4,   -8.5,   -8.9,   -9.7,  -10.9,  -10.9,  -10.8,  -11.2,  -12.7,  -13.1,  -13.6,  -13.7,  -12.9,  -11.9,  -10.5,  -10.5,   -8.1,   -8.1,   -8.6,   -9.6,  -10.1,   -9.5,   -7.8,   -7.7,   -7.6,   -7.7,   -8.5,  -10.0,   -9.5,   -9.1,   -8.9,   -8.6,   -9.1,   -9.2,   -9.0,   -8.5,   -8.3,   -9.6,  -10.8,  -11.0,   -9.4,   -9.5,   -9.4,   -9.4,  -10.0,  -10.4,  -11.4,  -13.9,  -14.6,  -17.3,  -16.9,  999.0,  999.0,  999.0,  999.0,  999.0,  999.0,  999.0,  999.0,  999.0,  999.0,  999.0,  999.0,  999.0,  999.0,  999.0,  999.0,  999.0,  999.0,  999.0,  999.0,  999.0,  999.0,  999.0,  999.0,  999.0,  999.0,  999.0,  -24.4,  -27.3,  999.0,  999.0,  999.0,  999.0,  999.0,  999.0,  999.0,  999.0,  -11.6,  -10.5,  999.0,  999.0,  999.0,  999.0,  999.0,  999.0,  999.0
2016/09/02 09:50,   -5.6,   -6.1,   -6.9,   -7.5,   -8.2,   -9.2,   -9.6,   -7.9,   -7.4,   -6.5,   -6.2,   -5.9,   -8.1,   -9.1,   -9.6,   -9.0,   -9.0,   -8.0,   -7.5,   -7.2,   -7.2,   -7.6,   -8.7,   -9.4,   -8.5,   -8.5,   -9.4,  -10.4,  -10.7,  -11.0,  -11.3,  -11.7,  -13.0,  -13.7,  -13.3,  -12.1,  -11.3,   -9.6,   -9.3,   -8.1,   -8.0,   -8.4,   -9.6,   -9.5,   -9.1,   -7.7,   -6.9,   -7.4,   -7.6,   -8.5,   -9.5,   -9.0,   -8.7,   -9.0,   -8.5,   -8.9,   -9.2,   -8.9,   -8.5,   -8.8,   -9.6,  -10.8,  -10.6,  -10.3,   -9.9,   -9.3,   -9.8,  -10.4,  -11.2,  -13.0,  -14.8,  -14.7,  999.0,  999.0,  999.0,  999.0,  999.0,  999.0,  999.0,  999.0,  999.0,  999.0,  999.0,  999.0,  999.0,  999.0,  999.0,  999.0,  999.0,  999.0,  999.0,  999.0,  -24.7,  999.0,  999.0,  999.0,  999.0,  999.0,  999.0,  999.0,  999.0,  999.0,  999.0,  999.0,  999.0,  999.0,  999.0,  999.0,  999.0,  999.0,  999.0,  -10.7,  999.0,  999.0,  999.0,  999.0,  999.0,  999.0,  999.0,  999.0
2016/09/02 10:00,   -5.8,   -6.7,   -6.9,   -7.5,   -8.1,   -9.0,   -9.2,   -7.2,   -7.0,   -6.2,   -6.2,   -5.9,   -7.9,   -8.8,   -9.1,   -8.5,   -8.6,   -7.9,   -7.4,   -7.0,   -7.0,   -7.5,   -8.6,   -9.3,   -8.6,   -8.5,   -9.2,  -10.4,  -10.7,  -11.1,  -11.3,  -11.8,  -13.4,  -14.2,  -13.2,  -11.7,  -10.8,   -9.4,   -9.1,   -7.5,   -7.5,   -8.1,   -9.1,   -9.2,   -8.8,   -7.0,   -6.8,   -7.3,   -7.7,   -8.9,   -9.4,   -8.9,   -9.2,   -9.3,   -9.4,   -8.7,   -9.1,   -8.7,   -8.8,   -9.6,  -10.2,  -10.5,  -10.0,  -10.2,   -9.7,   -8.4,   -9.9,  -11.0,  -12.8,  -13.9,  -14.9,  999.0,  999.0,  999.0,  999.0,  999.0,  999.0,  999.0,  999.0,  999.0,  999.0,  999.0,  999.0,  999.0,  999.0,  999.0,  999.0,  999.0,  999.0,  999.0,  999.0,  999.0,  999.0,  999.0,  999.0,  999.0,  999.0,  999.0,  999.0,  999.0,  999.0,  999.0,  999.0,  999.0,  -24.7,  999.0,  999.0,  999.0,  999.0,  999.0,  999.0,  -10.6,  -10.5,  -10.0,  999.0,  999.0,  999.0,  999.0,  999.0,  999.0
2016/09/02 10:10,   -9.2,   -6.1,   -6.5,   -7.2,   -7.9,   -8.1,   -9.0,   -7.1,   -6.6,   -6.1,   -5.7,   -5.8,   -7.1,   -8.2,   -8.1,   -7.9,   -8.0,   -7.8,   -7.0,   -6.7,   -6.6,   -7.6,   -8.7,  -10.0,   -8.8,   -8.6,   -9.5,  -10.8,  -11.2,  -11.7,  -11.6,  -12.6,  -13.9,  -14.9,  -14.3,  -12.2,  -11.3,  -10.0,   -8.7,   -7.4,   -7.0,   -7.6,   -8.7,   -9.0,   -8.6,   -6.5,   -7.0,   -7.3,   -8.2,   -9.4,   -9.6,   -9.6,  -10.1,  -10.1,   -9.9,   -8.9,   -9.1,   -9.0,   -9.8,  -10.3,  -10.3,   -9.9,   -9.7,  -10.6,   -9.6,   -9.0,  -10.1,  -11.5,  -13.5,  -14.3,  -14.6,  999.0,  999.0,  999.0,  999.0,  999.0,  999.0,  999.0,  999.0,  999.0,  999.0,  999.0,  999.0,  999.0,  999.0,  999.0,  999.0,  999.0,  999.0,  999.0,  999.0,  999.0,  999.0,  999.0,  999.0,  999.0,  999.0,  999.0,  999.0,  999.0,  999.0,  999.0,  999.0,  999.0,  -24.7,  999.0,  999.0,  -20.5,  999.0,  999.0,  999.0,  -10.3,  -10.9,   -9.0,  999.0,  999.0,  999.0,  999.0,  999.0,  999.0
2016/09/02 10:20,   -7.2,   -6.0,   -6.6,   -7.1,  999.0,   -8.1,   -8.9,   -7.4,   -6.5,   -6.2,   -5.9,   -6.2,   -7.0,   -8.0,   -7.6,   -7.9,   -7.8,   -7.7,   -6.8,   -6.7,   -6.5,   -8.1,   -9.4,  -10.6,   -8.7,   -8.8,   -9.5,  -11.0,  -11.2,  -11.7,  -11.8,  -12.8,  -14.1,  -15.0,  -15.0,  -13.1,  -11.4,  -10.4,   -7.6,   -7.1,   -7.0,   -7.6,   -8.7,   -8.8,   -8.8,   -6.7,   -7.6,   -7.6,   -9.0,   -9.8,   -9.9,   -9.9,  -10.2,   -9.9,   -9.5,   -8.8,   -9.0,   -8.9,  -10.5,  999.0,  -10.1,   -9.8,   -9.6,  999.0,  999.0,  999.0,  -10.1,  -11.4,  -12.5,  -13.7,  -14.8,  999.0,  999.0,  999.0,  999.0,  999.0,  999.0,  999.0,  999.0,  999.0,  999.0,  999.0,  999.0,  999.0,  999.0,  999.0,  999.0,  999.0,  999.0,  999.0,  999.0,  999.0,  999.0,  999.0,  999.0,  999.0,  999.0,  999.0,  999.0,  999.0,  999.0,  -25.4,  999.0,  999.0,  999.0,  999.0,  999.0,  -21.0,  999.0,  999.0,  999.0,   -9.7,  -10.5,   -6.4,  999.0,  999.0,  999.0,  999.0,  999.0,  999.0
2016/09/02 10:30,   -5.7,   -6.5,   -6.7,   -7.2,   -7.9,   -8.1,   -8.7,   -8.6,   -6.7,   -6.6,   -6.6,   -6.8,   -7.3,   -8.2,   -8.0,   -8.0,   -7.8,   -7.2,   -6.4,   -6.3,   -6.7,   -9.1,  -10.3,  -11.1,   -9.0,   -9.1,   -9.6,  -10.7,  -10.9,  -11.4,  -11.5,  -12.9,  -13.9,  -14.4,  -14.9,  -13.3,  -11.2,  -10.1,   -6.9,   -6.7,   -6.9,   -7.9,   -8.9,   -8.5,   -8.8,   -7.0,   -7.7,   -8.1,   -9.2,  -10.0,  -10.3,  -10.1,  -10.0,   -9.4,   -9.2,   -8.9,   -8.8,   -9.2,  -10.8,  999.0,   -9.8,   -9.9,   -9.2,   -5.1,   -8.7,  999.0,  -10.2,  -11.1,  -11.8,  -13.4,  -14.6,  -15.3,  -15.4,  -14.2,  999.0,  999.0,   -9.2,   -9.7,  -10.4,  999.0,  999.0,  999.0,  999.0,  999.0,  999.0,  999.0,  999.0,  999.0,  999.0,  999.0,  999.0,  999.0,  999.0,  999.0,  999.0,  -30.0,  999.0,  999.0,  999.0,  999.0,  999.0,  -26.0,  -28.8,  999.0,  999.0,  999.0,  999.0,  999.0,  999.0,  999.0,  999.0,   -9.3,  -10.6,  999.0,  999.0,  999.0,  999.0,  999.0,   -5.6,  999.0
2016/09/02 10:40,   -4.5,   -5.1,   -5.9,   -7.1,   -8.1,   -8.1,   -8.8,   -9.7,   -7.0,   -7.1,   -7.1,   -7.4,   -8.5,   -8.8,   -8.3,   -8.2,   -7.4,   -6.4,   -5.8,   -6.0,   -7.3,   -9.6,  -10.6,  -11.4,   -9.7,   -9.0,  -10.1,  -11.0,  -10.8,  -11.0,  -11.4,  -13.0,  -13.7,  -13.9,  -14.1,  -12.5,  -11.1,   -9.7,   -6.3,   -6.2,   -6.9,   -7.9,   -9.2,   -8.1,   -8.6,   -7.2,   -7.8,   -8.5,   -9.2,  -10.1,  -10.1,   -9.9,   -9.6,   -9.6,   -9.0,   -9.0,   -8.6,   -9.4,  -10.4,   -8.1,   -9.4,  -10.2,  999.0,   -5.2,  -10.5,  999.0,   -5.3,  999.0,  999.0,  -13.6,  -14.5,  -14.5,  -12.5,   -7.8,   -7.9,   -8.7,   -8.9,   -9.2,  -11.1,  999.0,  999.0,  -11.8,  999.0,  999.0,  999.0,  999.0,  999.0,  999.0,  999.0,  999.0,  999.0,  999.0,  -34.2,  999.0,  999.0,  -29.8,  999.0,  999.0,  999.0,  999.0,  999.0,  -26.3,  999.0,  -22.9,  -26.4,  999.0,  999.0,  999.0,  999.0,  999.0,  999.0,  999.0,   -9.9,  999.0,  999.0,  999.0,  999.0,  999.0,   -5.7,  999.0
2016/09/02 10:50,   -5.2,   -4.7,   -5.4,   -6.9,   -7.8,   -8.2,   -8.7,   -9.5,   -7.1,   -7.4,   -7.4,   -8.2,   -8.7,   -8.9,   -8.7,   -8.2,   -7.1,   -6.3,   -6.1,   -6.2,   -7.9,   -9.8,  -10.8,  -11.7,  -10.2,   -9.5,  -11.0,  -11.4,  -11.2,  -11.0,  -11.3,  -12.9,  -13.0,  -13.5,  -13.3,  -12.2,  -10.9,   -9.4,   -5.7,   -5.6,   -6.2,   -7.6,   -8.4,   -7.6,   -8.4,   -6.9,   -7.8,   -8.4,   -9.3,  -10.1,  -10.1,   -9.8,   -9.7,   -9.5,   -9.2,   -9.2,   -8.8,  999.0,   -8.5,   -7.8,  -10.2,  999.0,    0.0,   -5.6,   -5.8,   -0.1,  999.0,   -6.2,   -7.1,   -7.7,  999.0,  999.0,   -8.2,   -8.3,  999.0,    0.0,  999.0,    0.3,  999.0,  999.0,  999.0,  999.0,  999.0,  999.0,  999.0,  999.0,  999.0,  999.0,  999.0,  999.0,  999.0,  999.0,  999.0,  999.0,  999.0,  -29.9,  999.0,  999.0,  999.0,  999.0,  -22.2,  -25.9,  999.0,  -22.8,  -26.3,  999.0,  999.0,  -21.6,  999.0,  999.0,  999.0,  999.0,   -9.7,  999.0,  999.0,  999.0,  999.0,  999.0,  999.0,  999.0
2016/09/02 11:00,   -7.5,   -4.1,   -5.5,   -6.7,   -7.3,   -8.3,   -7.9,   -8.7,   -7.1,   -7.5,   -7.5,   -8.1,   -8.6,   -8.6,   -8.2,   -8.0,   -6.6,   -6.2,   -6.3,   -6.6,   -8.3,   -9.9,  -10.6,  -11.7,  -10.6,  -10.1,  -11.2,  -11.2,  -11.6,  -11.2,  -11.5,  -12.8,  -12.8,  -13.5,  -13.3,  -11.5,  -10.5,   -9.2,   -5.4,   -5.2,   -5.5,   -6.4,   -7.8,   -7.5,   -8.5,   -6.8,   -7.4,   -8.2,   -9.2,  -10.1,  -10.0,   -9.9,  -10.0,   -9.2,   -8.9,   -8.8,   -7.9,   -7.4,   -8.5,   -7.6,  -10.5,  999.0,   -0.1,   -0.2,   -1.9,    0.2,    0.1,   -0.2,  999.0,   -7.0,  999.0,  999.0,   -8.1,  999.0,  999.0,  999.0,  999.0,  999.0,  999.0,  999.0,  999.0,  999.0,  999.0,  999.0,  999.0,  999.0,  999.0,  999.0,  999.0,  999.0,  999.0,  999.0,  999.0,  999.0,  999.0,  -29.8,  999.0,  999.0,  999.0,  999.0,  999.0,  -24.9,  999.0,  -22.4,  -26.5,  999.0,  999.0,  -22.1,  999.0,  999.0,  999.0,  -10.0,   -9.7,  999.0,  999.0,   -5.1,  999.0,  999.0,  999.0,  999.0
2016/09/02 11:10,   -7.7,   -3.8,   -5.3,   -7.5,   -7.2,   -8.2,   -7.7,   -7.9,   -7.0,   -7.3,   -7.3,   -8.0,   -8.7,   -8.6,   -8.1,   -8.3,   -6.5,   -6.1,   -6.7,   -7.5,   -8.6,   -9.6,  -10.4,  -11.7,  -11.6,  -10.6,  -11.4,  -11.5,  -12.0,  -11.9,  -12.1,  -12.9,  -13.5,  -13.6,  -12.8,  -11.1,  -11.0,   -9.5,   -5.5,   -5.2,   -5.3,   -6.4,   -7.7,   -8.2,   -8.9,   -8.0,   -7.2,   -7.7,   -9.2,  -10.1,   -9.7,   -9.8,   -9.7,   -8.8,   -8.6,   -8.3,   -7.5,   -9.4,   -9.5,   -7.1,   -9.9,  999.0,   -2.7,   -0.3,   -0.9,   -0.1,    0.3,    0.1,  999.0,   -7.3,  999.0,  999.0,   -8.2,   -8.6,  999.0,  999.0,  999.0,  999.0,  999.0,  999.0,  999.0,  999.0,  999.0,  999.0,  999.0,  -25.5,  999.0,  999.0,  999.0,  999.0,  999.0,  999.0,  999.0,  999.0,  999.0,  -29.2,  999.0,  999.0,  999.0,  999.0,  -23.3,  -25.8,  999.0,  -23.6,  -25.6,  999.0,  999.0,  999.0,  999.0,  999.0,  999.0,   -9.4,  -10.0,  999.0,  999.0,  999.0,  999.0,  999.0,  999.0,  999.0
2016/09/02 11:20,  999.0,  999.0,   -4.6,   -6.0,   -7.1,   -7.8,   -7.8,   -7.4,   -7.0,   -7.3,   -7.6,   -8.3,   -9.8,   -9.2,   -9.5,   -8.9,   -8.5,   -7.1,   -7.4,   -8.1,   -9.2,   -9.4,  -10.5,  -12.0,  -12.5,  -11.2,  -11.7,  -12.2,  -12.2,  -12.6,  -12.6,  -13.0,  -14.1,  -14.1,  -12.9,  -10.9,  -11.3,  -10.3,   -5.9,   -5.7,   -5.7,   -7.2,   -8.3,   -9.1,  -10.3,   -9.4,   -7.5,   -8.4,  -10.0,  -10.2,   -9.7,   -9.3,   -9.1,   -8.5,   -8.5,   -8.3,   -8.4,   -9.2,  -10.3,   -8.0,   -9.7,  999.0,   -3.1,   -0.5,  999.0,    0.2,    0.1,  999.0,  999.0,   -6.9,  999.0,  999.0,   -7.7,  999.0,  999.0,  999.0,  999.0,  999.0,  999.0,  999.0,  999.0,  999.0,  999.0,  999.0,  999.0,  -26.7,  999.0,  999.0,  999.0,  999.0,  999.0,  999.0,  999.0,  999.0,  -29.7,  -29.6,  999.0,  999.0,  999.0,  999.0,  -23.5,  -26.4,  999.0,  999.0,  999.0,  999.0,  999.0,  999.0,  999.0,  999.0,  999.0,  -10.0,   -9.8,  999.0,  999.0,  999.0,  999.0,  999.0,  999.0,  999.0
2016/09/02 11:30,  -14.8,   -3.1,   -4.4,   -6.4,   -7.0,   -7.7,   -7.8,   -7.7,   -7.4,   -7.5,   -8.4,   -8.6,  -10.5,  -10.6,  -10.0,   -9.0,   -8.6,   -7.2,   -7.3,   -8.4,   -9.5,   -9.2,  -10.6,  -11.9,  -13.0,  -11.1,  -11.3,  -11.1,  -11.9,  -12.6,  -12.9,  -13.6,  -14.4,  -14.8,  -12.8,  -10.4,  -11.0,   -9.9,   -6.1,   -5.8,   -6.3,   -7.5,   -8.7,  -10.2,  -11.3,   -9.7,   -8.2,   -9.1,  -10.2,   -9.8,  -10.0,   -8.9,   -8.7,   -8.6,   -8.7,   -8.8,   -8.7,   -9.4,  -10.3,   -9.0,  999.0,  999.0,   -2.2,   -0.6,   -0.8,   -0.3,    0.1,  999.0,  999.0,  -12.2,  -13.6,  -14.2,  -15.2,  -15.6,  999.0,  999.0,  999.0,  999.0,  999.0,  999.0,  -21.7,  -23.1,  999.0,  999.0,  -23.8,  999.0,  999.0,  999.0,  999.0,  999.0,  999.0,  999.0,  999.0,  999.0,  999.0,  999.0,  999.0,  999.0,  999.0,  999.0,  999.0,  999.0,  999.0,  999.0,  999.0,  999.0,  999.0,  999.0,  999.0,  999.0,  999.0,  999.0,  999.0,  999.0,  999.0,  999.0,  999.0,  999.0,  999.0,  999.0
2016/09/02 11:40,  999.0,  999.0,   -3.7,   -5.1,   -6.1,   -6.7,   -7.2,   -7.5,   -6.6,   -6.9,   -7.2,   -6.7,   -8.4,   -9.3,   -9.1,   -8.1,   -7.4,   -6.4,   -6.0,   -7.4,   -8.3,   -8.3,   -9.4,  -10.5,  -11.1,   -9.7,   -9.4,   -9.9,  -10.6,  -11.8,  -12.6,  -13.2,  -13.6,  -13.9,  -11.7,   -7.8,  -10.0,   -8.7,   -6.2,   -5.9,   -7.0,   -8.1,   -9.6,  -10.9,  -12.5,  -10.4,   -8.7,   -9.1,   -9.9,   -9.7,   -9.8,   -8.9,   -8.3,   -8.2,   -8.5,   -9.1,  -10.2,  -10.5,  -10.2,  -10.8,  999.0,   -4.0,   -3.8,   -1.1,   -0.3,   -0.4,   -0.4,  999.0,  -12.8,  -12.8,  -13.8,  -13.9,  -15.1,  -16.4,  999.0,  999.0,  999.0,  999.0,  999.0,  999.0,  -21.8,  999.0,  999.0,  999.0,  999.0,  999.0,  999.0,  999.0,  -27.3,  999.0,  999.0,  999.0,  -32.4,  999.0,  999.0,  -31.1,  999.0,  999.0,  999.0,  999.0,  999.0,  -25.9,  999.0,  999.0,  999.0,  999.0,  999.0,  999.0,  999.0,  999.0,  999.0,  999.0,   -9.2,  999.0,  999.0,  999.0,  999.0,  999.0,  999.0,  999.0
2016/09/02 11:50,  999.0,  999.0,   -3.6,   -4.6,   -5.8,   -6.6,   -6.6,   -7.1,   -7.0,   -7.3,   -7.9,   -6.7,   -7.9,   -8.6,   -8.2,   -7.0,   -6.2,   -5.8,   -5.3,   -6.8,   -8.0,   -8.1,   -8.4,   -9.6,  -10.1,   -9.0,   -8.9,   -9.3,  -10.6,  -11.5,  -12.1,  -12.4,  -12.8,  -13.1,  -10.4,   -7.8,   -9.1,   -8.4,   -6.0,   -5.7,   -7.5,   -8.8,  -10.3,  -10.8,  999.0,  -11.8,   -9.3,   -9.0,   -9.8,   -9.7,   -9.7,   -8.7,   -8.4,   -7.9,   -8.4,   -9.0,  -10.0,  -10.7,  -10.3,  -10.3,   -4.5,   -3.3,   -1.9,   -0.2,  999.0,  999.0,  999.0,  999.0,  999.0,  -12.9,  999.0,  -13.6,  -13.9,  999.0,  999.0,  999.0,  999.0,  999.0,  999.0,  999.0,  999.0,  999.0,  999.0,  999.0,  -24.0,  999.0,  999.0,  999.0,  -27.2,  999.0,  -33.1,  999.0,  999.0,  999.0,  999.0,  999.0,  999.0,  999.0,  999.0,  999.0,  999.0,  999.0,  999.0,  999.0,  999.0,  999.0,  999.0,  999.0,  999.0,  999.0,  999.0,  999.0,  -17.7,  999.0,  999.0,  999.0,  999.0,  999.0,  999.0,  999.0
2016/09/02 12:00,  999.0,  999.0,   -2.6,   -4.2,   -6.5,   -7.0,   -6.5,   -7.4,   -7.0,   -6.7,   -8.5,   -7.4,   -8.2,   -8.9,   -7.8,   -6.3,   -5.9,   -5.7,   -5.4,   -6.7,   -7.2,   -7.6,   -8.0,   -9.1,   -9.3,   -8.6,   -8.7,   -9.5,  -10.6,  -10.9,  -11.4,  -12.4,  -12.8,  -11.7,  -10.4,   -7.7,   -8.4,   -7.3,   -5.7,   -5.5,   -7.0,   -9.0,   -9.8,  999.0,  -12.5,  -12.1,   -9.2,   -8.8,   -9.4,   -9.5,   -8.8,   -7.1,   -6.8,   -7.5,   -6.9,   -8.5,   -9.6,  -10.4,   -9.8,   -9.5,   -8.3,  999.0,   -4.9,   -0.5,   -6.2,   -7.0,  999.0,  999.0,  999.0,  -12.4,  -12.9,  -13.4,  999.0,  999.0,  999.0,  -16.8,  999.0,  999.0,  999.0,  999.0,  999.0,  999.0,  999.0,  999.0,  -23.2,  999.0,  999.0,  999.0,  999.0,  999.0,  999.0,  999.0,  999.0,  999.0,  999.0,  999.0,  999.0,  999.0,  999.0,  999.0,  999.0,  999.0,  999.0,  999.0,  -10.7,  999.0,  999.0,  999.0,  999.0,  999.0,  999.0,  999.0,  -12.0,  999.0,  999.0,  999.0,  999.0,  999.0,  999.0,  999.0
2016/09/02 12:10,  999.0,  999.0,   -2.9,   -4.2,   -5.1,   -6.0,   -6.0,   -6.5,   -7.4,   -7.1,   -8.0,   -7.6,   -7.9,   -9.4,   -8.2,   -6.8,   -6.2,   -5.0,   -5.9,   -7.2,   -7.4,   -6.9,   -7.6,   -8.7,   -8.9,   -8.8,   -8.9,   -9.6,  -10.1,  -10.3,  -10.5,  -12.2,  -11.7,  -10.8,   -8.9,   -7.1,   -7.9,   -5.4,   -4.5,   -5.1,   -6.7,   -8.8,  -10.1,  -10.2,  -11.3,  -10.3,   -9.0,   -9.1,   -8.6,   -8.4,   -7.7,   -6.7,   -7.0,   -6.1,   -4.3,   -8.0,   -7.5,  999.0,   -9.3,   -9.8,   -9.3,  -10.3,  999.0,   -5.6,   -6.6,   -6.9,  999.0,  999.0,  999.0,  -12.6,  -13.4,  -13.6,  -14.2,  999.0,  999.0,  -16.2,  999.0,  999.0,  999.0,  999.0,  999.0,  999.0,  999.0,  999.0,  999.0,  999.0,  999.0,  999.0,  999.0,  999.0,  999.0,  999.0,  999.0,  999.0,  999.0,  999.0,  999.0,  999.0,  999.0,  999.0,  999.0,  999.0,  999.0,  999.0,  999.0,  999.0,  999.0,  999.0,  999.0,  999.0,  999.0,  -10.1,  999.0,  999.0,  999.0,  999.0,  999.0,  999.0,  999.0,  999.0
2016/09/02 12:20,  999.0,  999.0,   -4.3,   -4.9,   -4.3,   -4.5,   -5.5,   -6.1,   -5.8,   -5.6,   -6.4,   -7.5,   -6.9,   -9.2,   -7.0,   -6.8,   -6.4,   -4.6,   -5.8,   -7.7,   -7.6,   -5.5,   -7.9,   -9.0,   -8.8,   -8.8,   -8.2,   -8.8,   -9.0,   -9.2,   -9.1,  -11.1,  -10.7,   -9.3,   -8.1,   -7.0,   -6.8,   -4.6,   -4.3,   -5.0,   -7.2,   -9.0,   -8.8,  -11.4,  -11.0,  -10.4,   -9.6,  -10.0,   -9.6,   -8.6,   -8.0,   -8.0,   -8.2,   -7.7,   -5.5,   -8.9,   -6.4,  -10.1,   -9.4,   -9.7,   -9.6,  999.0,  999.0,   -5.6,  999.0,   -7.4,  999.0,  999.0,  999.0,  -13.2,  -14.5,  999.0,  999.0,  999.0,  999.0,  999.0,  999.0,  999.0,  999.0,  999.0,  999.0,  999.0,  -20.8,  999.0,  999.0,  999.0,  999.0,  999.0,  999.0,  999.0,  999.0,  999.0,  999.0,  999.0,  999.0,  999.0,  999.0,  999.0,  999.0,  999.0,  999.0,  999.0,  999.0,  999.0,  999.0,  999.0,  999.0,  999.0,  999.0,  999.0,  999.0,  999.0,  999.0,  999.0,  999.0,  999.0,  999.0,  999.0,  999.0,  999.0
2016/09/02 12:30,   -1.8,   -4.5,   -5.7,   -4.8,   -4.3,   -5.7,   -5.7,   -6.0,   -5.6,   -5.5,   -5.5,   -6.5,   -8.0,   -7.9,   -7.8,   -7.9,   -6.7,   -5.4,   -5.7,   -7.7,   -7.5,   -6.2,   -8.1,   -9.3,   -8.4,   -8.2,   -7.7,   -8.6,   -8.8,   -9.5,   -9.9,  -11.2,  -10.5,   -9.5,   -7.7,   -6.7,   -6.0,   -4.9,   -4.8,   -6.0,   -8.3,  -10.0,   -9.7,  -13.2,  -11.7,  -11.0,  -10.3,  -10.2,   -9.7,   -8.8,   -8.4,   -8.5,   -8.4,   -8.1,   -8.1,  -10.2,  -10.9,  -11.0,  -10.8,  999.0,  -10.5,  -11.6,   -9.1,  999.0,   -6.8,   -7.2,  999.0,  999.0,  -13.0,  -14.0,  -14.0,  999.0,  999.0,  999.0,   -0.4,  999.0,  999.0,  999.0,  999.0,  999.0,  999.0,  999.0,  999.0,  999.0,  999.0,  999.0,  999.0,  999.0,  999.0,  999.0,  999.0,  999.0,  999.0,  999.0,  999.0,  999.0,  999.0,  999.0,  999.0,  999.0,  999.0,  999.0,  999.0,  999.0,  999.0,  999.0,  999.0,  999.0,  999.0,  999.0,  999.0,  999.0,  999.0,  999.0,  999.0,  999.0,  999.0,  999.0,  999.0,  999.0
2016/09/02 12:40,  999.0,   -4.2,   -4.7,   -5.7,   -4.9,   -5.4,   -5.9,   -5.2,   -6.2,   -5.5,   -5.4,   -6.3,   -7.9,   -4.8,   -6.2,   -6.1,   -6.0,   -6.1,   -6.4,   -7.5,   -6.3,   -7.4,   -8.3,  -10.5,   -8.5,   -8.4,   -7.6,   -9.0,   -9.7,  -10.3,  -11.3,  -12.5,  -11.4,  -10.5,   -8.4,   -7.6,   -6.9,   -5.5,   -5.5,   -6.9,   -8.7,   -9.7,  -10.8,  -13.1,  -11.4,  -11.0,  -10.2,   -9.8,   -9.1,   -8.5,   -8.9,   -8.5,   -8.4,   -8.0,   -8.8,  -10.6,  -11.4,  -11.9,  -11.9,  -11.4,  -11.4,  -11.7,   -6.0,   -8.1,   -6.6,   -0.1,   -1.5,   -6.3,  999.0,  -14.8,  999.0,  999.0,  999.0,  999.0,   -0.3,  999.0,    0.9,   -0.3,  999.0,  999.0,  999.0,  999.0,  999.0,  999.0,  999.0,  999.0,  999.0,  999.0,  999.0,  999.0,  999.0,  999.0,  999.0,  999.0,  999.0,  999.0,  999.0,  999.0,  999.0,  999.0,  999.0,  999.0,  999.0,  999.0,  999.0,  999.0,  999.0,  999.0,  999.0,  999.0,  999.0,  -13.4,  999.0,  999.0,  999.0,  999.0,  999.0,  999.0,  999.0,  999.0
2016/09/02 12:50,   -4.2,   -4.5,   -6.5,   -6.9,   -6.5,   -7.0,   -8.1,   -5.7,   -5.7,   -4.8,   -5.0,   -6.4,   -7.6,   -4.6,   -4.6,   -5.0,   -5.7,   -6.3,   -6.2,   -7.0,   -6.9,   -8.2,  -10.2,  -11.3,   -8.9,   -9.0,   -8.0,   -9.8,  -10.7,  -11.6,  -12.8,  -13.7,  -11.7,  -10.9,   -8.7,   -7.9,   -7.2,   -5.8,   -5.3,   -7.0,   -8.3,   -8.9,   -9.8,  -11.8,  -11.4,  -10.7,   -9.1,   -8.8,   -8.0,   -7.8,   -8.3,   -7.8,   -7.8,   -7.6,   -8.5,  -10.1,  -11.0,  -12.8,  -12.1,  999.0,  -10.6,  999.0,  999.0,   -1.6,  999.0,   -0.8,   -0.7,  999.0,  999.0,  999.0,  999.0,  999.0,  999.0,  999.0,   -0.3,  999.0,  999.0,  999.0,  999.0,  999.0,  999.0,  999.0,  999.0,  999.0,  999.0,  999.0,  999.0,  999.0,  999.0,  999.0,  999.0,  999.0,  999.0,  999.0,  999.0,  999.0,  999.0,  999.0,  999.0,  999.0,  999.0,  999.0,  999.0,  999.0,  999.0,  999.0,  999.0,  999.0,  999.0,  999.0,  999.0,  999.0,  999.0,  999.0,  999.0,  999.0,  999.0,  999.0,  999.0,  999.0
2016/09/02 13:00,   -8.6,   -3.3,   -8.0,   -7.1,   -5.6,   -6.0,   -7.5,   -6.2,   -5.4,   -4.6,   -5.0,   -6.1,   -6.6,   -6.4,   -5.6,   -6.0,   -6.3,   -5.7,   -6.0,   -6.8,   -6.8,   -7.9,  -10.2,  -11.2,   -9.2,   -9.0,   -7.7,  -10.3,  -10.9,  -11.9,  -13.2,  -12.3,  -10.7,  -10.0,   -7.9,   -7.0,   -6.1,   -4.4,   -4.2,   -5.4,   -6.6,   -7.6,   -7.8,   -9.8,  -11.4,  -10.0,   -9.1,   -8.4,   -8.1,   -7.8,   -7.9,   -7.2,   -7.3,   -7.6,   -8.4,  -10.1,  -11.2,  -12.0,  -11.8,  999.0,  999.0,  999.0,   -3.1,    0.2,   -0.1,   -1.0,   -0.4,  999.0,  999.0,  999.0,  999.0,  999.0,  999.0,   -0.2,  999.0,  999.0,  999.0,  999.0,  999.0,  999.0,  999.0,  999.0,  999.0,  999.0,  999.0,  999.0,  999.0,  999.0,  999.0,  999.0,  999.0,  999.0,  999.0,  999.0,  -30.3,  999.0,  999.0,  999.0,  999.0,  999.0,  -23.1,  999.0,  999.0,  999.0,  -22.6,  999.0,  999.0,  999.0,  999.0,  999.0,  999.0,  999.0,  999.0,  999.0,  999.0,  999.0,  999.0,  999.0,  999.0,  999.0
2016/09/02 13:10,   -8.5,   -6.0,   -5.3,   -6.2,   -5.3,   -5.0,   -6.0,   -6.9,   -6.6,   -6.4,   -5.8,   -6.8,   -6.7,   -6.7,   -6.7,   -6.2,   -6.1,   -5.8,   -5.1,   -6.3,   -6.4,   -7.2,   -9.2,   -9.5,   -8.9,   -8.2,   -8.0,   -8.4,  -10.1,  -10.9,  -11.4,  -10.3,   -9.3,   -8.5,   -6.2,   -5.8,   -5.1,   -3.5,   -3.7,   -5.0,   -6.6,   -7.1,   -7.9,  -10.0,  -10.9,  -10.1,   -9.5,   -8.4,   -8.2,   -8.0,   -8.3,   -7.1,   -7.2,   -7.4,   -8.2,  -10.2,  -11.7,  -12.2,  -12.2,  -11.3,  999.0,   -3.0,  999.0,    1.4,   -1.4,   -0.7,   -0.2,  999.0,  999.0,  999.0,  999.0,  999.0,  999.0,  999.0,   -0.0,  999.0,  999.0,  999.0,  999.0,  999.0,  999.0,  999.0,  -23.6,  999.0,  999.0,  999.0,  999.0,  999.0,  999.0,  999.0,  999.0,  999.0,  999.0,  999.0,  -31.4,  999.0,  999.0,  999.0,  999.0,  -21.0,  -23.1,  999.0,  999.0,  999.0,  -22.8,  999.0,  999.0,  999.0,  999.0,  999.0,  999.0,  999.0,  999.0,  999.0,  999.0,  999.0,  999.0,  999.0,  999.0,  999.0
2016/09/02 13:20,   -5.1,   -5.8,   -3.9,   -6.0,   -7.1,   -7.2,   -6.8,   -6.8,   -7.1,   -7.3,   -6.3,   -7.2,   -7.3,   -6.7,   -6.7,   -6.1,   -6.0,   -5.9,   -5.1,   -6.5,   -6.8,   -7.2,   -8.3,   -8.9,   -9.3,   -8.3,   -8.3,   -8.7,  -10.3,  -11.6,  -10.9,   -9.8,   -9.8,   -8.6,   -5.7,   -5.1,   -4.2,   -2.9,   -3.4,   -4.4,   -6.3,   -6.2,   -7.9,   -9.7,  -10.8,  -10.5,   -9.5,   -8.1,   -8.3,   -8.3,   -8.3,   -7.1,   -7.7,   -6.9,   -8.2,  -10.2,  -12.0,  -12.6,  -12.4,  -10.8,  999.0,  999.0,  999.0,  999.0,  999.0,  999.0,  999.0,  999.0,  999.0,   -8.5,  999.0,  999.0,  999.0,  999.0,  999.0,  999.0,  999.0,  999.0,  999.0,  999.0,  999.0,  999.0,  -24.0,  999.0,  999.0,  999.0,  999.0,  999.0,  999.0,  999.0,  999.0,  999.0,  999.0,  999.0,  999.0,  999.0,  999.0,  999.0,  999.0,  -21.1,  -22.8,  999.0,  999.0,  999.0,  -23.6,  999.0,  999.0,  999.0,  999.0,  999.0,  999.0,  999.0,  999.0,  999.0,  999.0,  999.0,  999.0,  999.0,  999.0,  999.0
2016/09/02 13:30,  999.0,   -4.5,   -4.0,   -5.5,   -7.1,   -7.3,   -6.5,   -6.6,   -6.1,   -6.7,   -6.9,   -7.3,   -7.3,   -7.0,   -6.6,   -6.3,   -6.2,   -6.3,   -5.3,   -6.7,   -7.2,   -7.5,   -8.6,   -9.4,   -9.2,   -8.7,   -6.8,   -9.7,  -10.6,  -11.6,  -11.1,  -10.5,  -10.5,   -9.2,   -6.3,   -5.0,   -4.0,   -3.0,   -3.5,   -4.3,   -6.4,   -7.0,   -8.3,   -9.8,  -11.2,  -10.9,  -10.1,   -8.1,   -8.2,   -8.1,   -8.2,   -7.7,   -7.9,   -7.2,   -8.2,   -9.9,  -11.7,  -12.1,  -12.0,  -11.3,  -14.2,  999.0,  -12.2,  999.0,  999.0,  999.0,  999.0,  999.0,  999.0,  999.0,  999.0,  999.0,  999.0,  999.0,  999.0,  999.0,  999.0,  999.0,  999.0,  999.0,  999.0,  999.0,  999.0,  999.0,  999.0,  999.0,  999.0,  999.0,  999.0,  999.0,  999.0,  999.0,  999.0,  999.0,  999.0,  999.0,  999.0,  999.0,  999.0,  -21.9,  -24.9,  999.0,  999.0,  -21.9,  -25.1,  999.0,  999.0,  999.0,  999.0,  999.0,  999.0,  999.0,  999.0,  999.0,  999.0,  999.0,  999.0,  999.0,  999.0,  999.0
2016/09/02 13:40,   -2.5,   -4.1,   -4.2,   -5.2,   -6.3,   -6.0,   -5.4,   -5.9,   -5.7,   -7.1,   -7.4,   -8.0,   -8.0,   -8.1,   -7.1,   -7.1,   -6.3,   -6.0,   -6.2,   -6.4,   -7.4,   -8.2,   -8.8,   -9.5,   -9.7,  -10.2,   -7.9,  -10.6,  -11.5,  -11.3,  -10.7,  -10.7,  -10.3,   -9.0,   -6.9,   -5.0,   -4.1,   -4.1,   -4.1,   -5.3,   -7.4,   -8.3,  -10.3,  -11.9,  -12.6,  -12.8,  -11.6,   -9.2,   -8.7,   -8.5,   -8.3,   -8.6,   -7.8,   -7.4,   -8.3,  -10.1,  -10.4,  -11.3,  -11.3,  -10.9,  -10.4,  -10.1,  999.0,  999.0,  999.0,  999.0,  999.0,  999.0,   -6.9,  999.0,  999.0,  999.0,  999.0,  999.0,  999.0,  999.0,  999.0,  999.0,  999.0,  999.0,  999.0,  -21.6,  -24.1,  999.0,  999.0,  999.0,  999.0,  999.0,  999.0,  999.0,  999.0,  999.0,  999.0,  999.0,  999.0,  -25.6,  999.0,  999.0,  999.0,  999.0,  -26.0,  999.0,  999.0,  999.0,  999.0,  999.0,  999.0,  999.0,  999.0,  999.0,  999.0,  -12.3,  999.0,  999.0,  999.0,  999.0,  999.0,  999.0,  999.0,  999.0
2016/09/02 13:50,  999.0,   -4.3,   -4.7,   -5.4,   -5.8,   -5.7,   -5.2,   -5.8,   -5.5,   -6.9,   -7.8,   -7.5,   -7.4,   -8.0,   -7.9,   -8.0,   -7.3,   -7.0,   -7.2,   -7.4,   -8.6,   -8.6,   -9.0,   -9.8,   -9.4,  -10.1,  -10.6,  -11.3,  -11.5,  -10.9,  -10.6,  -10.4,   -9.6,   -8.5,   -6.0,   -3.8,   -2.6,   -4.0,   -5.1,   -8.4,   -9.1,   -9.3,  -11.1,  -12.4,  -12.8,  -12.8,  -11.5,   -9.6,   -9.3,   -9.0,   -8.8,   -8.5,   -7.7,   -7.3,   -8.6,   -9.9,   -9.8,  -10.9,  -10.6,  999.0,   -5.8,  999.0,  999.0,  999.0,  999.0,  999.0,  999.0,  999.0,  999.0,  999.0,  999.0,  999.0,  999.0,  999.0,  999.0,  999.0,   -9.3,  999.0,  999.0,  999.0,  999.0,  -21.8,  -24.4,  999.0,  999.0,  999.0,  999.0,  999.0,  999.0,  999.0,  999.0,  999.0,  999.0,  999.0,  999.0,  999.0,  999.0,  999.0,  999.0,  -23.0,  -24.9,  999.0,  999.0,  999.0,  999.0,  -20.4,  999.0,  999.0,  999.0,  999.0,  999.0,  -12.7,  -13.3,  999.0,  999.0,  999.0,  999.0,  999.0,  999.0,  999.0
2016/09/02 14:00,  999.0,   -4.3,   -4.0,   -5.2,   -4.5,   -5.3,   -4.9,   -4.8,   -5.6,   -6.6,   -5.6,   -5.9,   -7.1,   -8.1,   -7.8,   -8.5,   -7.9,   -6.9,   -7.9,   -8.7,   -9.1,  -11.0,  -11.0,  -10.5,  -10.0,  -10.2,  -10.7,  -11.6,  -11.5,  -10.7,  -10.4,  -10.0,   -9.0,   -8.0,   -5.4,   -3.8,   -3.8,   -4.4,   -6.3,   -9.7,  -10.7,  -10.6,  -12.1,  -13.7,  -13.8,  -13.7,  -13.3,  -10.9,  -10.3,   -8.6,   -8.5,   -7.8,   -7.8,   -8.3,   -9.7,  -11.0,  -10.8,  -11.7,  999.0,  999.0,   -9.8,  -11.4,  -13.1,  999.0,  999.0,  999.0,  -12.4,   -7.0,  999.0,  -14.3,  999.0,  999.0,  -14.9,  999.0,  999.0,  999.0,  999.0,  999.0,  999.0,  999.0,  -21.8,  -22.2,  999.0,  999.0,  999.0,  999.0,  999.0,  999.0,  999.0,  999.0,  999.0,  999.0,  -32.5,  -31.4,  999.0,  -25.4,  999.0,  999.0,  999.0,  999.0,  -23.5,  999.0,  999.0,  -18.8,  -22.1,  999.0,  999.0,  999.0,  999.0,  999.0,  999.0,  -13.1,  -12.6,  -12.3,  999.0,  999.0,  999.0,  999.0,  999.0,  999.0
2016/09/02 14:10,  999.0,   -5.3,   -4.2,   -4.1,   -4.3,   -5.0,   -4.9,   -3.8,   -5.4,   -5.6,   -5.9,   -5.5,   -6.3,   -7.8,   -7.8,   -9.4,   -8.0,   -7.0,   -9.2,  -11.0,  -10.9,   -9.9,  -11.3,  -11.3,   -9.6,   -7.0,   -9.1,  -10.5,  -10.5,   -9.4,   -8.8,  -10.0,   -8.3,   -7.9,   -5.3,   -3.8,   -4.1,   -4.9,   -7.0,   -9.7,  -10.7,  -10.7,  -11.7,  -13.2,  -13.3,  -13.9,  -13.3,  -11.2,  -10.3,   -8.9,   -8.6,   -8.0,   -8.1,   -8.9,  -10.5,  -11.4,  -11.1,  -11.8,  -10.9,  -10.9,  -12.3,  -11.6,  -13.7,  999.0,  999.0,  999.0,  -12.5,  999.0,  999.0,  999.0,  999.0,  999.0,  -15.6,  999.0,  999.0,  999.0,  999.0,  999.0,  999.0,  999.0,  -21.6,  -23.1,  999.0,  -23.9,  999.0,  999.0,  999.0,  999.0,  999.0,  999.0,  999.0,  999.0,  -31.9,  -31.1,  999.0,  999.0,  999.0,  999.0,  999.0,  999.0,  -23.6,  999.0,  999.0,  -18.3,  999.0,  999.0,  999.0,  999.0,  999.0,  999.0,  999.0,  999.0,  -11.5,  -11.5,  999.0,  999.0,  999.0,  999.0,  999.0,  999.0
2016/09/02 14:20,  999.0,   -9.4,   -4.3,   -4.6,   -4.7,   -5.6,   -4.9,   -4.1,   -4.6,   -3.8,   -3.9,   -4.4,   -5.0,   -6.6,   -6.6,   -6.8,   -7.0,   -5.7,   -4.0,   -5.5,   -7.0,  -10.0,   -9.8,   -6.2,   -6.0,   -5.2,   -9.2,   -7.9,  -10.3,   -8.5,   -7.0,   -7.3,   -7.2,   -6.0,   -5.0,   -3.9,   -4.2,   -5.4,   -7.0,   -9.3,  -10.4,  -11.3,  -12.2,  -12.9,  -13.4,  -14.2,  -13.2,  -11.1,  -10.9,   -9.5,  -10.1,   -8.0,   -8.7,   -9.5,  -10.9,  -12.3,  -11.7,  -11.8,  -11.5,  -11.2,  -11.5,  -11.6,   -7.9,    0.4,  999.0,   -9.2,  -12.2,   -7.3,  999.0,  999.0,  999.0,  999.0,  -16.1,  999.0,  999.0,  999.0,  999.0,  999.0,  999.0,  999.0,  -21.0,  -23.0,  -24.9,  999.0,  -25.5,  999.0,  999.0,  999.0,  999.0,  999.0,  999.0,  -32.9,  -31.6,  -30.7,  -29.1,  999.0,  999.0,  999.0,  999.0,  999.0,  999.0,  999.0,  999.0,  999.0,  999.0,  999.0,  -25.5,  999.0,  999.0,  999.0,  999.0,  999.0,  -10.8,  999.0,  999.0,  999.0,  999.0,  999.0,  999.0,  999.0
2016/09/02 14:30,   -2.0,   -8.8,   -6.9,   -6.6,   -6.9,   -6.7,   -6.3,   -5.5,   -4.4,   -3.8,   -4.7,   -5.0,   -4.2,   -5.4,   -5.5,   -5.7,   -4.2,   -2.4,   -2.4,   -6.0,   -3.8,   -4.7,   -2.7,   -7.0,   -8.3,   -5.1,   -7.0,   -8.9,   -8.7,   -9.5,   -7.4,   -7.3,   -6.7,   -4.9,   -3.8,   -3.6,   -3.9,   -4.7,   -5.7,   -8.1,   -8.5,   -9.7,   -9.7,  -11.0,  -11.7,  -12.0,  -11.2,  -10.0,   -9.7,   -9.7,  -10.2,   -8.1,   -8.5,   -9.5,  -10.9,  -11.7,  -11.2,  -11.5,  -11.3,  -11.2,  999.0,   -7.2,    0.1,    0.0,   -5.9,   -2.0,    0.1,   -3.4,  999.0,  999.0,    0.2,    0.5,  999.0,  999.0,  999.0,  999.0,  999.0,  999.0,  999.0,  -19.6,  999.0,  -23.3,  -24.9,  -26.8,  999.0,  999.0,  999.0,  999.0,  999.0,  999.0,  999.0,  -33.7,  999.0,  -30.1,  -28.0,  999.0,  999.0,  999.0,  999.0,  999.0,  999.0,  999.0,  999.0,  999.0,  999.0,  999.0,  -23.3,  999.0,  999.0,  999.0,  999.0,  -13.3,  -10.5,   -9.1,  999.0,  999.0,  999.0,  999.0,  999.0,  999.0
2016/09/02 14:40,  -12.9,   -8.0,   -6.5,   -6.2,   -6.7,   -6.6,   -6.5,   -5.2,   -5.3,   -6.4,   -5.9,   -5.7,   -5.2,   -5.9,   -5.7,   -5.5,   -3.8,   -2.6,  999.0,   -6.4,   -7.7,   -7.6,   -7.8,   -6.9,   -8.1,   -9.1,  -10.9,   -9.7,   -8.8,   -9.5,   -8.5,   -8.3,   -6.4,   -5.4,   -3.6,   -3.8,   -3.2,   -3.5,   -3.8,   -5.2,   -6.5,   -7.9,   -8.4,   -9.7,   -9.4,   -9.9,  -10.4,   -9.0,   -8.8,   -9.3,   -9.5,   -8.4,   -8.1,   -9.1,  -10.7,  -11.1,  -10.6,  -11.1,  -10.2,  -11.4,   -6.8,  999.0,  999.0,   -0.2,  999.0,    0.0,    0.1,    0.3,  999.0,  999.0,    0.3,  999.0,  999.0,  999.0,    0.4,  999.0,  999.0,  999.0,  999.0,  -20.1,  999.0,  -23.9,  -25.5,  -27.6,  999.0,  999.0,  999.0,  999.0,  999.0,  999.0,  999.0,  999.0,  999.0,  999.0,  999.0,  999.0,  999.0,  999.0,  999.0,  999.0,  999.0,  999.0,  999.0,  999.0,  -21.3,  999.0,  999.0,  999.0,  -18.6,  999.0,  999.0,  -14.1,  -11.9,  999.0,  999.0,  999.0,  999.0,  999.0,  999.0,  999.0
2016/09/02 14:50,  -13.9,   -8.7,   -5.8,   -6.1,   -6.2,   -5.9,   -5.8,   -5.7,   -6.2,   -6.4,   -6.1,   -5.8,   -5.3,   -5.5,   -5.8,   -5.1,   -4.5,   -4.6,   -4.0,   -5.9,   -6.9,   -5.7,   -6.4,   -7.3,   -7.6,   -9.0,  -10.0,  -10.6,   -9.3,   -8.8,   -8.3,   -7.7,   -6.0,   -5.4,   -4.6,   -3.3,   -2.9,   -2.7,   -3.4,   -4.8,   -6.1,   -7.9,   -7.4,   -9.4,   -9.3,  -10.1,  -10.5,   -8.1,   -9.0,   -9.4,   -9.3,   -8.8,   -8.8,   -9.8,  -11.4,  -10.5,  -10.9,  -10.9,  -10.8,  -12.1,  999.0,  999.0,    1.5,   -0.4,  999.0,   -0.1,   -0.2,  999.0,   -3.4,   -2.2,  999.0,  999.0,    0.6,  999.0,  999.0,    0.2,  999.0,  999.0,  999.0,  -20.9,  -22.9,  -24.2,  -25.9,  -28.2,  999.0,  999.0,  999.0,  -12.8,  999.0,  999.0,  999.0,  999.0,  999.0,  999.0,  999.0,  999.0,  999.0,  999.0,  999.0,  999.0,  999.0,  999.0,  999.0,  999.0,  999.0,  999.0,  -22.2,  999.0,  -17.6,  999.0,  999.0,  -14.2,  -12.8,  999.0,  999.0,  999.0,  999.0,  999.0,  999.0,  999.0
2016/09/02 15:00,  -12.3,   -9.7,   -5.6,   -6.4,   -6.5,   -6.2,   -6.3,   -5.9,   -6.0,   -6.0,   -6.0,   -5.6,   -4.9,   -5.3,   -6.2,   -5.4,   -4.9,   -5.1,   -4.6,   -5.9,   -6.5,   -6.3,   -7.4,   -8.0,   -8.3,   -8.5,   -8.9,   -8.8,   -7.6,   -7.6,   -6.8,   -7.3,   -5.8,   -5.1,   -4.2,   -3.1,   -1.8,   -2.5,   -3.4,   -5.0,   -6.1,   -7.9,   -7.8,   -9.3,   -9.3,  -10.0,  -10.5,   -9.3,   -9.2,   -9.6,   -9.0,   -9.1,   -9.8,  -11.0,  -11.9,  -10.6,  -11.1,  -11.2,  -12.5,  -13.9,  999.0,  999.0,    1.1,   -2.7,   -4.9,   -2.6,   -1.3,  999.0,  999.0,  999.0,  999.0,  999.0,   -0.7,  999.0,    0.1,    0.3,  999.0,  999.0,  999.0,  999.0,  -23.1,  999.0,  999.0,  999.0,  999.0,  999.0,  999.0,  999.0,  999.0,  999.0,  999.0,  999.0,  999.0,  999.0,  999.0,  999.0,  999.0,  999.0,  999.0,  999.0,  999.0,  999.0,  999.0,  999.0,  -22.6,  999.0,  999.0,  999.0,  -17.2,  999.0,  999.0,  999.0,  -13.0,  -13.3,  999.0,  999.0,  999.0,  999.0,  999.0,  999.0
2016/09/02 15:10,    0.0,  999.0,   -5.3,   -6.4,   -6.5,   -5.9,   -6.4,   -6.2,   -5.9,   -5.7,   -5.9,   -5.9,   -5.0,   -5.7,   -6.5,   -6.0,   -5.3,   -5.6,   -5.0,   -6.0,   -8.8,   -8.6,   -7.5,   -7.8,   -8.2,   -8.4,   -7.2,   -7.6,   -6.9,   -6.7,   -6.1,   -6.6,   -6.1,   -5.4,   -4.0,   -2.7,   -1.8,   -3.0,   -4.0,   -5.4,   -6.1,   -7.9,   -5.6,   -8.9,   -9.1,   -9.3,  -10.0,   -9.7,   -8.8,   -8.9,   -8.5,   -8.7,   -9.4,  -10.7,  -11.2,  -10.3,  -10.5,  -11.1,  -12.7,  999.0,  999.0,   -0.5,   -0.0,   -6.1,  999.0,   -2.9,   -0.2,  999.0,  999.0,  999.0,  999.0,  999.0,   -1.9,  999.0,  999.0,  999.0,    0.0,  999.0,  999.0,  999.0,  999.0,  999.0,  999.0,  999.0,  999.0,  999.0,  999.0,  999.0,  999.0,  999.0,  999.0,  999.0,  999.0,  999.0,  999.0,  999.0,  999.0,  999.0,  999.0,  999.0,  999.0,  999.0,  999.0,  999.0,  999.0,  999.0,  999.0,  999.0,  999.0,  999.0,  999.0,  999.0,  -13.6,  -12.4,  999.0,  999.0,  999.0,  999.0,  999.0,  999.0
2016/09/02 15:20,  999.0,  999.0,   -5.3,   -5.6,   -6.1,   -5.6,   -6.2,   -6.0,   -5.9,   -6.3,   -6.9,   -6.5,   -5.9,   -5.2,   -5.9,   -5.0,   -5.1,   -5.2,   -5.3,   -5.3,   -7.6,   -6.7,   -7.5,   -7.4,   -8.3,   -8.3,   -8.0,   -7.4,   -6.9,   -6.1,  999.0,   -6.3,   -5.8,   -5.1,   -4.7,   -3.3,   -1.9,   -2.7,   -3.3,   -4.9,   -6.1,   -7.4,   -6.4,   -8.0,   -8.1,   -8.5,   -9.6,   -9.6,   -8.5,   -8.3,   -8.0,   -8.4,   -9.4,  -10.1,  -10.3,   -9.5,  -10.1,  -10.6,  -11.9,   -0.5,    0.0,   -0.2,   -2.3,   -6.0,   -6.2,   -0.3,    0.1,   -0.4,   -0.1,  999.0,  999.0,  999.0,  999.0,  999.0,  999.0,  999.0,  999.0,  999.0,  999.0,  999.0,  999.0,  999.0,  999.0,  999.0,  999.0,  999.0,  999.0,  999.0,  999.0,  999.0,  999.0,  999.0,  999.0,  999.0,  999.0,  999.0,  999.0,  999.0,  999.0,  999.0,  999.0,  999.0,  999.0,  999.0,  999.0,  999.0,  999.0,  999.0,  999.0,  999.0,  999.0,  999.0,  999.0,  999.0,  999.0,  999.0,  999.0,  999.0,  999.0,  999.0
2016/09/02 15:30,    0.1,   -0.8,   -5.3,   -5.0,   -4.5,   -5.6,   -6.1,   -5.8,   -6.5,   -6.7,   -6.3,   -5.9,   -4.9,   -3.9,   -4.2,   -5.0,   -5.6,   -5.2,   -6.9,   -5.7,   -6.0,   -5.5,   -7.0,   -8.0,   -7.4,   -9.4,   -9.2,   -8.7,   -8.7,   -9.0,   -8.1,   -7.8,   -8.1,   -6.3,   -5.6,   -3.3,   -2.4,   -2.2,   -2.8,   -5.5,   -6.5,   -7.3,   -7.0,   -7.0,   -7.8,   -8.8,   -9.9,   -9.6,   -9.2,   -8.0,   -8.4,   -8.7,   -9.8,  -10.2,  -10.1,   -9.7,   -9.9,  -10.7,  -11.2,  999.0,    0.5,   -6.9,   -3.3,   -5.8,  999.0,    0.0,  999.0,   -6.4,   -0.7,  999.0,  999.0,  -11.3,  999.0,  999.0,  999.0,   -1.1,  999.0,  -15.2,  -20.6,  999.0,  999.0,  999.0,  999.0,  999.0,  999.0,  999.0,  999.0,  999.0,  999.0,  999.0,  999.0,  999.0,  999.0,  999.0,  999.0,  999.0,  999.0,  999.0,  999.0,  -18.3,  999.0,  999.0,  999.0,  999.0,  999.0,  999.0,  999.0,  999.0,  999.0,  999.0,  999.0,  999.0,  999.0,  999.0,  999.0,  999.0,  999.0,  999.0,  999.0,  999.0
2016/09/02 15:40,  999.0,  999.0,  999.0,  999.0,  999.0,  999.0,  999.0,  999.0,  999.0,  999.0,  999.0,  999.0,  999.0,  999.0,  999.0,  999.0,  999.0,  999.0,  999.0,  999.0,  999.0,  999.0,  999.0,  999.0,  999.0,  999.0,  999.0,  999.0,  999.0,  999.0,  999.0,  999.0,  999.0,  999.0,  999.0,  999.0,  999.0,  999.0,  999.0,  999.0,  999.0,  999.0,  999.0,  999.0,  999.0,  999.0,  999.0,  999.0,  999.0,  999.0,  999.0,  999.0,  999.0,  999.0,  999.0,  999.0,  999.0,  999.0,  999.0,  999.0,  999.0,  999.0,  999.0,  999.0,  999.0,  999.0,  999.0,  999.0,  999.0,  999.0,  999.0,  999.0,  999.0,  999.0,  999.0,  999.0,  999.0,  999.0,  999.0,  999.0,  999.0,  999.0,  999.0,  999.0,  999.0,  999.0,  999.0,  999.0,  999.0,  999.0,  999.0,  999.0,  999.0,  999.0,  999.0,  999.0,  999.0,  999.0,  999.0,  999.0,  999.0,  999.0,  999.0,  999.0,  999.0,  999.0,  999.0,  999.0,  999.0,  999.0,  999.0,  999.0,  999.0,  999.0,  999.0,  999.0,  999.0,  999.0,  999.0,  999.0
2016/09/02 15:50,  999.0,  999.0,  999.0,  999.0,  999.0,  999.0,  999.0,  999.0,  999.0,  999.0,  999.0,  999.0,  999.0,  999.0,  999.0,  999.0,  999.0,  999.0,  999.0,  999.0,  999.0,  999.0,  999.0,  999.0,  999.0,  999.0,  999.0,  999.0,  999.0,  999.0,  999.0,  999.0,  999.0,  999.0,  999.0,  999.0,  999.0,  999.0,  999.0,  999.0,  999.0,  999.0,  999.0,  999.0,  999.0,  999.0,  999.0,  999.0,  999.0,  999.0,  999.0,  999.0,  999.0,  999.0,  999.0,  999.0,  999.0,  999.0,  999.0,  999.0,  999.0,  999.0,  999.0,  999.0,  999.0,  999.0,  999.0,  999.0,  999.0,  999.0,  999.0,  999.0,  999.0,  999.0,  999.0,  999.0,  999.0,  999.0,  999.0,  999.0,  999.0,  999.0,  999.0,  999.0,  999.0,  999.0,  999.0,  999.0,  999.0,  999.0,  999.0,  999.0,  999.0,  999.0,  999.0,  999.0,  999.0,  999.0,  999.0,  999.0,  999.0,  999.0,  999.0,  999.0,  999.0,  999.0,  999.0,  999.0,  999.0,  999.0,  999.0,  999.0,  999.0,  999.0,  999.0,  999.0,  999.0,  999.0,  999.0,  999.0
2016/09/02 16:00,  999.0,  999.0,  999.0,  999.0,  999.0,  999.0,  999.0,  999.0,  999.0,  999.0,  999.0,  999.0,  999.0,  999.0,  999.0,  999.0,  999.0,  999.0,  999.0,  999.0,  999.0,  999.0,  999.0,  999.0,  999.0,  999.0,  999.0,  999.0,  999.0,  999.0,  999.0,  999.0,  999.0,  999.0,  999.0,  999.0,  999.0,  999.0,  999.0,  999.0,  999.0,  999.0,  999.0,  999.0,  999.0,  999.0,  999.0,  999.0,  999.0,  999.0,  999.0,  999.0,  999.0,  999.0,  999.0,  999.0,  999.0,  999.0,  999.0,  999.0,  999.0,  999.0,  999.0,  999.0,  999.0,  999.0,  999.0,  999.0,  999.0,  999.0,  999.0,  999.0,  999.0,  999.0,  999.0,  999.0,  999.0,  999.0,  999.0,  999.0,  999.0,  999.0,  999.0,  999.0,  999.0,  999.0,  999.0,  999.0,  999.0,  999.0,  999.0,  999.0,  999.0,  999.0,  999.0,  999.0,  999.0,  999.0,  999.0,  999.0,  999.0,  999.0,  999.0,  999.0,  999.0,  999.0,  999.0,  999.0,  999.0,  999.0,  999.0,  999.0,  999.0,  999.0,  999.0,  999.0,  999.0,  999.0,  999.0,  999.0
2016/09/02 16:10,  999.0,  999.0,  999.0,  999.0,  999.0,  999.0,  999.0,  999.0,  999.0,  999.0,  999.0,  999.0,  999.0,  999.0,  999.0,  999.0,  999.0,  999.0,  999.0,  999.0,  999.0,  999.0,  999.0,  999.0,  999.0,  999.0,  999.0,  999.0,  999.0,  999.0,  999.0,  999.0,  999.0,  999.0,  999.0,  999.0,  999.0,  999.0,  999.0,  999.0,  999.0,  999.0,  999.0,  999.0,  999.0,  999.0,  999.0,  999.0,  999.0,  999.0,  999.0,  999.0,  999.0,  999.0,  999.0,  999.0,  999.0,  999.0,  999.0,  999.0,  999.0,  999.0,  999.0,  999.0,  999.0,  999.0,  999.0,  999.0,  999.0,  999.0,  999.0,  999.0,  999.0,  999.0,  999.0,  999.0,  999.0,  999.0,  999.0,  999.0,  999.0,  999.0,  999.0,  999.0,  999.0,  999.0,  999.0,  999.0,  999.0,  999.0,  999.0,  999.0,  999.0,  999.0,  999.0,  999.0,  999.0,  999.0,  999.0,  999.0,  999.0,  999.0,  999.0,  999.0,  999.0,  999.0,  999.0,  999.0,  999.0,  999.0,  999.0,  999.0,  999.0,  999.0,  999.0,  999.0,  999.0,  999.0,  999.0,  999.0
2016/09/02 16:20,  999.0,  999.0,  999.0,  999.0,  999.0,  999.0,  999.0,  999.0,  999.0,  999.0,  999.0,  999.0,  999.0,  999.0,  999.0,  999.0,  999.0,  999.0,  999.0,  999.0,  999.0,  999.0,  999.0,  999.0,  999.0,  999.0,  999.0,  999.0,  999.0,  999.0,  999.0,  999.0,  999.0,  999.0,  999.0,  999.0,  999.0,  999.0,  999.0,  999.0,  999.0,  999.0,  999.0,  999.0,  999.0,  999.0,  999.0,  999.0,  999.0,  999.0,  999.0,  999.0,  999.0,  999.0,  999.0,  999.0,  999.0,  999.0,  999.0,  999.0,  999.0,  999.0,  999.0,  999.0,  999.0,  999.0,  999.0,  999.0,  999.0,  999.0,  999.0,  999.0,  999.0,  999.0,  999.0,  999.0,  999.0,  999.0,  999.0,  999.0,  999.0,  999.0,  999.0,  999.0,  999.0,  999.0,  999.0,  999.0,  999.0,  999.0,  999.0,  999.0,  999.0,  999.0,  999.0,  999.0,  999.0,  999.0,  999.0,  999.0,  999.0,  999.0,  999.0,  999.0,  999.0,  999.0,  999.0,  999.0,  999.0,  999.0,  999.0,  999.0,  999.0,  999.0,  999.0,  999.0,  999.0,  999.0,  999.0,  999.0
2016/09/02 16:30,   -0.3,   -2.0,   -4.3,   -4.5,   -5.6,   -6.3,   -6.2,   -5.6,   -5.2,   -4.7,   -4.9,   -6.3,   -6.1,   -6.6,   -5.4,   -4.6,   -4.5,   -6.2,   -6.3,   -6.4,   -5.9,   -6.9,   -7.5,   -8.7,   -9.1,   -9.0,   -9.8,   -8.9,   -9.1,   -8.1,   -8.0,   -6.1,   -6.7,   -7.2,   -5.9,   -5.4,   -3.8,   -3.0,   -3.6,   -4.3,   -5.5,   -6.2,   -7.7,   -8.2,   -8.3,   -8.1,   -8.6,   -9.1,   -8.6,   -8.1,   -9.2,  -10.5,  -10.1,   -9.9,   -9.8,  -10.2,   -9.6,  999.0,  999.0,   -6.0,  -11.7,  999.0,   -2.2,   -0.5,   -1.5,   -0.2,    0.0,  999.0,  -10.1,  999.0,  999.0,  999.0,  999.0,  999.0,  -17.5,  -18.2,  -19.7,  999.0,  999.0,  999.0,  999.0,  999.0,  999.0,  999.0,  999.0,  999.0,  999.0,  999.0,  999.0,  999.0,  999.0,  999.0,  999.0,  -12.3,  999.0,  999.0,  999.0,  999.0,  999.0,  999.0,  999.0,  -24.1,  999.0,  999.0,  999.0,  999.0,  999.0,  999.0,  999.0,  999.0,  -23.0,  999.0,  999.0,  999.0,  999.0,  999.0,  999.0,  999.0,  999.0,  999.0
2016/09/02 16:40,   -0.2,   -2.4,  999.0,   -4.4,   -5.2,   -6.1,   -6.5,   -5.8,   -5.7,   -4.6,   -5.1,   -5.9,   -5.5,   -6.9,   -6.3,   -5.4,   -4.8,   -6.5,   -6.6,   -6.6,   -6.3,   -7.1,   -7.6,   -9.1,   -8.8,   -9.5,   -9.2,   -8.6,   -8.9,   -7.7,   -7.2,   -5.4,   -5.5,   -5.9,   -5.5,   -4.6,   -3.0,   -2.5,   -3.3,   -4.6,   -5.7,   -6.5,   -7.9,   -8.0,   -8.4,   -8.5,   -8.4,   -9.2,   -7.8,   -8.2,   -9.0,  -10.1,   -9.7,   -9.8,   -9.7,  -10.6,   -7.7,  -10.2,  -11.9,   -7.5,  -11.9,   -6.4,   -0.5,   -0.5,   -0.8,   -0.5,   -0.4,   -0.6,  999.0,   -8.0,   -8.1,  999.0,  999.0,  999.0,  -17.9,  -18.5,  -20.0,  999.0,  999.0,  999.0,  999.0,  999.0,  999.0,  999.0,   -1.0,  999.0,  999.0,  999.0,  999.0,  999.0,  999.0,  999.0,  999.0,  999.0,  -12.4,  999.0,  999.0,  999.0,  999.0,  999.0,  999.0,  999.0,  999.0,  999.0,  999.0,  999.0,  999.0,  999.0,  999.0,  999.0,  999.0,  999.0,  999.0,  999.0,  999.0,  999.0,  999.0,  999.0,  999.0,  999.0
2016/09/02 16:50,  999.0,   -5.0,   -4.5,   -4.3,   -4.8,   -6.2,   -6.6,   -5.4,   -5.6,   -4.8,   -5.1,   -5.7,   -6.4,   -7.1,   -6.5,   -5.9,   -5.2,   -6.6,   -6.6,   -6.4,   -6.2,   -7.0,   -7.4,   -8.3,   -8.4,   -9.0,   -8.9,   -7.8,   -8.4,   -7.5,   -6.6,   -5.0,   -4.5,   -5.1,   -5.2,   -4.4,   -3.1,   -2.9,   -4.4,   -5.2,   -6.2,   -7.0,   -8.1,   -7.8,   -8.8,   -8.9,   -8.3,   -8.9,   -7.7,   -8.0,   -8.6,   -8.4,   -8.7,   -9.4,   -9.3,  -10.8,   -9.4,  -10.5,  -11.4,   -9.1,  -11.4,   -6.3,   -0.3,   -0.2,   -0.7,   -3.0,   -3.1,  999.0,  999.0,  999.0,   -9.0,  999.0,  999.0,  -10.4,  999.0,  -10.1,  -10.5,  -11.1,  -11.5,  999.0,  999.0,  999.0,  999.0,  999.0,  999.0,  999.0,  999.0,  999.0,  999.0,  999.0,  999.0,  999.0,  999.0,  999.0,  999.0,  999.0,  999.0,  999.0,  999.0,  999.0,  999.0,  -22.1,  999.0,  999.0,  999.0,  -23.5,  999.0,  999.0,  999.0,  999.0,  -21.8,  999.0,  999.0,  999.0,  999.0,  999.0,  999.0,  999.0,  999.0,  999.0
2016/09/02 17:00,  -12.6,  999.0,   -4.1,   -4.4,   -4.9,   -6.2,   -6.1,   -4.2,   -4.9,   -4.7,   -4.9,   -5.3,   -6.5,   -7.1,   -6.5,   -5.6,   -5.0,   -6.7,   -6.6,   -6.3,   -6.3,   -7.0,   -7.6,   -8.2,   -8.4,   -8.8,   -8.8,   -7.5,   -8.2,   -7.7,   -6.6,   -5.1,   -5.0,   -5.4,   -5.4,   -4.2,   -3.7,   -4.4,   -5.4,   -5.7,   -7.0,   -7.7,   -8.9,   -9.4,   -8.5,   -9.3,   -9.0,   -9.6,   -8.5,   -8.2,   -8.8,   -8.6,   -8.3,   -9.9,  -10.3,  -10.7,  -10.3,  -11.3,  -11.7,   -8.0,  999.0,  999.0,    0.0,    0.0,   -0.1,   -0.1,   -0.1,  999.0,   -0.0,  999.0,  999.0,  999.0,  999.0,  999.0,  999.0,  999.0,  999.0,  -10.9,  999.0,  999.0,  999.0,  999.0,  999.0,  999.0,  999.0,  999.0,  999.0,  999.0,  999.0,  999.0,  999.0,  999.0,  999.0,  999.0,  999.0,  999.0,  999.0,  999.0,  999.0,  999.0,  999.0,  -22.0,  999.0,  999.0,  999.0,  -22.5,  999.0,  999.0,  999.0,  999.0,  -21.2,  999.0,  999.0,  999.0,  999.0,  999.0,  999.0,  999.0,  999.0,  999.0
2016/09/02 17:10,  999.0,  -15.0,   -3.5,   -4.3,   -5.1,   -6.3,   -6.4,   -5.4,   -5.7,   -5.5,   -4.4,   -5.5,   -5.5,   -7.3,   -6.6,   -6.1,   -5.0,   -7.0,   -6.9,   -6.3,   -6.8,   -7.2,   -7.6,   -8.0,   -8.1,   -8.4,   -8.6,   -8.2,   -8.6,   -8.4,   -7.7,   -6.1,   -5.7,   -6.2,   -6.0,   -5.0,   -3.8,   -5.0,   -6.1,   -6.8,   -7.5,   -8.3,   -9.4,   -9.8,   -9.0,   -8.3,   -9.3,  -10.1,  -10.1,   -8.5,   -8.7,   -8.9,   -8.8,   -9.8,  -10.2,  -10.6,  -10.5,  -11.3,  -11.7,   -8.3,   -9.0,   -5.3,  999.0,   -0.8,   -5.6,  999.0,    0.2,   -3.4,  999.0,  999.0,  999.0,  999.0,  999.0,  999.0,   -9.1,  999.0,  -10.8,  -10.8,  999.0,  999.0,  999.0,  999.0,  999.0,  999.0,  999.0,  999.0,  999.0,  999.0,  999.0,  999.0,  999.0,  999.0,  -28.7,  999.0,  999.0,  999.0,  999.0,  999.0,  999.0,  999.0,  999.0,  -22.5,  999.0,  999.0,  999.0,  999.0,  999.0,  999.0,  999.0,  -20.0,  -21.0,  999.0,  999.0,  999.0,  999.0,  999.0,  999.0,  999.0,  999.0,  999.0
2016/09/02 17:20,   -0.2,  999.0,   -1.8,   -4.1,   -4.9,   -6.1,   -7.1,   -6.7,   -6.5,   -6.0,   -5.4,   -5.8,   -6.4,   -6.8,   -6.2,   -6.3,   -5.4,   -6.8,   -7.1,   -6.6,   -7.0,   -7.5,   -7.2,   -8.4,   -8.6,  999.0,  -10.4,  -10.8,  -10.5,  -10.6,   -9.2,   -8.3,   -8.1,   -7.2,   -7.4,   -6.4,   -5.1,   -5.5,   -6.7,   -7.0,   -7.5,   -8.5,   -9.3,   -9.6,   -8.7,   -8.7,   -9.0,   -9.7,  -10.6,   -9.5,  -10.0,   -9.7,   -9.6,   -9.8,  -10.0,  -10.6,  -10.4,  -10.9,  -11.8,  999.0,  999.0,   -4.9,   -4.6,   -6.3,   -5.4,   -6.7,   -3.4,  999.0,   -6.6,   -8.8,  999.0,  999.0,  999.0,  999.0,   -9.8,  999.0,   -9.6,  -10.2,  -10.9,  999.0,  999.0,  999.0,  999.0,  999.0,  999.0,  999.0,  999.0,  999.0,  999.0,  999.0,  -30.7,  -30.0,  -28.1,  999.0,  999.0,  -23.2,  -23.5,  999.0,  999.0,  999.0,  999.0,  999.0,  999.0,  999.0,  999.0,  999.0,  999.0,  999.0,  -22.3,  -20.3,  -20.7,  -18.9,  999.0,  999.0,  999.0,  999.0,  999.0,  999.0,  999.0,  999.0
2016/09/02 17:30,  999.0,  999.0,   -1.6,   -3.1,   -4.1,   -4.7,   -6.1,   -6.4,   -6.3,   -5.9,   -5.0,   -5.5,   -6.3,   -6.7,   -5.6,   -5.4,   -5.0,   -6.3,   -7.2,   -6.6,   -7.6,   -7.9,   -7.5,   -8.6,   -9.1,   -9.5,  -10.9,  -11.6,  -12.2,  -11.3,  -10.1,   -9.7,   -9.4,   -8.6,   -8.1,   -8.1,   -5.9,   -5.5,   -6.3,   -6.7,   -6.5,   -8.0,   -8.9,   -8.7,   -9.1,   -9.0,   -8.8,  -10.1,  -10.7,  -10.9,  -10.8,  -10.4,  -10.7,  -10.6,  -10.3,  -10.3,  -10.4,  -10.8,  999.0,   -9.3,   -9.5,   -6.2,   -3.3,  999.0,   -9.0,   -2.4,   -4.5,  999.0,   -6.4,   -8.8,  999.0,  999.0,  999.0,  999.0,  999.0,   -9.2,  -10.0,  -21.1,  -11.2,  -12.1,  999.0,  999.0,  999.0,  999.0,  999.0,  999.0,  999.0,  999.0,  999.0,  999.0,  -30.3,  -28.5,  999.0,  999.0,  999.0,  -22.8,  -24.4,  999.0,  999.0,  999.0,  999.0,  999.0,  999.0,  999.0,  999.0,  999.0,  999.0,  999.0,  -22.6,  999.0,  -17.1,  -19.0,  999.0,  999.0,  999.0,  999.0,  999.0,  999.0,  999.0,  999.0
2016/09/02 17:40,  999.0,  999.0,  999.0,   -2.0,   -3.3,   -3.4,   -4.3,   -6.0,   -5.7,   -5.2,   -5.4,   -5.5,   -6.6,   -6.4,   -5.2,   -4.8,   -4.2,   -5.5,   -6.6,   -6.5,   -7.2,   -7.7,   -7.9,   -8.6,   -9.0,   -9.1,  -10.5,  -11.5,  -12.4,  -10.7,   -9.9,   -9.6,   -9.4,   -8.3,   -8.0,   -8.4,   -6.1,   -5.7,   -6.3,   -6.6,   -6.8,   -7.7,   -9.3,   -8.5,   -8.8,   -8.8,   -9.2,   -9.7,  -10.5,  -11.3,  -10.7,  -10.8,  -11.7,  -11.6,  -11.2,  -10.8,  -10.7,  -10.6,  999.0,   -9.8,   -8.9,   -8.3,   -1.8,    0.1,   -0.6,   -0.8,    0.9,  999.0,  999.0,   -8.6,  999.0,  999.0,  999.0,  999.0,  999.0,  999.0,  999.0,  -21.2,  999.0,  -12.2,  999.0,  999.0,  999.0,  999.0,  999.0,  999.0,  999.0,  999.0,  999.0,  999.0,  -29.9,  -28.6,  999.0,  999.0,  -24.0,  -21.9,  -24.8,  999.0,  999.0,  -22.0,  -21.0,  999.0,  999.0,  999.0,  999.0,  999.0,  -25.7,  999.0,  -23.4,  999.0,  -17.0,  999.0,  999.0,  999.0,  999.0,  999.0,  999.0,  999.0,  999.0,  999.0
2016/09/02 17:50,  -14.4,  999.0,  999.0,   -1.2,   -1.3,   -1.5,   -1.7,   -2.8,   -4.2,   -3.9,   -5.2,   -5.5,   -4.9,   -4.5,   -4.3,   -4.1,   -4.2,   -5.6,   -6.0,   -6.0,   -6.1,   -5.9,   -7.1,   -8.5,   -8.9,   -8.8,   -9.9,  -11.6,  -10.7,   -9.2,   -8.9,   -8.7,   -8.5,   -8.1,   -8.0,   -8.3,   -7.0,   -6.6,   -7.0,   -7.7,   -7.6,   -8.3,   -9.5,   -9.3,   -8.6,   -8.7,   -9.4,   -9.6,  -10.6,  -11.5,  -11.3,  -11.7,  -12.1,  -12.0,  -12.1,  -11.7,  -11.5,  -11.0,  999.0,  -11.8,  -10.8,   -8.3,  999.0,   -0.6,   -3.9,  999.0,    0.1,  999.0,  999.0,  999.0,  999.0,  999.0,  999.0,  999.0,  -16.9,  999.0,  -17.1,  -19.8,  -20.4,  -21.5,  999.0,  999.0,  999.0,  999.0,  999.0,  999.0,  999.0,  999.0,  999.0,  999.0,  999.0,  999.0,  999.0,  999.0,  -23.1,  -22.0,  -24.3,  -21.5,  999.0,  999.0,  -20.6,  999.0,  999.0,  999.0,  999.0,  999.0,  -26.2,  999.0,  -22.2,  -20.5,  -17.1,  999.0,  999.0,  999.0,  999.0,  999.0,  999.0,  999.0,  999.0,  999.0
2016/09/02 18:00,  999.0,  999.0,    1.2,   -0.3,   -1.0,   -0.4,   -0.1,   -2.1,   -5.6,   -3.5,   -4.4,   -4.7,   -4.8,   -4.7,   -4.5,   -5.6,   -7.5,   -7.1,   -6.4,   -6.9,   -6.7,   -5.8,   -7.4,  -10.1,  -10.0,   -9.7,  -11.3,  -12.3,  -10.8,   -8.6,   -8.9,   -8.9,   -8.8,   -8.7,   -9.0,   -8.9,   -8.0,   -7.6,   -8.1,   -8.5,   -7.8,   -8.2,   -9.6,   -9.2,   -8.1,   -8.0,   -8.8,   -9.1,  -10.3,  -11.2,  -11.8,  -12.5,  -12.9,  -12.3,  -12.3,  -12.3,  -11.2,  -11.2,  -13.2,  -12.0,  -11.1,  -10.4,  -11.6,   -9.0,  -14.6,  999.0,  -19.4,  -15.1,  999.0,  999.0,  999.0,  999.0,  999.0,  999.0,  999.0,  999.0,  -17.4,  -18.5,  -19.3,  -19.8,  999.0,  999.0,  999.0,  999.0,  999.0,  999.0,  999.0,  999.0,  999.0,  -25.0,  999.0,  999.0,  999.0,  999.0,  -21.9,  -22.3,  999.0,  999.0,  999.0,  999.0,  999.0,  -21.0,  999.0,  999.0,  999.0,  999.0,  -26.6,  999.0,  999.0,  -20.1,  -18.4,  999.0,  999.0,  999.0,  999.0,  999.0,  999.0,  999.0,  999.0,  999.0
2016/09/02 18:10,  999.0,  999.0,  999.0,   -0.4,   -0.2,    0.4,   -1.0,   -2.1,   -3.0,   -4.2,   -5.5,   -4.8,   -5.8,   -5.4,   -6.1,   -7.2,   -8.5,   -7.2,   -6.4,   -6.7,   -7.9,   -7.8,   -8.8,  -10.7,  -10.5,  -11.5,  -12.0,  -12.3,  -11.2,   -9.7,   -9.6,   -9.3,   -9.1,   -8.4,   -9.0,   -8.7,   -8.5,   -8.1,   -7.7,   -7.5,   -8.0,   -8.6,   -9.3,   -9.7,  -10.2,   -9.8,   -9.5,   -9.7,  -10.8,  -10.4,  -11.0,  -12.6,  -13.1,  -12.0,  -11.9,  -12.8,   -9.7,  -10.2,  -13.1,  -11.9,  -11.7,  -10.4,  -12.4,  -13.8,  -16.5,  -18.3,  -19.7,  -17.7,  -20.7,  -20.7,  999.0,  999.0,  999.0,  999.0,  -19.3,  999.0,  -19.5,  -18.7,  -18.5,  -19.2,  -19.0,  999.0,  999.0,  999.0,  999.0,  999.0,  999.0,  999.0,  999.0,  999.0,  999.0,  -26.7,  -25.3,  999.0,  -21.9,  -22.7,  999.0,  999.0,  -18.9,  999.0,  999.0,  -21.1,  999.0,  999.0,  999.0,  999.0,  -26.9,  999.0,  999.0,  -18.9,  -19.5,  999.0,  999.0,  999.0,  999.0,  999.0,   -6.7,  999.0,  999.0,  999.0
2016/09/02 18:20,  999.0,    1.0,    0.5,    1.0,   -0.3,    0.0,   -3.2,   -3.0,   -3.5,   -3.3,   -3.8,   -5.7,   -6.9,   -8.7,   -8.8,   -7.3,   -9.4,   -9.3,   -8.4,   -7.8,   -7.5,   -9.3,  -11.1,  -10.2,   -8.1,   -9.9,  -10.7,  -10.5,  -10.9,  -10.4,  -10.0,   -9.6,   -7.5,   -6.9,   -8.2,   -7.2,   -7.0,   -7.4,   -7.8,   -6.1,   -8.2,  -10.0,   -9.5,   -9.7,  -10.4,  -10.3,   -9.2,   -9.3,  -10.3,  -10.8,  -10.5,  -11.9,  -11.7,  -11.4,  -12.1,  -13.0,  -10.4,  -10.9,  -12.7,  -12.1,  -11.8,  -12.4,  -11.8,  -12.4,  -15.7,  -17.0,  -17.8,  -18.2,  -18.7,  -19.1,  -18.9,  -17.2,  -18.5,  -19.5,  -20.3,  -20.7,  -20.7,  -18.8,  -17.8,  -17.3,  -17.4,  999.0,  999.0,  999.0,  999.0,  999.0,  999.0,  999.0,  999.0,  999.0,  999.0,  999.0,  -24.3,  999.0,  999.0,  999.0,  999.0,  999.0,  999.0,  999.0,  -19.4,  999.0,  999.0,  999.0,  999.0,  999.0,  -27.4,  999.0,  999.0,  -17.9,  -18.5,  999.0,  999.0,  999.0,  999.0,  999.0,  999.0,  999.0,  999.0,  999.0
2016/09/02 18:30,  999.0,    0.9,   -0.3,    0.4,   -1.4,   -4.6,   -3.4,   -3.3,   -2.6,   -1.2,    0.8,   -1.7,   -4.3,   -2.3,   -2.1,   -7.0,   -7.6,   -9.1,  -10.0,   -7.0,   -5.9,   -8.0,   -9.5,   -7.5,   -3.9,   -6.9,   -6.3,   -7.7,   -9.2,   -9.6,   -9.5,   -8.1,   -5.2,   -5.6,   -6.5,   -5.3,   -5.8,   -6.0,   -6.1,   -5.9,   -7.9,  -10.1,   -9.4,  -10.1,  -11.3,  -11.0,  -10.1,  -10.3,  -10.9,  -11.0,  -11.6,  -12.5,  -11.7,  -11.2,  -11.8,  -13.5,  -12.2,  -12.0,  -12.5,  -12.7,  -10.9,  -12.7,  -11.4,  -11.6,  -13.9,  -14.4,  -14.6,  -15.5,  -15.3,  -15.4,  -15.2,  -15.8,  -16.4,  -18.1,  -19.4,  -19.4,  -18.2,  -18.5,  -15.4,  -12.7,  -15.9,  999.0,  999.0,  999.0,  999.0,  999.0,  999.0,  999.0,  999.0,  999.0,  999.0,  999.0,  999.0,  999.0,  999.0,  999.0,  999.0,  999.0,  999.0,  999.0,  999.0,  999.0,  999.0,  999.0,  -24.0,  999.0,  -26.6,  999.0,  999.0,  -15.9,  -17.8,  999.0,  999.0,  999.0,  999.0,  999.0,  999.0,  999.0,  999.0,  999.0
2016/09/02 18:40,   -0.1,    0.7,   -0.4,   -1.2,   -0.8,   -3.8,   -3.6,   -4.0,   -3.9,   -3.6,   -1.4,   -2.2,   -4.6,   -4.2,   -5.0,   -4.0,   -4.9,   -7.0,   -9.2,   -5.8,   -4.8,   -8.6,   -7.9,   -9.3,   -7.0,   -6.9,   -6.7,   -8.0,   -9.5,   -8.9,   -9.0,   -7.7,   -6.3,   -6.4,   -6.1,   -5.8,   -6.1,   -6.0,   -6.1,   -5.4,   -6.5,   -7.2,   -7.7,   -8.3,   -9.3,   -8.7,   -8.5,   -9.4,   -9.8,  -10.7,  -11.8,  -11.6,  -11.4,  -12.2,  -12.2,  -12.4,  -11.7,  -10.9,  -10.7,   -9.4,   -8.8,  -11.7,  -12.7,  -11.5,  -12.8,  -12.1,  -10.3,  -13.5,  -14.0,  -14.7,  -16.1,  -18.4,  -18.8,  -18.5,  -19.2,  -18.9,  -17.5,  -18.3,  -16.7,  -16.1,  -14.8,  999.0,  999.0,  999.0,  999.0,  999.0,  999.0,  999.0,  -26.5,  999.0,  999.0,  999.0,  999.0,  999.0,  -23.1,  999.0,  999.0,  999.0,  999.0,  999.0,  -19.8,  999.0,  999.0,  999.0,  999.0,  999.0,  999.0,  999.0,  -22.0,  999.0,  -21.1,  -16.1,  999.0,  999.0,  999.0,  999.0,  999.0,  999.0,  999.0,  999.0
2016/09/02 18:50,   -1.3,   -1.5,   -2.1,   -2.7,   -1.7,   -2.8,   -4.6,   -4.7,   -4.8,   -6.1,   -6.1,   -5.7,   -6.0,   -6.1,   -5.5,   -5.0,   -5.4,   -3.5,   -2.3,   -0.8,   -1.9,   -4.2,   -2.7,   -4.9,   -5.1,   -5.5,   -6.1,   -6.8,   -7.8,   -7.7,   -8.5,   -8.2,   -6.3,   -6.7,   -5.7,   -5.9,   -6.7,   -6.3,   -5.1,   -5.1,   -4.5,   -4.4,   -5.2,   -6.6,   -7.1,   -6.5,   -7.2,   -8.1,   -8.5,   -9.2,   -9.1,  -10.0,  -10.4,  -10.0,  -10.6,  -10.2,  -11.4,  -10.6,  -11.2,  -12.0,  -12.4,  -12.9,  -12.5,  -14.4,  -14.7,  -15.1,  -16.8,  -17.2,  -17.4,  -18.8,  -18.7,  -19.6,  -21.6,  -19.9,  -19.3,  -18.5,  -19.8,  -18.9,  -19.8,  -18.6,  -19.0,  -22.0,  999.0,  999.0,  999.0,  999.0,  999.0,  999.0,  999.0,  999.0,  999.0,  999.0,  999.0,  999.0,  999.0,  999.0,  999.0,  999.0,  999.0,  999.0,  -19.3,  999.0,  999.0,  999.0,  999.0,  999.0,  999.0,  999.0,  999.0,  -20.4,  -21.8,  -16.5,  999.0,  999.0,  999.0,  999.0,  999.0,  999.0,  999.0,  999.0
2016/09/02 19:00,   -1.3,   -3.1,   -3.9,   -3.3,   -2.9,   -3.8,   -3.9,   -5.3,   -5.4,   -5.7,   -6.0,   -6.0,   -5.0,   -6.0,   -5.9,   -5.4,   -4.9,   -2.7,   -1.6,   -1.2,   -1.3,   -1.9,   -0.8,   -1.5,   -1.5,   -2.9,   -3.1,   -4.9,   -6.7,   -7.0,   -7.4,   -7.0,   -5.8,   -6.3,   -6.7,   -6.7,   -6.4,   -6.7,   -6.1,   -6.1,   -3.7,   -4.6,   -5.5,   -5.5,   -6.2,   -5.8,   -6.7,   -7.5,   -7.4,   -7.7,   -8.1,   -9.3,   -9.7,   -9.3,   -9.6,  -10.0,  -10.9,   -9.2,  -10.3,  -12.2,  -13.1,  -12.6,  -13.2,  -15.2,  -14.8,  -15.0,  -16.8,  -18.2,  -17.2,  -18.4,  -17.7,  -19.8,  -20.4,  -20.3,  -20.5,  -18.4,  -20.1,  -18.5,  -19.8,  -18.3,  -19.2,  999.0,  999.0,  999.0,  999.0,  999.0,  999.0,  999.0,  999.0,  999.0,  999.0,  999.0,  999.0,  999.0,  999.0,  999.0,  999.0,  999.0,  999.0,  999.0,  -21.0,  999.0,  999.0,  999.0,  999.0,  999.0,  999.0,  999.0,  999.0,  -20.2,  999.0,  999.0,  999.0,  999.0,  999.0,  999.0,  999.0,  -18.7,  999.0,  999.0
2016/09/02 19:10,  999.0,   -2.6,   -3.7,   -3.3,   -3.4,   -4.2,   -4.5,   -5.6,   -5.3,   -5.6,   -6.4,   -5.4,   -5.4,   -6.2,   -6.5,   -6.2,   -5.8,   -3.2,   -1.1,   -1.3,   -1.3,   -1.7,   -2.0,   -2.1,   -2.2,   -3.2,   -3.6,   -4.0,   -4.3,   -4.7,   -5.0,   -6.3,   -5.5,   -6.4,   -7.4,   -7.3,   -6.6,   -6.9,   -6.3,   -6.6,   -5.1,   -5.5,   -5.9,   -7.2,   -7.0,   -7.5,   -7.0,   -8.7,   -8.2,   -8.5,   -8.9,   -9.4,  -10.0,  -10.4,  -10.5,  -11.6,  -11.7,   -9.6,  -11.5,  -11.9,  -12.8,  -13.0,  -13.5,  -13.3,  -12.4,  -14.6,  -16.7,  -17.5,  -18.0,  -18.5,  -18.1,  -18.7,  -19.6,  -20.2,  -20.4,  -17.0,  -19.0,  -18.9,  -19.5,  -16.6,  -16.8,  -19.6,  999.0,  999.0,  999.0,  999.0,  999.0,  999.0,  999.0,  999.0,  999.0,  -20.2,  999.0,  999.0,  999.0,  999.0,  999.0,  999.0,  999.0,  999.0,  -21.2,  999.0,  999.0,  999.0,  999.0,  999.0,  999.0,  999.0,  999.0,  999.0,  999.0,  999.0,  999.0,  999.0,  999.0,  999.0,  999.0,  999.0,  999.0,  999.0
2016/09/02 19:20,   -2.4,   -2.1,   -3.0,   -3.7,   -4.0,   -4.5,   -5.3,   -6.7,   -6.4,   -7.2,   -7.7,   -5.8,   -6.5,   -6.5,   -6.6,   -6.4,   -6.7,   -4.6,   -3.7,   -3.8,   -4.5,   -4.0,   -4.2,   -4.3,   -4.4,   -4.1,   -4.6,   -4.4,   -3.7,   -4.0,   -3.8,   -5.2,   -5.5,   -7.3,   -7.7,   -4.9,   -4.9,   -4.7,   -5.8,   -7.0,   -5.6,   -6.1,   -7.4,   -7.9,   -9.2,  -10.3,   -8.9,  -10.1,   -8.7,  -10.0,   -9.8,   -9.6,   -9.8,  -10.5,  -10.4,  -11.6,   -9.9,  -10.2,  -11.4,  -11.4,  -11.7,  -12.6,  -13.1,  -12.1,  -11.7,  -14.2,  -15.6,  -16.4,  -17.6,  -18.0,  -16.6,  -15.9,  -17.9,  -17.5,  -18.1,  -18.5,  -19.5,  999.0,  999.0,  999.0,  999.0,  999.0,  999.0,  999.0,  999.0,  999.0,  999.0,  999.0,  999.0,  999.0,  999.0,  999.0,  999.0,  999.0,  999.0,  999.0,  999.0,  999.0,  999.0,  999.0,  999.0,  999.0,  999.0,  999.0,  999.0,  999.0,  999.0,  999.0,  999.0,  999.0,  999.0,  999.0,  999.0,  999.0,  999.0,  999.0,  999.0,  999.0,  999.0,  999.0
2016/09/02 19:30,   -0.8,   -1.9,   -3.0,   -4.2,   -4.6,   -5.0,   -5.6,   -7.0,   -6.9,   -7.2,   -6.7,   -5.4,   -5.9,   -5.9,   -6.5,   -6.7,   -7.3,   -3.5,   -3.4,   -5.4,   -5.8,   -5.4,   -5.9,   -4.8,   -6.0,   -5.7,   -5.5,   -4.6,   -3.4,   -3.8,   -3.1,   -3.6,   -3.2,   -3.3,   -4.8,   -4.0,   -4.3,   -4.0,   -6.0,   -7.0,   -7.9,   -8.4,   -9.5,   -9.0,   -9.6,  -11.1,  -12.3,  -11.2,   -9.8,   -8.7,   -8.4,   -9.0,   -9.0,  -10.1,   -9.6,  -10.5,  -10.0,  -11.5,  -11.4,  -11.9,  -12.7,  -13.1,  -12.7,  -11.5,  -12.6,  -13.3,  -15.4,  -16.0,  -16.6,  -17.6,  -16.5,  -15.4,  999.0,  -16.2,  -16.6,  -19.1,  999.0,  999.0,  999.0,  999.0,  999.0,  999.0,  999.0,  999.0,  999.0,  999.0,  999.0,  999.0,  999.0,  999.0,  999.0,  999.0,  999.0,  999.0,  999.0,  999.0,  999.0,  999.0,  999.0,  999.0,  999.0,  999.0,  -28.7,  999.0,  999.0,  999.0,  999.0,  999.0,  999.0,  999.0,  -17.3,  999.0,  999.0,  999.0,  999.0,  999.0,  999.0,  999.0,  999.0,  999.0
2016/09/02 19:40,    0.7,   -1.5,   -3.0,   -3.9,   -5.0,   -5.3,   -5.9,   -7.2,   -7.1,   -6.4,   -5.9,   -4.9,   -5.3,   -5.3,   -6.4,   -6.9,   -7.3,   -5.2,   -4.1,   -8.0,   -8.1,   -7.8,   -7.0,   -7.3,   -7.1,   -6.2,   -5.2,   -4.6,   -4.1,   -5.0,   -3.7,   -4.4,   -4.9,   -4.9,   -6.9,   -6.4,   -6.8,   -7.3,   -8.0,   -8.6,   -9.4,  -10.9,  -10.9,  -11.0,   -9.9,   -9.6,   -9.1,   -8.2,   -9.4,   -9.3,   -7.8,   -7.9,   -9.9,  -10.3,   -9.5,   -9.8,   -9.1,  -10.9,  -11.5,  -12.1,  -14.0,  -12.9,  -12.4,  -12.3,  -13.1,  -12.6,  -14.6,  -14.3,  -16.1,  999.0,  999.0,  -16.0,  999.0,  -16.4,  -15.5,  -20.2,  999.0,  999.0,  999.0,  999.0,  999.0,  999.0,  999.0,  999.0,  999.0,  999.0,  999.0,  999.0,  999.0,  999.0,  999.0,  999.0,  999.0,  999.0,  999.0,  999.0,  999.0,  999.0,  999.0,  999.0,  999.0,  999.0,  999.0,  999.0,  999.0,  999.0,  999.0,  999.0,  999.0,  999.0,  -17.8,  -18.6,  999.0,  999.0,  999.0,  999.0,  999.0,  999.0,  999.0,  999.0
2016/09/02 19:50,  999.0,  999.0,  999.0,   -3.2,   -3.9,   -5.5,   -6.1,   -6.2,   -6.3,   -6.0,   -5.6,   -5.1,   -5.0,   -6.1,   -7.0,   -7.7,   -7.9,   -9.2,   -9.8,   -9.3,   -9.1,   -8.7,   -7.5,   -7.3,   -7.0,   -6.8,   -6.5,   -6.2,   -7.2,   -6.7,   -6.2,   -6.0,   -4.6,   -6.7,   -7.5,   -7.9,   -7.9,   -6.8,   -7.8,   -8.5,   -9.2,  -10.5,   -9.9,   -9.4,   -9.4,   -9.3,  -10.0,  -11.0,  -12.3,  -12.0,  -13.5,  -13.2,  -12.9,  -13.8,  -10.5,  -10.6,  -10.7,  -10.8,  -11.7,  -12.3,  -13.0,  -13.1,  -11.6,   -7.8,  999.0,   -3.2,  999.0,  -10.3,  999.0,  999.0,  999.0,  999.0,  999.0,  999.0,  -15.9,  -16.9,  999.0,  999.0,  999.0,  999.0,  999.0,  999.0,  999.0,  999.0,  999.0,  999.0,  999.0,  999.0,  999.0,  999.0,  999.0,  999.0,  999.0,  999.0,  999.0,  999.0,  999.0,  999.0,  999.0,  999.0,  999.0,  999.0,  999.0,  999.0,  999.0,  -21.0,  999.0,  999.0,  999.0,  999.0,  999.0,  999.0,  999.0,  999.0,  999.0,  999.0,  999.0,  999.0,  999.0,  999.0
2016/09/02 20:00,  999.0,  999.0,  999.0,   -4.6,  999.0,   -5.8,   -6.3,  999.0,  999.0,   -5.4,   -5.3,  999.0,   -5.6,   -6.6,   -7.4,   -8.0,   -8.6,   -8.0,   -8.1,   -8.3,   -9.0,   -8.3,   -7.8,   -7.4,   -7.7,   -8.1,   -7.9,   -7.6,   -7.5,   -7.2,   -6.7,   -6.6,  999.0,   -7.0,   -7.3,   -8.3,   -7.7,   -6.8,   -7.6,   -8.1,   -8.3,   -9.0,  999.0,   -7.8,   -7.6,   -9.4,  -10.9,  -10.4,  -12.2,  -12.4,  -13.2,  -14.5,  -14.3,  -13.6,  -12.0,  -11.4,  -11.6,  -10.2,  -10.4,  999.0,  -10.6,  -10.7,  999.0,   -8.2,  999.0,  999.0,  999.0,  999.0,  999.0,  999.0,  999.0,  999.0,  999.0,  -14.0,  -15.5,  999.0,   -8.3,  999.0,  999.0,  999.0,  999.0,  999.0,  999.0,  999.0,  999.0,  999.0,  999.0,  999.0,  999.0,  999.0,  999.0,  999.0,  999.0,  999.0,   -1.5,  999.0,  999.0,  999.0,  999.0,  999.0,  999.0,  999.0,  999.0,  999.0,  999.0,  999.0,  999.0,  999.0,  999.0,  999.0,  999.0,  999.0,  999.0,  999.0,  999.0,  999.0,  999.0,  999.0,  999.0,  999.0
2016/09/02 20:10,  999.0,  999.0,  999.0,   -2.6,   -4.1,   -5.4,   -6.0,   -6.1,   -4.8,   -4.1,   -3.5,   -4.2,   -5.9,   -6.8,   -7.6,   -8.6,   -8.9,   -8.4,   -8.3,   -8.7,   -9.4,   -8.8,   -8.5,   -8.4,   -8.8,   -8.5,   -9.1,   -8.4,   -8.8,   -8.6,   -7.2,   -6.3,   -6.1,   -7.2,   -8.7,   -8.8,   -8.0,   -6.6,   -7.7,   -8.2,   -8.5,   -8.9,   -8.6,   -7.7,   -7.3,   -8.6,  -10.8,  -10.0,  -10.0,   -9.7,   -9.9,   -9.4,  -10.4,  -10.2,  -10.1,   -9.3,   -9.5,   -9.4,  -10.2,   -9.6,   -7.4,   -9.6,   -9.9,   -8.8,  -13.0,  -10.0,  -12.0,  -14.3,  -13.3,  -10.4,  -13.8,  -10.7,  -11.1,  -13.0,  -15.5,  999.0,   -9.4,  999.0,  999.0,  999.0,  999.0,  999.0,  999.0,  999.0,  999.0,  999.0,  999.0,  999.0,  999.0,  999.0,  999.0,  999.0,  999.0,  999.0,  999.0,  999.0,  999.0,  999.0,  999.0,  999.0,  999.0,  -24.1,  999.0,  999.0,  999.0,  999.0,  999.0,  999.0,  999.0,  999.0,  999.0,  999.0,  999.0,  999.0,  999.0,  999.0,  999.0,  999.0,  999.0,  999.0
2016/09/02 20:20,   -9.6,   -1.3,   -1.8,   -3.1,   -4.6,   -5.8,   -5.8,   -6.1,   -4.9,   -4.3,   -4.1,   -5.4,   -6.2,   -6.3,   -6.2,   -7.8,   -8.8,   -8.5,   -8.4,   -8.8,   -8.4,   -8.9,   -8.8,   -8.8,   -9.1,   -8.8,   -9.1,   -9.0,   -9.7,   -9.3,   -7.3,   -6.7,   -8.1,   -8.8,   -9.6,   -9.5,   -8.5,   -7.7,   -7.8,   -7.7,   -8.1,   -8.3,   -7.9,   -7.6,   -6.9,   -7.5,   -8.9,   -9.0,   -8.5,   -8.8,   -9.6,   -9.8,  -10.2,  -10.3,  -10.6,  -10.1,   -9.5,   -9.9,  -10.1,  -10.0,   -9.3,  -11.3,  999.0,  -12.5,  -12.7,  -12.0,  -12.4,  -13.3,  -13.2,  999.0,  -11.9,  -12.3,  -14.4,  -15.3,  -17.8,  999.0,  999.0,  999.0,  999.0,  -18.6,  -18.1,  999.0,  999.0,  999.0,  999.0,  999.0,  999.0,  999.0,  999.0,  999.0,  999.0,  999.0,  999.0,  999.0,  999.0,  999.0,  999.0,  999.0,  999.0,  999.0,  999.0,  999.0,  999.0,  999.0,  999.0,  999.0,  999.0,  999.0,  999.0,  999.0,  999.0,  999.0,  -14.4,  999.0,  999.0,  999.0,  999.0,  999.0,  999.0,  999.0
2016/09/02 20:30,   -4.1,   -1.9,   -2.4,   -2.3,   -4.4,   -5.7,   -4.7,   -5.4,   -4.0,   -4.1,   -4.6,   -6.3,   -6.1,   -4.4,   -5.3,   -6.6,   -8.1,   -8.1,   -7.9,   -8.4,   -7.9,   -8.3,   -8.7,   -8.9,   -8.8,   -8.6,   -8.3,   -8.6,   -9.0,   -8.9,   -7.2,   -7.0,   -8.3,   -9.2,   -9.7,   -9.9,   -8.9,   -8.8,   -8.1,   -7.8,   -8.2,   -8.2,   -7.8,   -8.0,   -7.0,   -8.1,  -10.6,  -10.1,   -9.5,   -9.9,  -10.2,  -10.8,  -10.7,  -11.0,  -11.3,  -11.0,  -10.3,  -10.3,   -9.8,  -10.6,  -11.6,  -12.5,  -12.6,  -12.1,  -13.0,  -11.8,  -13.1,  -12.8,  -11.7,  -12.0,  -12.2,  -13.5,  -16.3,  999.0,  999.0,  999.0,  999.0,  999.0,  999.0,  999.0,  -17.8,  999.0,  999.0,  999.0,  999.0,  999.0,  999.0,  999.0,  999.0,  999.0,  999.0,  999.0,  999.0,  999.0,  999.0,  999.0,  -19.5,  999.0,  999.0,  999.0,  999.0,  999.0,  999.0,  999.0,  999.0,  999.0,  999.0,  999.0,  999.0,  999.0,  999.0,  999.0,  999.0,  999.0,  999.0,  999.0,  999.0,  999.0,  999.0,  999.0
2016/09/02 20:40,   -1.5,   -2.3,   -3.2,   -2.6,   -2.5,   -3.9,   -5.0,   -4.4,   -3.2,   -3.5,   -4.6,   -6.4,   -5.3,   -3.0,   -5.0,   -6.4,   -8.0,   -7.6,   -7.3,   -8.1,   -7.8,   -8.0,   -8.6,   -7.9,   -8.3,   -8.6,   -7.8,   -7.7,   -8.5,   -7.9,   -7.1,   -6.9,   -8.2,   -9.0,   -9.2,   -9.3,   -8.6,   -8.8,   -7.9,   -7.7,   -8.3,   -8.4,   -7.8,   -7.8,   -7.5,   -9.0,  -10.2,  -10.1,  -10.3,  -11.1,  -10.5,  -11.0,  -11.0,  -11.6,  -11.7,  -11.5,  -10.7,  -10.1,  -10.1,  -10.7,  -11.9,  -12.3,  -12.7,  -12.4,  -12.4,  -11.5,  -11.7,  -11.3,  -12.4,  -13.7,  -13.4,  -15.8,  999.0,  999.0,  999.0,  999.0,   -8.4,   -9.7,  999.0,  999.0,  999.0,  999.0,  999.0,  999.0,  999.0,  999.0,  999.0,  999.0,  999.0,  999.0,  999.0,  999.0,  999.0,  999.0,  999.0,  999.0,  999.0,  999.0,  999.0,  999.0,  999.0,  -28.6,  999.0,  999.0,  999.0,  999.0,  999.0,  999.0,  999.0,  -18.8,  999.0,  999.0,  999.0,  999.0,  999.0,  999.0,  999.0,  999.0,  999.0,  999.0
2016/09/02 20:50,  999.0,   -2.1,   -3.5,   -3.0,   -3.4,   -5.2,   -5.1,   -4.3,   -3.4,   -3.7,   -5.8,   -6.3,   -4.7,   -4.0,   -5.4,   -7.0,   -8.1,   -7.3,   -7.0,   -7.5,   -8.0,   -8.4,   -8.9,   -8.8,   -9.0,   -9.2,   -8.9,   -8.1,   -8.4,   -7.9,   -7.2,   -7.6,   -7.8,   -8.4,   -8.4,   -8.0,   -7.8,   -7.6,   -7.6,   -7.8,   -8.5,   -8.5,   -8.3,   -7.5,   -7.8,   -8.4,  -10.2,  -10.2,  -10.9,  -11.4,  -10.8,  -11.3,  -10.9,  -11.1,  -11.2,  -11.4,  -11.0,  -10.6,  -10.9,  -11.8,  -12.4,  -11.9,  -12.3,  -12.8,  -12.3,  -12.0,  -11.6,  -12.1,  -13.6,  -16.0,  -16.7,  999.0,  999.0,  999.0,  999.0,  999.0,  999.0,  999.0,  999.0,  999.0,  999.0,  -19.1,  999.0,  999.0,  999.0,  999.0,  999.0,  999.0,  999.0,  999.0,  999.0,  999.0,  999.0,  999.0,  999.0,  999.0,  -20.4,  999.0,  999.0,  -22.6,  999.0,  -21.5,  999.0,  999.0,  999.0,  999.0,  999.0,  999.0,  999.0,  999.0,  999.0,  999.0,  999.0,  999.0,  999.0,  999.0,  999.0,  999.0,  999.0,  999.0
2016/09/02 21:00,  999.0,   -1.7,   -2.6,   -3.7,   -5.2,   -6.7,  999.0,   -5.4,   -4.3,   -4.9,   -6.3,   -5.7,   -5.0,   -5.0,   -7.0,   -7.7,   -8.1,   -7.0,   -7.2,   -7.9,   -8.5,   -8.6,   -9.6,   -9.7,  -10.4,   -9.8,  -10.1,   -9.0,   -8.3,   -7.9,   -6.9,   -7.5,   -7.4,   -7.4,   -7.2,   -7.0,   -7.1,   -6.7,   -7.2,   -7.2,   -7.6,   -7.6,   -7.8,   -7.5,   -7.5,   -7.9,   -9.9,  -10.2,  -10.4,  -10.9,  -10.6,  -10.8,  -10.8,  -10.7,  -11.3,  -11.6,  -11.1,  -10.8,  -11.2,  -12.0,  -12.0,  -11.9,  -12.2,  -12.3,  -11.1,  -11.7,  -12.0,  -14.2,  -14.7,  -16.4,  999.0,  999.0,  999.0,  999.0,  999.0,  999.0,  999.0,  999.0,  999.0,  999.0,  999.0,  -18.4,  999.0,  999.0,  999.0,  999.0,  999.0,  999.0,  999.0,  999.0,  999.0,  999.0,  999.0,  999.0,  999.0,  999.0,  999.0,  999.0,  999.0,  -21.6,  999.0,  999.0,  999.0,  999.0,  999.0,  999.0,  999.0,  999.0,  999.0,  999.0,  999.0,   -7.1,  999.0,  999.0,  999.0,  999.0,  999.0,  999.0,  999.0,  999.0
2016/09/02 21:10,  999.0,   -3.1,   -2.6,   -3.8,   -5.1,   -6.2,   -5.6,   -5.2,   -4.3,   -5.0,   -6.1,   -5.6,   -5.4,   -6.0,   -6.9,   -7.2,   -7.5,   -6.9,   -7.5,   -8.5,   -8.5,   -9.0,  -10.0,  -10.2,  -10.7,  -10.5,  -10.2,   -8.7,   -8.2,   -7.5,   -7.1,   -7.4,   -7.0,   -7.7,   -7.1,   -7.3,   -7.0,   -6.9,   -7.1,   -7.2,   -7.4,   -7.6,   -7.6,   -7.5,   -7.8,   -8.5,   -9.6,  -10.7,   -9.9,  -10.3,  -10.7,  -11.1,  -10.0,  -11.0,  -11.6,  -11.8,  -11.4,  -10.8,  -11.0,  -11.6,  -12.2,  -12.1,  -12.4,  -11.3,  -11.5,  -11.5,  -12.9,  -14.9,  -15.5,  -16.8,  -16.6,  999.0,  999.0,  -21.2,  999.0,  999.0,  999.0,  -16.6,  999.0,  999.0,  999.0,  -17.8,  999.0,  999.0,  -19.8,  999.0,  999.0,  999.0,  999.0,  999.0,  999.0,  999.0,  999.0,  999.0,  999.0,  999.0,  999.0,  999.0,  999.0,  -20.8,  -18.4,  -20.3,  999.0,  -23.4,  999.0,  999.0,  999.0,  999.0,  999.0,  999.0,  -18.7,  999.0,  999.0,  999.0,  999.0,  999.0,  999.0,  999.0,  999.0,  999.0
2016/09/02 21:20,  999.0,   -2.1,   -3.2,   -4.6,   -5.2,   -5.8,   -5.6,   -5.0,   -4.4,   -5.1,   -5.4,   -5.6,   -5.7,   -6.4,   -7.4,   -6.9,   -7.2,   -6.7,   -8.1,   -8.2,   -8.2,   -8.9,   -9.6,  -10.0,  -10.1,   -9.9,   -9.9,   -9.2,   -8.6,   -7.4,   -7.1,   -8.0,   -9.4,   -9.3,   -9.1,   -7.9,   -7.5,   -7.6,   -7.4,   -7.3,   -7.5,   -7.9,   -7.6,   -7.4,   -8.4,   -9.2,  -10.0,  -11.2,  -10.7,  -11.3,  -12.1,  -11.8,  -10.6,  -11.5,  -11.6,  -11.1,  -11.4,  -11.4,  -11.8,  -12.3,  -12.0,  -12.5,  -13.1,  -13.4,  -12.8,  999.0,  999.0,  999.0,  -15.7,  -16.6,  -17.1,  -19.4,  999.0,  999.0,  999.0,  999.0,  999.0,  999.0,  999.0,  999.0,  999.0,  -17.4,  999.0,  999.0,  999.0,  999.0,  999.0,  999.0,  999.0,  999.0,  999.0,  999.0,  999.0,  999.0,  999.0,  999.0,  999.0,  999.0,  999.0,  -19.1,  -18.6,  999.0,  999.0,  -22.8,  999.0,  999.0,  999.0,  999.0,  999.0,  999.0,  -19.0,  999.0,  999.0,  999.0,  999.0,  999.0,  999.0,  999.0,  999.0,  999.0
2016/09/02 21:30,   -2.5,   -2.2,   -3.8,   -4.8,   -5.7,   -5.7,   -5.7,   -4.5,   -4.4,   -4.9,   -5.3,   -5.6,   -6.2,   -7.0,   -7.9,   -6.9,   -7.0,   -6.2,   -7.9,   -7.9,   -8.2,   -8.6,   -9.5,   -9.9,   -9.6,   -9.7,   -9.8,   -9.6,   -9.1,   -7.4,   -6.9,   -7.9,   -9.5,   -9.7,   -9.0,   -7.5,   -7.4,   -7.5,   -7.4,   -7.0,   -7.2,   -7.1,   -6.9,   -6.8,   -8.1,   -8.7,   -8.9,   -9.4,   -9.5,  -10.4,  -10.1,   -9.6,   -9.3,  -10.6,   -9.4,  -10.1,  -10.9,  -11.2,  -12.2,  -12.0,  -11.4,  -11.9,  -13.2,  -13.2,  -14.2,  -15.1,  999.0,  999.0,  999.0,  -17.0,  999.0,  999.0,  999.0,  999.0,  999.0,  999.0,  999.0,  999.0,  999.0,  999.0,  -15.6,  999.0,  999.0,  999.0,  -18.7,  999.0,  999.0,  999.0,  999.0,  999.0,  999.0,  999.0,  999.0,  999.0,  999.0,  -16.3,  999.0,  999.0,  -17.8,  -18.7,  -18.6,  -18.0,  -19.3,  -22.8,  999.0,  999.0,  999.0,  999.0,  999.0,  999.0,  -19.3,  999.0,  999.0,  999.0,  999.0,  999.0,  999.0,  999.0,  999.0,  999.0
2016/09/02 21:40,  999.0,   -2.4,   -4.3,   -5.3,   -6.1,   -5.5,   -5.6,   -4.7,   -4.2,   -5.0,   -5.6,   -5.8,   -6.4,   -7.9,   -8.5,   -7.2,   -6.8,   -6.9,   -8.0,   -7.7,   -8.2,   -8.9,   -9.7,   -9.4,   -9.4,   -9.2,   -9.3,   -8.9,   -8.8,   -7.2,   -6.6,   -7.5,   -8.9,   -9.1,   -8.5,   -7.3,   -6.7,   -7.2,   -7.0,   -6.5,   -7.0,   -6.6,   -6.4,   -6.8,   -7.5,   -8.2,   -8.6,   -9.0,   -9.4,  -10.1,   -9.5,   -8.9,   -8.9,   -9.0,   -9.5,   -9.6,  -10.4,  -11.2,  -11.3,  -10.7,  -11.1,  -12.0,  -13.5,  -13.7,  -14.1,  999.0,  999.0,  -14.7,  999.0,  -17.0,  999.0,  999.0,  999.0,  999.0,  999.0,  999.0,  999.0,  999.0,  999.0,  999.0,  999.0,  999.0,  -18.3,  999.0,  -18.7,  999.0,  999.0,  999.0,  999.0,  999.0,  999.0,  999.0,  999.0,  999.0,  999.0,  -16.1,  999.0,  999.0,  999.0,  -18.8,  -18.8,  -17.4,  999.0,  999.0,  999.0,  999.0,  999.0,  999.0,  999.0,  999.0,  -19.1,  -17.7,  999.0,  999.0,  999.0,  999.0,  999.0,  999.0,  999.0,  999.0
2016/09/02 21:50,  999.0,   -4.1,   -5.2,   -6.2,   -6.4,   -5.8,   -5.6,   -4.9,   -3.9,   -5.2,   -5.9,   -5.5,   -6.5,   -7.5,   -7.7,   -7.3,   -6.8,   -7.5,   -8.0,   -7.8,   -8.6,   -9.2,   -9.2,   -9.0,   -9.6,   -9.5,   -8.7,   -7.9,   -8.1,   -6.8,   -6.2,   -6.8,   -7.0,   -7.8,   -7.4,   -7.1,   -6.1,   -6.4,   -6.3,   -6.6,   -6.9,   -6.2,   -6.2,   -7.3,   -8.3,   -9.2,   -9.9,  -10.4,  -10.6,  -10.8,  -10.3,  -10.2,   -9.4,   -9.2,  -10.1,  -11.1,  -11.9,  -12.3,  -11.6,  -11.8,  -12.4,  -14.1,  999.0,  -14.4,  -14.2,  -14.7,  999.0,  -14.7,  -16.2,  999.0,  999.0,  -16.1,  -16.2,  -18.1,  999.0,  999.0,  999.0,  999.0,  999.0,  999.0,  999.0,  -17.7,  -18.2,  999.0,  999.0,  999.0,  999.0,  999.0,  999.0,  999.0,  999.0,  999.0,  999.0,  999.0,  999.0,  999.0,  999.0,  999.0,  999.0,  -19.0,  -19.2,  -17.3,  999.0,  999.0,  -23.7,  999.0,  999.0,  999.0,  999.0,  999.0,  999.0,  999.0,  999.0,  999.0,  999.0,  999.0,  999.0,  999.0,  999.0,  999.0
2016/09/02 22:00,  999.0,   -4.3,  999.0,   -6.6,   -6.2,   -5.6,   -5.4,   -4.7,   -3.8,   -5.3,   -5.8,   -5.5,   -6.6,   -7.1,   -7.0,   -7.0,   -6.5,   -7.2,   -7.8,   -8.6,   -9.5,   -9.5,   -9.0,   -8.7,   -9.3,   -9.2,   -8.5,   -7.4,   -7.4,   -6.6,   -6.1,   -6.4,   -6.8,   -7.4,   -7.1,   -7.0,   -6.3,   -6.3,   -6.5,   -7.1,   -7.4,   -6.9,   -6.7,   -8.0,   -9.0,   -9.8,  -10.2,  -10.4,  -10.6,  -10.8,  -10.1,  -10.3,   -9.7,   -9.2,  -10.1,  -11.8,  -13.0,  -11.7,  -11.9,  -13.3,  -13.2,  -14.5,  999.0,  -14.5,  -14.6,  -14.2,  999.0,  -14.0,  -16.2,  999.0,  999.0,  999.0,  -16.2,  999.0,  999.0,  999.0,  999.0,  999.0,  999.0,  999.0,  999.0,  -17.4,  -18.0,  999.0,  999.0,  -17.4,  999.0,  -19.1,  -17.0,  999.0,  999.0,  999.0,  999.0,  999.0,  999.0,  -15.3,  999.0,  999.0,  999.0,  -18.7,  -19.0,  999.0,  999.0,  -23.6,  -23.0,  999.0,  999.0,  999.0,  999.0,  999.0,  999.0,  999.0,  999.0,  999.0,  999.0,  999.0,  999.0,  999.0,  999.0,  999.0
2016/09/02 22:10,   -0.4,   -3.5,   -6.1,   -6.8,   -6.0,   -5.5,   -5.4,   -4.7,   -4.0,   -5.2,   -5.7,   -6.0,   -6.8,   -6.6,   -6.4,   -6.7,   -6.4,   -6.8,   -7.9,   -9.2,  -10.0,   -9.8,   -9.4,   -8.5,   -9.1,   -9.0,   -8.1,   -7.2,   -6.9,   -6.6,   -6.4,   -6.4,   -6.8,   -7.3,   -7.3,   -7.2,   -6.6,   -6.3,   -6.8,   -7.2,   -7.3,   -7.3,   -7.3,   -8.3,   -9.1,   -9.7,   -9.5,   -9.5,   -9.4,  -10.2,   -9.6,   -9.6,   -8.9,   -8.7,   -9.9,  -11.2,  -12.1,  -11.9,  -11.8,  -12.8,  -13.4,  -13.5,  -13.6,  -14.4,  -14.4,  -14.7,  999.0,  -13.8,  -16.2,  -16.0,  999.0,  999.0,  -16.5,  999.0,  999.0,  999.0,  999.0,  999.0,  999.0,  999.0,  999.0,  -17.1,  -17.7,  -18.3,  999.0,  999.0,  999.0,  -19.5,  -17.3,  999.0,  999.0,  999.0,  999.0,  999.0,  999.0,  999.0,  999.0,  999.0,  -16.3,  -18.4,  -18.4,  999.0,  999.0,  999.0,  999.0,  999.0,  999.0,  999.0,  999.0,  999.0,  999.0,  999.0,  999.0,  999.0,  999.0,  999.0,  999.0,  999.0,  999.0,  999.0
2016/09/02 22:20,   -0.2,   -1.3,   -6.2,   -6.5,   -6.2,   -6.1,   -5.9,   -5.4,   -4.9,   -5.5,   -6.3,   -6.7,   -6.5,   -6.1,   -6.1,   -6.7,   -6.9,   -7.1,   -8.6,  -10.2,  -10.8,  -10.9,  -10.6,   -8.7,   -9.0,   -8.9,   -7.5,   -6.6,   -6.6,   -6.1,   -6.2,   -6.3,   -6.3,   -7.4,   -6.7,   -7.1,   -6.1,   -5.8,   -6.4,   -7.0,   -7.1,   -7.4,   -7.4,   -8.7,   -8.9,   -9.4,   -8.6,   -8.7,   -9.0,   -9.2,   -8.6,   -9.1,   -8.6,   -9.1,  -10.2,  -11.4,  -11.8,  -12.3,  -11.9,  -12.2,  -12.7,  -13.0,  -13.6,  -14.1,  -14.4,  -15.0,  999.0,  -13.5,  -15.5,  -15.6,  999.0,  -14.9,  -16.8,  999.0,  999.0,  999.0,  999.0,  999.0,  999.0,  999.0,  999.0,  -16.1,  -17.0,  -17.8,  999.0,  999.0,  999.0,  -19.4,  999.0,  999.0,  999.0,  999.0,  999.0,  999.0,  999.0,  999.0,  999.0,  999.0,  -16.5,  -18.6,  -18.7,  -18.7,  999.0,  -23.7,  999.0,  999.0,  999.0,  999.0,  999.0,  999.0,  999.0,  999.0,  999.0,  999.0,  999.0,  999.0,  999.0,  999.0,  999.0,  999.0
2016/09/02 22:30,   -0.1,   -2.2,   -6.4,   -6.4,   -6.1,   -5.9,   -5.9,   -5.6,   -5.5,   -5.6,   -6.6,   -6.9,   -6.4,   -6.1,   -6.3,   -7.1,   -7.2,   -7.9,   -9.4,  -10.6,  -11.7,  -11.7,  -11.3,   -9.4,   -9.2,   -8.6,   -7.3,   -6.6,   -6.3,   -5.6,   -6.2,   -6.5,   -6.6,   -6.3,   -5.8,   -6.5,   -5.9,   -5.8,   -6.3,   -7.2,   -6.6,   -7.1,   -8.1,   -9.2,   -9.7,   -9.2,   -8.9,   -9.3,   -9.0,   -8.7,   -8.6,   -9.0,   -8.7,   -9.3,  -10.2,  -11.0,  -11.5,  -11.9,  -11.6,  -11.5,  -11.8,  -13.1,  -14.0,  -13.1,  -13.9,  999.0,  999.0,  -13.8,  -15.6,  -15.6,  999.0,  -15.6,  999.0,  999.0,  999.0,  999.0,  999.0,  999.0,  999.0,  999.0,  -14.3,  999.0,  999.0,  -17.4,  999.0,  999.0,  999.0,  999.0,  999.0,  999.0,  999.0,  999.0,  999.0,  999.0,  999.0,  999.0,  999.0,  999.0,  999.0,  -18.5,  -19.3,  999.0,  999.0,  -24.0,  -22.4,  999.0,  999.0,  999.0,  999.0,  999.0,  999.0,  999.0,  999.0,  999.0,  999.0,  999.0,  999.0,  999.0,  999.0,  999.0
2016/09/02 22:40,   -0.2,   -4.5,   -6.5,   -6.2,   -6.0,   -5.9,   -5.6,   -5.4,   -5.1,   -5.1,   -6.3,   -6.4,   -6.0,   -5.8,   -6.2,   -6.9,   -7.1,   -8.1,   -9.6,  -10.6,  -11.7,  -11.6,  -11.4,   -9.5,   -9.3,   -8.0,   -7.2,   -6.4,   -6.0,   -5.5,   -6.6,   -7.2,   -6.4,   -6.4,   -6.2,   -6.9,   -6.4,   -6.4,   -6.7,   -7.6,   -6.7,   -7.3,   -9.3,  -10.2,  -10.4,   -9.0,   -9.4,   -9.3,   -9.2,   -8.7,   -8.6,   -8.8,   -8.9,   -9.3,  -10.3,  -10.3,  -10.9,  -11.2,  -11.0,  -11.9,  -11.8,  -12.8,  -13.1,  -12.5,  -12.7,  -13.6,  -13.1,  -14.1,  -15.5,  -15.5,  -15.8,  -16.2,  999.0,  999.0,  999.0,  999.0,  999.0,  999.0,  999.0,  999.0,  -13.9,  999.0,  999.0,  999.0,  -18.1,  -20.1,  999.0,  999.0,  999.0,  999.0,  999.0,  999.0,  999.0,  999.0,  999.0,  999.0,  999.0,  999.0,  999.0,  -18.6,  -20.0,  -17.7,  999.0,  -23.9,  -22.7,  999.0,  999.0,  999.0,  999.0,  999.0,  999.0,  999.0,  999.0,  999.0,  999.0,  999.0,  999.0,  999.0,  999.0,  999.0
2016/09/02 22:50,  999.0,   -4.9,   -6.8,   -6.1,   -6.0,   -6.0,   -5.4,   -5.3,   -4.7,   -5.0,   -6.2,   -6.1,   -5.7,   -5.5,   -5.9,   -6.6,   -7.0,   -8.3,   -9.5,  -11.1,  -11.6,  -11.2,  -11.2,   -9.5,   -9.3,   -7.4,   -7.2,   -6.5,   -6.2,   -5.2,   -6.8,   -7.0,   -6.2,   -6.1,   -6.7,   -6.9,   -6.7,   -6.8,   -7.8,   -8.2,   -7.3,   -7.9,   -9.6,  -10.3,  -10.7,   -9.3,   -9.8,   -9.5,   -9.2,   -8.8,   -8.7,   -8.6,   -8.9,   -9.6,  -10.0,  -10.6,  -10.4,  -11.0,  -10.9,  -11.8,  -11.9,  -12.4,  -12.1,  -11.8,  -12.4,  999.0,  999.0,  -13.8,  -15.7,  -15.4,  -15.7,  999.0,  999.0,  999.0,  999.0,  999.0,  999.0,  999.0,  999.0,  999.0,  999.0,  999.0,  999.0,  999.0,  -17.6,  999.0,  999.0,  999.0,  999.0,  999.0,  999.0,  999.0,  999.0,  999.0,  999.0,  999.0,  999.0,  -17.2,  999.0,  -18.3,  -20.2,  999.0,  999.0,  -24.8,  999.0,  999.0,  999.0,  999.0,  999.0,  999.0,  999.0,  999.0,  999.0,  999.0,  999.0,  999.0,  999.0,  999.0,  999.0,  999.0
2016/09/02 23:00,  999.0,  999.0,   -6.6,   -6.1,   -6.3,   -6.2,   -5.9,   -5.6,   -5.4,   -5.4,   -6.2,   -6.1,   -5.9,   -5.5,   -6.0,   -6.4,   -7.2,   -8.6,   -9.6,  -11.2,  -11.4,  -10.8,  -10.8,   -8.6,   -8.8,   -7.0,   -7.3,   -6.5,   -5.9,   -5.0,   -6.7,   -6.9,   -5.8,   -6.2,   -6.5,   -6.7,   -6.5,   -6.8,   -8.3,   -8.0,   -7.5,   -8.1,   -9.2,   -9.6,   -9.8,   -9.0,   -9.4,   -8.8,   -8.6,   -8.6,   -8.6,   -8.7,   -9.0,   -9.9,  -10.1,  -10.7,  -10.4,  -10.1,  -10.9,  -11.5,  -12.0,  -11.8,  -11.6,  -11.3,  -11.9,  999.0,  -12.5,  -13.8,  -15.2,  -14.2,  -15.5,  999.0,  999.0,  999.0,  999.0,  999.0,  999.0,  999.0,  999.0,  999.0,  999.0,  999.0,  999.0,  999.0,  -17.6,  -18.0,  999.0,  999.0,  -17.2,  999.0,  999.0,  999.0,  999.0,  999.0,  999.0,  999.0,  999.0,  999.0,  999.0,  -18.0,  -20.0,  999.0,  -23.1,  -25.3,  999.0,  999.0,  999.0,  999.0,  999.0,  999.0,  -18.2,  999.0,  999.0,  999.0,  999.0,  999.0,  999.0,  999.0,  999.0,  999.0
2016/09/02 23:10,  -15.2,  999.0,  999.0,   -6.1,   -6.4,   -6.2,   -6.0,   -5.7,   -5.8,   -5.6,   -5.8,   -5.9,   -5.5,   -5.8,   -6.3,   -7.3,   -7.6,   -9.8,  -11.3,  -11.3,  -10.5,  -10.0,   -9.8,   -8.5,   -7.5,   -6.6,   -7.0,   -6.5,   -5.1,   -5.8,   -6.5,   -6.5,   -5.8,   -6.4,   -6.2,   -6.2,   -6.1,   -6.5,   -7.8,   -7.1,   -6.6,   -7.3,   -8.2,   -8.3,   -9.0,   -8.1,   -7.8,   -7.3,   -7.5,   -8.7,   -8.5,   -9.0,   -9.3,   -9.9,   -9.6,  -10.1,   -9.5,   -9.8,  -10.9,  -12.0,  -11.4,  -11.4,  -11.1,  -11.0,  -11.7,  -11.7,  -14.2,  -14.4,  -15.0,  999.0,  999.0,  999.0,  -14.8,  999.0,  999.0,  999.0,  999.0,  999.0,  999.0,  999.0,  999.0,  999.0,  999.0,  999.0,  999.0,  999.0,  999.0,  999.0,  999.0,  999.0,  999.0,  999.0,  999.0,  999.0,  999.0,  999.0,  999.0,  999.0,  -15.1,  -16.6,  -17.6,  999.0,  999.0,  -25.2,  -21.8,  999.0,  -21.7,  999.0,  999.0,  999.0,  -18.5,  999.0,  999.0,  999.0,  999.0,  999.0,  999.0,  999.0,  999.0,  999.0
2016/09/02 23:20,  999.0,  999.0,   -5.5,   -5.9,   -6.0,   -6.1,   -5.9,   -5.8,   -5.5,   -5.4,   -5.0,   -5.1,   -5.1,   -5.4,   -6.4,   -7.0,   -7.8,  -10.2,  -11.7,  -11.0,   -9.9,   -9.5,   -9.0,   -8.6,   -7.7,   -6.7,   -6.9,   -6.5,   -4.9,   -6.2,   -6.1,   -6.3,   -6.1,   -6.0,   -6.1,   -5.8,   -5.6,   -6.5,   -7.4,   -6.7,   -6.0,   -6.0,   -7.2,   -7.3,   -7.8,   -7.3,  999.0,   -6.7,   -7.1,   -8.5,   -8.9,   -9.5,  -10.2,  -10.3,   -9.1,   -9.9,   -9.9,  -10.3,  -11.1,  -12.1,  -11.0,  -11.1,  -11.0,  -11.1,  -11.3,  999.0,  -13.8,  -14.6,  -15.4,  999.0,  999.0,  999.0,  -14.4,  -14.9,  999.0,  999.0,  999.0,  999.0,  999.0,  999.0,  999.0,  -14.8,  -14.6,  999.0,  -16.3,  999.0,  999.0,  999.0,  999.0,  999.0,  999.0,  999.0,  999.0,  999.0,  999.0,  999.0,  999.0,  999.0,  -16.7,  -16.9,  -16.4,  -16.3,  999.0,  999.0,  -21.2,  999.0,  -21.9,  999.0,  999.0,  999.0,  999.0,  999.0,  999.0,  999.0,  999.0,  999.0,  999.0,  999.0,  999.0,  999.0
2016/09/02 23:30,  999.0,  999.0,   -5.4,   -5.7,   -6.0,   -6.1,   -5.9,   -5.9,   -5.6,   -5.4,   -4.8,   -4.9,   -5.0,   -5.1,   -6.1,   -7.0,   -7.8,  -10.0,  -11.5,  -10.6,   -9.6,   -8.8,   -8.6,   -8.2,   -7.7,   -6.9,   -6.9,   -6.4,   -5.4,   -6.2,   -5.7,   -5.9,   -5.7,   -5.6,   -6.0,   -5.5,   -5.6,   -6.3,   -6.6,   -6.3,   -6.0,   -6.3,   -6.8,   -6.6,   -7.5,   -7.1,   -6.1,   -7.0,   -6.8,   -8.1,   -8.8,   -9.4,  -10.5,  -10.1,   -9.3,   -9.7,  -10.5,  -10.6,  -11.2,  -11.1,  -11.3,  -11.0,  -11.1,  -11.7,  -11.4,  999.0,  -14.3,  -14.7,  999.0,  999.0,  -16.0,  999.0,  -14.3,  -15.7,  999.0,  999.0,  999.0,  999.0,  999.0,  999.0,  -15.1,  -14.7,  -15.3,  -16.7,  999.0,  -18.3,  999.0,  999.0,  999.0,  999.0,  999.0,  999.0,  999.0,  999.0,  999.0,  999.0,  999.0,  -17.1,  -17.4,  -17.5,  -15.4,  999.0,  -21.2,  -23.6,  -21.2,  999.0,  -22.4,  999.0,  999.0,  999.0,  999.0,  999.0,  999.0,  999.0,  999.0,  999.0,  999.0,  999.0,  999.0,  999.0
